<?xml version="1.0" encoding="UTF-8" standalone="no" ?><gpx xmlns="http://www.topografix.com/GPX/1/1" xmlns:gpxx="http://www.garmin.com/xmlschemas/GpxExtensions/v3" xmlns:wptx1="http://www.garmin.com/xmlschemas/WaypointExtension/v1" xmlns:gpxtpx="http://www.garmin.com/xmlschemas/TrackPointExtension/v1" creator="GuideVTT.com" version="1.1" xmlns:xsi="http://www.w3.org/2001/XMLSchema-instance" xsi:schemaLocation="http://www.topografix.com/GPX/1/1 http://www.topografix.com/GPX/1/1/gpx.xsd http://www.garmin.com/xmlschemas/GpxExtensions/v3 http://www8.garmin.com/xmlschemas/GpxExtensionsv3.xsd http://www.garmin.com/xmlschemas/WaypointExtension/v1 http://www8.garmin.com/xmlschemas/WaypointExtensionv1.xsd http://www.garmin.com/xmlschemas/TrackPointExtension/v1 http://www.garmin.com/xmlschemas/TrackPointExtensionv1.xsd">
<metadata><link href="http://www.garmin.com"><text>Garmin International</text></link><time>2013-06-22T15:13:50Z</time></metadata>
<trk><name>00000_20110114.gpx</name><extensions><gpxx:TrackExtension><gpxx:DisplayColor>Cyan</gpxx:DisplayColor></gpxx:TrackExtension></extensions><trkseg>
<trkpt lat="43.876125" lon="5.398423"><ele>-49</ele><time>2011-01-14T09:00:59Z</time></trkpt>
<trkpt lat="43.876030" lon="5.398415"><ele>-49</ele><time>2011-01-14T09:01:03Z</time></trkpt>
<trkpt lat="43.875538" lon="5.400088"><ele>181.1</ele><time>2011-01-14T09:01:08Z</time></trkpt>
<trkpt lat="43.875388" lon="5.400223"><ele>183.9</ele><time>2011-01-14T09:01:13Z</time></trkpt>
<trkpt lat="43.875228" lon="5.400345"><ele>185</ele><time>2011-01-14T09:01:18Z</time></trkpt>
<trkpt lat="43.875062" lon="5.400265"><ele>185.7</ele><time>2011-01-14T09:01:23Z</time></trkpt>
<trkpt lat="43.874917" lon="5.400357"><ele>186.3</ele><time>2011-01-14T09:01:28Z</time></trkpt>
<trkpt lat="43.874847" lon="5.400612"><ele>187.1</ele><time>2011-01-14T09:01:33Z</time></trkpt>
<trkpt lat="43.874698" lon="5.400833"><ele>201</ele><time>2011-01-14T09:01:38Z</time></trkpt>
<trkpt lat="43.874557" lon="5.400998"><ele>206.4</ele><time>2011-01-14T09:01:43Z</time></trkpt>
<trkpt lat="43.874435" lon="5.401177"><ele>211.4</ele><time>2011-01-14T09:01:48Z</time></trkpt>
<trkpt lat="43.874358" lon="5.401367"><ele>214.6</ele><time>2011-01-14T09:01:53Z</time></trkpt>
<trkpt lat="43.874325" lon="5.401582"><ele>217</ele><time>2011-01-14T09:01:58Z</time></trkpt>
<trkpt lat="43.874295" lon="5.401800"><ele>219.4</ele><time>2011-01-14T09:02:03Z</time></trkpt>
<trkpt lat="43.874268" lon="5.402017"><ele>221.8</ele><time>2011-01-14T09:02:08Z</time></trkpt>
<trkpt lat="43.874237" lon="5.402225"><ele>224</ele><time>2011-01-14T09:02:13Z</time></trkpt>
<trkpt lat="43.874215" lon="5.402422"><ele>225.6</ele><time>2011-01-14T09:02:18Z</time></trkpt>
<trkpt lat="43.874180" lon="5.402615"><ele>226.7</ele><time>2011-01-14T09:02:23Z</time></trkpt>
<trkpt lat="43.874160" lon="5.402812"><ele>231.4</ele><time>2011-01-14T09:02:28Z</time></trkpt>
<trkpt lat="43.874130" lon="5.403000"><ele>232.3</ele><time>2011-01-14T09:02:33Z</time></trkpt>
<trkpt lat="43.874107" lon="5.403195"><ele>236.8</ele><time>2011-01-14T09:02:38Z</time></trkpt>
<trkpt lat="43.874073" lon="5.403378"><ele>238.7</ele><time>2011-01-14T09:02:43Z</time></trkpt>
<trkpt lat="43.874043" lon="5.403555"><ele>240.1</ele><time>2011-01-14T09:02:48Z</time></trkpt>
<trkpt lat="43.874012" lon="5.403735"><ele>241.2</ele><time>2011-01-14T09:02:53Z</time></trkpt>
<trkpt lat="43.873978" lon="5.403915"><ele>242.3</ele><time>2011-01-14T09:02:58Z</time></trkpt>
<trkpt lat="43.873947" lon="5.404095"><ele>243.2</ele><time>2011-01-14T09:03:03Z</time></trkpt>
<trkpt lat="43.873917" lon="5.404270"><ele>244.5</ele><time>2011-01-14T09:03:08Z</time></trkpt>
<trkpt lat="43.873882" lon="5.404440"><ele>245.7</ele><time>2011-01-14T09:03:13Z</time></trkpt>
<trkpt lat="43.873840" lon="5.404597"><ele>246.9</ele><time>2011-01-14T09:03:18Z</time></trkpt>
<trkpt lat="43.873763" lon="5.404720"><ele>248.1</ele><time>2011-01-14T09:03:23Z</time></trkpt>
<trkpt lat="43.873680" lon="5.404823"><ele>249.4</ele><time>2011-01-14T09:03:28Z</time></trkpt>
<trkpt lat="43.873592" lon="5.404917"><ele>250.8</ele><time>2011-01-14T09:03:33Z</time></trkpt>
<trkpt lat="43.873497" lon="5.405000"><ele>252</ele><time>2011-01-14T09:03:38Z</time></trkpt>
<trkpt lat="43.873410" lon="5.405095"><ele>253.3</ele><time>2011-01-14T09:03:42Z</time></trkpt>
<trkpt lat="43.873313" lon="5.405183"><ele>254.7</ele><time>2011-01-14T09:03:47Z</time></trkpt>
<trkpt lat="43.873230" lon="5.405287"><ele>255.8</ele><time>2011-01-14T09:03:52Z</time></trkpt>
<trkpt lat="43.873168" lon="5.405413"><ele>256.9</ele><time>2011-01-14T09:03:57Z</time></trkpt>
<trkpt lat="43.873147" lon="5.405553"><ele>257.7</ele><time>2011-01-14T09:04:02Z</time></trkpt>
<trkpt lat="43.873138" lon="5.405700"><ele>258.1</ele><time>2011-01-14T09:04:07Z</time></trkpt>
<trkpt lat="43.873138" lon="5.405847"><ele>258.6</ele><time>2011-01-14T09:04:12Z</time></trkpt>
<trkpt lat="43.873147" lon="5.405993"><ele>259.3</ele><time>2011-01-14T09:04:17Z</time></trkpt>
<trkpt lat="43.873180" lon="5.406133"><ele>260.2</ele><time>2011-01-14T09:04:22Z</time></trkpt>
<trkpt lat="43.873233" lon="5.406262"><ele>261.2</ele><time>2011-01-14T09:04:27Z</time></trkpt>
<trkpt lat="43.873292" lon="5.406382"><ele>262.2</ele><time>2011-01-14T09:04:32Z</time></trkpt>
<trkpt lat="43.873348" lon="5.406503"><ele>263.1</ele><time>2011-01-14T09:04:37Z</time></trkpt>
<trkpt lat="43.873393" lon="5.406640"><ele>264.1</ele><time>2011-01-14T09:04:42Z</time></trkpt>
<trkpt lat="43.873425" lon="5.406785"><ele>265.2</ele><time>2011-01-14T09:04:47Z</time></trkpt>
<trkpt lat="43.873447" lon="5.406905"><ele>266</ele><time>2011-01-14T09:04:52Z</time></trkpt>
<trkpt lat="43.873463" lon="5.407020"><ele>266.7</ele><time>2011-01-14T09:04:57Z</time></trkpt>
<trkpt lat="43.873482" lon="5.407135"><ele>267.3</ele><time>2011-01-14T09:05:02Z</time></trkpt>
<trkpt lat="43.873493" lon="5.407252"><ele>268</ele><time>2011-01-14T09:05:07Z</time></trkpt>
<trkpt lat="43.873490" lon="5.407370"><ele>268.9</ele><time>2011-01-14T09:05:12Z</time></trkpt>
<trkpt lat="43.873478" lon="5.407487"><ele>269.6</ele><time>2011-01-14T09:05:17Z</time></trkpt>
<trkpt lat="43.873455" lon="5.407602"><ele>270.3</ele><time>2011-01-14T09:05:22Z</time></trkpt>
<trkpt lat="43.873420" lon="5.407715"><ele>271.2</ele><time>2011-01-14T09:05:27Z</time></trkpt>
<trkpt lat="43.873383" lon="5.407825"><ele>271.9</ele><time>2011-01-14T09:05:32Z</time></trkpt>
<trkpt lat="43.873340" lon="5.407932"><ele>272.5</ele><time>2011-01-14T09:05:37Z</time></trkpt>
<trkpt lat="43.873283" lon="5.408032"><ele>273.5</ele><time>2011-01-14T09:05:42Z</time></trkpt>
<trkpt lat="43.873212" lon="5.408113"><ele>274.3</ele><time>2011-01-14T09:05:47Z</time></trkpt>
<trkpt lat="43.873135" lon="5.408185"><ele>275</ele><time>2011-01-14T09:05:52Z</time></trkpt>
<trkpt lat="43.873047" lon="5.408247"><ele>275.7</ele><time>2011-01-14T09:05:57Z</time></trkpt>
<trkpt lat="43.872958" lon="5.408305"><ele>276.5</ele><time>2011-01-14T09:06:02Z</time></trkpt>
<trkpt lat="43.872875" lon="5.408363"><ele>277.4</ele><time>2011-01-14T09:06:07Z</time></trkpt>
<trkpt lat="43.872787" lon="5.408425"><ele>278.2</ele><time>2011-01-14T09:06:12Z</time></trkpt>
<trkpt lat="43.872692" lon="5.408492"><ele>279</ele><time>2011-01-14T09:06:17Z</time></trkpt>
<trkpt lat="43.872597" lon="5.408557"><ele>279.8</ele><time>2011-01-14T09:06:22Z</time></trkpt>
<trkpt lat="43.872490" lon="5.408622"><ele>280.6</ele><time>2011-01-14T09:06:27Z</time></trkpt>
<trkpt lat="43.872383" lon="5.408697"><ele>281.2</ele><time>2011-01-14T09:06:32Z</time></trkpt>
<trkpt lat="43.872265" lon="5.408782"><ele>281.8</ele><time>2011-01-14T09:06:37Z</time></trkpt>
<trkpt lat="43.872147" lon="5.408862"><ele>282.5</ele><time>2011-01-14T09:06:42Z</time></trkpt>
<trkpt lat="43.872037" lon="5.408937"><ele>283</ele><time>2011-01-14T09:06:47Z</time></trkpt>
<trkpt lat="43.871930" lon="5.409010"><ele>283.6</ele><time>2011-01-14T09:06:52Z</time></trkpt>
<trkpt lat="43.871818" lon="5.409085"><ele>284.1</ele><time>2011-01-14T09:06:57Z</time></trkpt>
<trkpt lat="43.871708" lon="5.409163"><ele>284.7</ele><time>2011-01-14T09:07:02Z</time></trkpt>
<trkpt lat="43.871597" lon="5.409238"><ele>285.4</ele><time>2011-01-14T09:07:07Z</time></trkpt>
<trkpt lat="43.871487" lon="5.409315"><ele>285.8</ele><time>2011-01-14T09:07:12Z</time></trkpt>
<trkpt lat="43.871377" lon="5.409385"><ele>286.3</ele><time>2011-01-14T09:07:17Z</time></trkpt>
<trkpt lat="43.871265" lon="5.409460"><ele>287.2</ele><time>2011-01-14T09:07:22Z</time></trkpt>
<trkpt lat="43.871152" lon="5.409535"><ele>287.7</ele><time>2011-01-14T09:07:27Z</time></trkpt>
<trkpt lat="43.871037" lon="5.409617"><ele>288.5</ele><time>2011-01-14T09:07:32Z</time></trkpt>
<trkpt lat="43.870927" lon="5.409692"><ele>288.9</ele><time>2011-01-14T09:07:37Z</time></trkpt>
<trkpt lat="43.870815" lon="5.409765"><ele>289.3</ele><time>2011-01-14T09:07:42Z</time></trkpt>
<trkpt lat="43.870697" lon="5.409843"><ele>290</ele><time>2011-01-14T09:07:47Z</time></trkpt>
<trkpt lat="43.870587" lon="5.409917"><ele>290.6</ele><time>2011-01-14T09:07:52Z</time></trkpt>
<trkpt lat="43.870475" lon="5.409978"><ele>291.4</ele><time>2011-01-14T09:07:57Z</time></trkpt>
<trkpt lat="43.870365" lon="5.410033"><ele>292.3</ele><time>2011-01-14T09:08:02Z</time></trkpt>
<trkpt lat="43.870262" lon="5.410082"><ele>293.3</ele><time>2011-01-14T09:08:07Z</time></trkpt>
<trkpt lat="43.870158" lon="5.410122"><ele>294.2</ele><time>2011-01-14T09:08:12Z</time></trkpt>
<trkpt lat="43.870060" lon="5.410163"><ele>295</ele><time>2011-01-14T09:08:17Z</time></trkpt>
<trkpt lat="43.869960" lon="5.410207"><ele>295.9</ele><time>2011-01-14T09:08:22Z</time></trkpt>
<trkpt lat="43.869865" lon="5.410252"><ele>296.9</ele><time>2011-01-14T09:08:27Z</time></trkpt>
<trkpt lat="43.869770" lon="5.410298"><ele>297.9</ele><time>2011-01-14T09:08:32Z</time></trkpt>
<trkpt lat="43.869672" lon="5.410348"><ele>298.9</ele><time>2011-01-14T09:08:37Z</time></trkpt>
<trkpt lat="43.869575" lon="5.410402"><ele>299.6</ele><time>2011-01-14T09:08:42Z</time></trkpt>
<trkpt lat="43.869483" lon="5.410462"><ele>300.3</ele><time>2011-01-14T09:08:47Z</time></trkpt>
<trkpt lat="43.869388" lon="5.410518"><ele>300.1</ele><time>2011-01-14T09:08:52Z</time></trkpt>
<trkpt lat="43.869302" lon="5.410580"><ele>300.6</ele><time>2011-01-14T09:08:57Z</time></trkpt>
<trkpt lat="43.869213" lon="5.410648"><ele>301.9</ele><time>2011-01-14T09:09:02Z</time></trkpt>
<trkpt lat="43.869130" lon="5.410725"><ele>302.7</ele><time>2011-01-14T09:09:07Z</time></trkpt>
<trkpt lat="43.869042" lon="5.410805"><ele>303.6</ele><time>2011-01-14T09:09:12Z</time></trkpt>
<trkpt lat="43.868962" lon="5.410897"><ele>304.4</ele><time>2011-01-14T09:09:17Z</time></trkpt>
<trkpt lat="43.868877" lon="5.410990"><ele>304.8</ele><time>2011-01-14T09:09:22Z</time></trkpt>
<trkpt lat="43.868790" lon="5.411078"><ele>305.6</ele><time>2011-01-14T09:09:27Z</time></trkpt>
<trkpt lat="43.868722" lon="5.411185"><ele>306.4</ele><time>2011-01-14T09:09:32Z</time></trkpt>
<trkpt lat="43.868657" lon="5.411298"><ele>307.4</ele><time>2011-01-14T09:09:37Z</time></trkpt>
<trkpt lat="43.868587" lon="5.411408"><ele>308.3</ele><time>2011-01-14T09:09:42Z</time></trkpt>
<trkpt lat="43.868523" lon="5.411518"><ele>309.1</ele><time>2011-01-14T09:09:47Z</time></trkpt>
<trkpt lat="43.868462" lon="5.411632"><ele>310</ele><time>2011-01-14T09:09:52Z</time></trkpt>
<trkpt lat="43.868405" lon="5.411745"><ele>310.9</ele><time>2011-01-14T09:09:57Z</time></trkpt>
<trkpt lat="43.868343" lon="5.411853"><ele>311.7</ele><time>2011-01-14T09:10:02Z</time></trkpt>
<trkpt lat="43.868278" lon="5.411968"><ele>312.7</ele><time>2011-01-14T09:10:07Z</time></trkpt>
<trkpt lat="43.868213" lon="5.412083"><ele>313.6</ele><time>2011-01-14T09:10:12Z</time></trkpt>
<trkpt lat="43.868148" lon="5.412200"><ele>314.5</ele><time>2011-01-14T09:10:17Z</time></trkpt>
<trkpt lat="43.868083" lon="5.412322"><ele>315.3</ele><time>2011-01-14T09:10:22Z</time></trkpt>
<trkpt lat="43.868018" lon="5.412443"><ele>316</ele><time>2011-01-14T09:10:27Z</time></trkpt>
<trkpt lat="43.867955" lon="5.412562"><ele>316.6</ele><time>2011-01-14T09:10:32Z</time></trkpt>
<trkpt lat="43.867885" lon="5.412683"><ele>317.1</ele><time>2011-01-14T09:10:37Z</time></trkpt>
<trkpt lat="43.867820" lon="5.412803"><ele>317.9</ele><time>2011-01-14T09:10:42Z</time></trkpt>
<trkpt lat="43.867752" lon="5.412922"><ele>318.9</ele><time>2011-01-14T09:10:47Z</time></trkpt>
<trkpt lat="43.867687" lon="5.413037"><ele>319.8</ele><time>2011-01-14T09:10:52Z</time></trkpt>
<trkpt lat="43.867622" lon="5.413150"><ele>320.7</ele><time>2011-01-14T09:10:57Z</time></trkpt>
<trkpt lat="43.867562" lon="5.413267"><ele>322</ele><time>2011-01-14T09:11:02Z</time></trkpt>
<trkpt lat="43.867497" lon="5.413382"><ele>322.9</ele><time>2011-01-14T09:11:07Z</time></trkpt>
<trkpt lat="43.867432" lon="5.413498"><ele>323.8</ele><time>2011-01-14T09:11:12Z</time></trkpt>
<trkpt lat="43.867367" lon="5.413613"><ele>324.7</ele><time>2011-01-14T09:11:17Z</time></trkpt>
<trkpt lat="43.867298" lon="5.413732"><ele>325.1</ele><time>2011-01-14T09:11:22Z</time></trkpt>
<trkpt lat="43.867222" lon="5.413838"><ele>325.4</ele><time>2011-01-14T09:11:27Z</time></trkpt>
<trkpt lat="43.867142" lon="5.413937"><ele>325.9</ele><time>2011-01-14T09:11:32Z</time></trkpt>
<trkpt lat="43.867053" lon="5.414018"><ele>326.4</ele><time>2011-01-14T09:11:37Z</time></trkpt>
<trkpt lat="43.866955" lon="5.414080"><ele>327</ele><time>2011-01-14T09:11:42Z</time></trkpt>
<trkpt lat="43.866845" lon="5.414118"><ele>327.8</ele><time>2011-01-14T09:11:47Z</time></trkpt>
<trkpt lat="43.866727" lon="5.414145"><ele>328.5</ele><time>2011-01-14T09:11:52Z</time></trkpt>
<trkpt lat="43.866615" lon="5.414155"><ele>329.3</ele><time>2011-01-14T09:11:57Z</time></trkpt>
<trkpt lat="43.866490" lon="5.414153"><ele>329.9</ele><time>2011-01-14T09:12:02Z</time></trkpt>
<trkpt lat="43.866357" lon="5.414148"><ele>330.3</ele><time>2011-01-14T09:12:07Z</time></trkpt>
<trkpt lat="43.866212" lon="5.414142"><ele>330.7</ele><time>2011-01-14T09:12:12Z</time></trkpt>
<trkpt lat="43.866062" lon="5.414132"><ele>331</ele><time>2011-01-14T09:12:17Z</time></trkpt>
<trkpt lat="43.865910" lon="5.414127"><ele>331.4</ele><time>2011-01-14T09:12:22Z</time></trkpt>
<trkpt lat="43.865760" lon="5.414130"><ele>331.8</ele><time>2011-01-14T09:12:27Z</time></trkpt>
<trkpt lat="43.865620" lon="5.414143"><ele>332.6</ele><time>2011-01-14T09:12:32Z</time></trkpt>
<trkpt lat="43.865487" lon="5.414173"><ele>333.4</ele><time>2011-01-14T09:12:37Z</time></trkpt>
<trkpt lat="43.865375" lon="5.414227"><ele>334.3</ele><time>2011-01-14T09:12:42Z</time></trkpt>
<trkpt lat="43.865280" lon="5.414290"><ele>335.2</ele><time>2011-01-14T09:12:47Z</time></trkpt>
<trkpt lat="43.865192" lon="5.414373"><ele>336.3</ele><time>2011-01-14T09:12:52Z</time></trkpt>
<trkpt lat="43.865123" lon="5.414485"><ele>337.4</ele><time>2011-01-14T09:12:57Z</time></trkpt>
<trkpt lat="43.865067" lon="5.414612"><ele>338.3</ele><time>2011-01-14T09:13:02Z</time></trkpt>
<trkpt lat="43.865020" lon="5.414742"><ele>339.2</ele><time>2011-01-14T09:13:07Z</time></trkpt>
<trkpt lat="43.864987" lon="5.414878"><ele>340.2</ele><time>2011-01-14T09:13:12Z</time></trkpt>
<trkpt lat="43.864952" lon="5.415013"><ele>341.1</ele><time>2011-01-14T09:13:17Z</time></trkpt>
<trkpt lat="43.864910" lon="5.415148"><ele>342</ele><time>2011-01-14T09:13:22Z</time></trkpt>
<trkpt lat="43.864875" lon="5.415280"><ele>342.9</ele><time>2011-01-14T09:13:27Z</time></trkpt>
<trkpt lat="43.864842" lon="5.415412"><ele>343.9</ele><time>2011-01-14T09:13:32Z</time></trkpt>
<trkpt lat="43.864807" lon="5.415547"><ele>345</ele><time>2011-01-14T09:13:37Z</time></trkpt>
<trkpt lat="43.864773" lon="5.415680"><ele>345.8</ele><time>2011-01-14T09:13:42Z</time></trkpt>
<trkpt lat="43.864738" lon="5.415818"><ele>346.7</ele><time>2011-01-14T09:13:47Z</time></trkpt>
<trkpt lat="43.864703" lon="5.415955"><ele>347.6</ele><time>2011-01-14T09:13:52Z</time></trkpt>
<trkpt lat="43.864670" lon="5.416090"><ele>348.4</ele><time>2011-01-14T09:13:57Z</time></trkpt>
<trkpt lat="43.864635" lon="5.416223"><ele>349.3</ele><time>2011-01-14T09:14:02Z</time></trkpt>
<trkpt lat="43.864597" lon="5.416353"><ele>350.3</ele><time>2011-01-14T09:14:07Z</time></trkpt>
<trkpt lat="43.864563" lon="5.416483"><ele>351.3</ele><time>2011-01-14T09:14:12Z</time></trkpt>
<trkpt lat="43.864528" lon="5.416617"><ele>352.6</ele><time>2011-01-14T09:14:17Z</time></trkpt>
<trkpt lat="43.864475" lon="5.416747"><ele>353.5</ele><time>2011-01-14T09:14:22Z</time></trkpt>
<trkpt lat="43.864422" lon="5.416873"><ele>354.4</ele><time>2011-01-14T09:14:27Z</time></trkpt>
<trkpt lat="43.864368" lon="5.417000"><ele>355.4</ele><time>2011-01-14T09:14:32Z</time></trkpt>
<trkpt lat="43.864315" lon="5.417130"><ele>356.2</ele><time>2011-01-14T09:14:37Z</time></trkpt>
<trkpt lat="43.864270" lon="5.417267"><ele>357</ele><time>2011-01-14T09:14:42Z</time></trkpt>
<trkpt lat="43.864238" lon="5.417413"><ele>357.7</ele><time>2011-01-14T09:14:47Z</time></trkpt>
<trkpt lat="43.864223" lon="5.417563"><ele>358.7</ele><time>2011-01-14T09:14:52Z</time></trkpt>
<trkpt lat="43.864212" lon="5.417717"><ele>359.7</ele><time>2011-01-14T09:14:57Z</time></trkpt>
<trkpt lat="43.864217" lon="5.417868"><ele>360.7</ele><time>2011-01-14T09:15:02Z</time></trkpt>
<trkpt lat="43.864238" lon="5.418018"><ele>362</ele><time>2011-01-14T09:15:07Z</time></trkpt>
<trkpt lat="43.864265" lon="5.418172"><ele>363.1</ele><time>2011-01-14T09:15:12Z</time></trkpt>
<trkpt lat="43.864273" lon="5.418333"><ele>364.2</ele><time>2011-01-14T09:15:17Z</time></trkpt>
<trkpt lat="43.864262" lon="5.418482"><ele>365.4</ele><time>2011-01-14T09:15:22Z</time></trkpt>
<trkpt lat="43.864220" lon="5.418615"><ele>366.6</ele><time>2011-01-14T09:15:27Z</time></trkpt>
<trkpt lat="43.864170" lon="5.418733"><ele>367.6</ele><time>2011-01-14T09:15:32Z</time></trkpt>
<trkpt lat="43.864108" lon="5.418853"><ele>368.3</ele><time>2011-01-14T09:15:37Z</time></trkpt>
<trkpt lat="43.864052" lon="5.418972"><ele>369.2</ele><time>2011-01-14T09:15:42Z</time></trkpt>
<trkpt lat="43.863990" lon="5.419087"><ele>369.8</ele><time>2011-01-14T09:15:47Z</time></trkpt>
<trkpt lat="43.863942" lon="5.419187"><ele>370.4</ele><time>2011-01-14T09:15:52Z</time></trkpt>
<trkpt lat="43.863888" lon="5.419283"><ele>371.3</ele><time>2011-01-14T09:15:57Z</time></trkpt>
<trkpt lat="43.863838" lon="5.419380"><ele>372.2</ele><time>2011-01-14T09:16:02Z</time></trkpt>
<trkpt lat="43.863782" lon="5.419473"><ele>373.1</ele><time>2011-01-14T09:16:07Z</time></trkpt>
<trkpt lat="43.863732" lon="5.419572"><ele>374</ele><time>2011-01-14T09:16:12Z</time></trkpt>
<trkpt lat="43.863682" lon="5.419660"><ele>375.1</ele><time>2011-01-14T09:16:17Z</time></trkpt>
<trkpt lat="43.863620" lon="5.419743"><ele>376.1</ele><time>2011-01-14T09:16:22Z</time></trkpt>
<trkpt lat="43.863563" lon="5.419823"><ele>377.1</ele><time>2011-01-14T09:16:27Z</time></trkpt>
<trkpt lat="43.863507" lon="5.419890"><ele>377.9</ele><time>2011-01-14T09:16:32Z</time></trkpt>
<trkpt lat="43.863442" lon="5.419947"><ele>378.9</ele><time>2011-01-14T09:16:37Z</time></trkpt>
<trkpt lat="43.863373" lon="5.419987"><ele>379.7</ele><time>2011-01-14T09:16:42Z</time></trkpt>
<trkpt lat="43.863297" lon="5.420017"><ele>380.4</ele><time>2011-01-14T09:16:47Z</time></trkpt>
<trkpt lat="43.863223" lon="5.420033"><ele>381.7</ele><time>2011-01-14T09:16:52Z</time></trkpt>
<trkpt lat="43.863140" lon="5.420043"><ele>383.3</ele><time>2011-01-14T09:16:57Z</time></trkpt>
<trkpt lat="43.863063" lon="5.420057"><ele>384.6</ele><time>2011-01-14T09:17:02Z</time></trkpt>
<trkpt lat="43.862992" lon="5.420060"><ele>385.8</ele><time>2011-01-14T09:17:07Z</time></trkpt>
<trkpt lat="43.862915" lon="5.420065"><ele>386.6</ele><time>2011-01-14T09:17:12Z</time></trkpt>
<trkpt lat="43.862838" lon="5.420075"><ele>387.4</ele><time>2011-01-14T09:17:17Z</time></trkpt>
<trkpt lat="43.862770" lon="5.420093"><ele>388.2</ele><time>2011-01-14T09:17:22Z</time></trkpt>
<trkpt lat="43.862698" lon="5.420113"><ele>389.1</ele><time>2011-01-14T09:17:27Z</time></trkpt>
<trkpt lat="43.862622" lon="5.420142"><ele>390</ele><time>2011-01-14T09:17:32Z</time></trkpt>
<trkpt lat="43.862548" lon="5.420183"><ele>391.1</ele><time>2011-01-14T09:17:37Z</time></trkpt>
<trkpt lat="43.862480" lon="5.420228"><ele>392.2</ele><time>2011-01-14T09:17:42Z</time></trkpt>
<trkpt lat="43.862415" lon="5.420288"><ele>393.2</ele><time>2011-01-14T09:17:47Z</time></trkpt>
<trkpt lat="43.862358" lon="5.420358"><ele>394.2</ele><time>2011-01-14T09:17:52Z</time></trkpt>
<trkpt lat="43.862308" lon="5.420437"><ele>395.1</ele><time>2011-01-14T09:17:57Z</time></trkpt>
<trkpt lat="43.862263" lon="5.420523"><ele>396</ele><time>2011-01-14T09:18:02Z</time></trkpt>
<trkpt lat="43.862228" lon="5.420613"><ele>396.9</ele><time>2011-01-14T09:18:07Z</time></trkpt>
<trkpt lat="43.862198" lon="5.420703"><ele>397.8</ele><time>2011-01-14T09:18:12Z</time></trkpt>
<trkpt lat="43.862163" lon="5.420798"><ele>398.8</ele><time>2011-01-14T09:18:17Z</time></trkpt>
<trkpt lat="43.862133" lon="5.420893"><ele>399.8</ele><time>2011-01-14T09:18:22Z</time></trkpt>
<trkpt lat="43.862098" lon="5.420985"><ele>400.6</ele><time>2011-01-14T09:18:27Z</time></trkpt>
<trkpt lat="43.862065" lon="5.421078"><ele>401.5</ele><time>2011-01-14T09:18:32Z</time></trkpt>
<trkpt lat="43.862027" lon="5.421173"><ele>402.5</ele><time>2011-01-14T09:18:37Z</time></trkpt>
<trkpt lat="43.861988" lon="5.421267"><ele>403.5</ele><time>2011-01-14T09:18:42Z</time></trkpt>
<trkpt lat="43.861950" lon="5.421358"><ele>404.4</ele><time>2011-01-14T09:18:47Z</time></trkpt>
<trkpt lat="43.861908" lon="5.421447"><ele>405.3</ele><time>2011-01-14T09:18:52Z</time></trkpt>
<trkpt lat="43.861855" lon="5.421530"><ele>406.1</ele><time>2011-01-14T09:18:57Z</time></trkpt>
<trkpt lat="43.861797" lon="5.421610"><ele>406.9</ele><time>2011-01-14T09:19:02Z</time></trkpt>
<trkpt lat="43.861737" lon="5.421675"><ele>407.7</ele><time>2011-01-14T09:19:07Z</time></trkpt>
<trkpt lat="43.861668" lon="5.421732"><ele>408.6</ele><time>2011-01-14T09:19:12Z</time></trkpt>
<trkpt lat="43.861595" lon="5.421780"><ele>409.5</ele><time>2011-01-14T09:19:17Z</time></trkpt>
<trkpt lat="43.861527" lon="5.421825"><ele>410.4</ele><time>2011-01-14T09:19:22Z</time></trkpt>
<trkpt lat="43.861450" lon="5.421863"><ele>411.3</ele><time>2011-01-14T09:19:27Z</time></trkpt>
<trkpt lat="43.861370" lon="5.421903"><ele>412.4</ele><time>2011-01-14T09:19:32Z</time></trkpt>
<trkpt lat="43.861293" lon="5.421945"><ele>413.3</ele><time>2011-01-14T09:19:37Z</time></trkpt>
<trkpt lat="43.861222" lon="5.421992"><ele>414.3</ele><time>2011-01-14T09:19:42Z</time></trkpt>
<trkpt lat="43.861142" lon="5.422032"><ele>415.3</ele><time>2011-01-14T09:19:47Z</time></trkpt>
<trkpt lat="43.861073" lon="5.422080"><ele>416.2</ele><time>2011-01-14T09:19:52Z</time></trkpt>
<trkpt lat="43.861000" lon="5.422133"><ele>417</ele><time>2011-01-14T09:19:57Z</time></trkpt>
<trkpt lat="43.860932" lon="5.422205"><ele>417.5</ele><time>2011-01-14T09:20:02Z</time></trkpt>
<trkpt lat="43.860878" lon="5.422295"><ele>418.2</ele><time>2011-01-14T09:20:07Z</time></trkpt>
<trkpt lat="43.860847" lon="5.422410"><ele>418.8</ele><time>2011-01-14T09:20:12Z</time></trkpt>
<trkpt lat="43.860832" lon="5.422540"><ele>419.3</ele><time>2011-01-14T09:20:17Z</time></trkpt>
<trkpt lat="43.860847" lon="5.422673"><ele>419.9</ele><time>2011-01-14T09:20:22Z</time></trkpt>
<trkpt lat="43.860875" lon="5.422798"><ele>420.6</ele><time>2011-01-14T09:20:27Z</time></trkpt>
<trkpt lat="43.860893" lon="5.422927"><ele>421.4</ele><time>2011-01-14T09:20:32Z</time></trkpt>
<trkpt lat="43.860912" lon="5.423052"><ele>422.3</ele><time>2011-01-14T09:20:37Z</time></trkpt>
<trkpt lat="43.860938" lon="5.423173"><ele>423.2</ele><time>2011-01-14T09:20:42Z</time></trkpt>
<trkpt lat="43.860958" lon="5.423297"><ele>423.9</ele><time>2011-01-14T09:20:47Z</time></trkpt>
<trkpt lat="43.860977" lon="5.423423"><ele>424.6</ele><time>2011-01-14T09:20:52Z</time></trkpt>
<trkpt lat="43.860997" lon="5.423553"><ele>425.4</ele><time>2011-01-14T09:20:57Z</time></trkpt>
<trkpt lat="43.861012" lon="5.423682"><ele>426.3</ele><time>2011-01-14T09:21:02Z</time></trkpt>
<trkpt lat="43.861027" lon="5.423815"><ele>427.1</ele><time>2011-01-14T09:21:07Z</time></trkpt>
<trkpt lat="43.861042" lon="5.423957"><ele>427.7</ele><time>2011-01-14T09:21:12Z</time></trkpt>
<trkpt lat="43.861057" lon="5.424098"><ele>428.4</ele><time>2011-01-14T09:21:17Z</time></trkpt>
<trkpt lat="43.861077" lon="5.424238"><ele>429.2</ele><time>2011-01-14T09:21:22Z</time></trkpt>
<trkpt lat="43.861092" lon="5.424382"><ele>430.1</ele><time>2011-01-14T09:21:27Z</time></trkpt>
<trkpt lat="43.861110" lon="5.424523"><ele>430.9</ele><time>2011-01-14T09:21:32Z</time></trkpt>
<trkpt lat="43.861137" lon="5.424665"><ele>431.6</ele><time>2011-01-14T09:21:37Z</time></trkpt>
<trkpt lat="43.861160" lon="5.424807"><ele>432.5</ele><time>2011-01-14T09:21:42Z</time></trkpt>
<trkpt lat="43.861195" lon="5.424945"><ele>433.3</ele><time>2011-01-14T09:21:47Z</time></trkpt>
<trkpt lat="43.861245" lon="5.425075"><ele>434.1</ele><time>2011-01-14T09:21:52Z</time></trkpt>
<trkpt lat="43.861305" lon="5.425193"><ele>434.9</ele><time>2011-01-14T09:21:57Z</time></trkpt>
<trkpt lat="43.861393" lon="5.425290"><ele>435.6</ele><time>2011-01-14T09:22:02Z</time></trkpt>
<trkpt lat="43.861480" lon="5.425388"><ele>436.3</ele><time>2011-01-14T09:22:07Z</time></trkpt>
<trkpt lat="43.861568" lon="5.425477"><ele>437.2</ele><time>2011-01-14T09:22:12Z</time></trkpt>
<trkpt lat="43.861657" lon="5.425565"><ele>438.2</ele><time>2011-01-14T09:22:17Z</time></trkpt>
<trkpt lat="43.861740" lon="5.425657"><ele>439.2</ele><time>2011-01-14T09:22:22Z</time></trkpt>
<trkpt lat="43.861823" lon="5.425750"><ele>440.3</ele><time>2011-01-14T09:22:27Z</time></trkpt>
<trkpt lat="43.861912" lon="5.425838"><ele>441.3</ele><time>2011-01-14T09:22:32Z</time></trkpt>
<trkpt lat="43.861995" lon="5.425925"><ele>442.4</ele><time>2011-01-14T09:22:37Z</time></trkpt>
<trkpt lat="43.862080" lon="5.426013"><ele>443.4</ele><time>2011-01-14T09:22:42Z</time></trkpt>
<trkpt lat="43.862157" lon="5.426095"><ele>444.4</ele><time>2011-01-14T09:22:47Z</time></trkpt>
<trkpt lat="43.862232" lon="5.426177"><ele>445.4</ele><time>2011-01-14T09:22:52Z</time></trkpt>
<trkpt lat="43.862305" lon="5.426248"><ele>446.4</ele><time>2011-01-14T09:22:57Z</time></trkpt>
<trkpt lat="43.862377" lon="5.426322"><ele>447.3</ele><time>2011-01-14T09:23:02Z</time></trkpt>
<trkpt lat="43.862445" lon="5.426393"><ele>448.2</ele><time>2011-01-14T09:23:07Z</time></trkpt>
<trkpt lat="43.862518" lon="5.426467"><ele>449.4</ele><time>2011-01-14T09:23:12Z</time></trkpt>
<trkpt lat="43.862595" lon="5.426542"><ele>450.2</ele><time>2011-01-14T09:23:17Z</time></trkpt>
<trkpt lat="43.862667" lon="5.426622"><ele>451.2</ele><time>2011-01-14T09:23:22Z</time></trkpt>
<trkpt lat="43.862702" lon="5.426738"><ele>452</ele><time>2011-01-14T09:23:27Z</time></trkpt>
<trkpt lat="43.862663" lon="5.426852"><ele>452.6</ele><time>2011-01-14T09:23:32Z</time></trkpt>
<trkpt lat="43.862587" lon="5.426930"><ele>452.9</ele><time>2011-01-14T09:23:37Z</time></trkpt>
<trkpt lat="43.862492" lon="5.426985"><ele>453.2</ele><time>2011-01-14T09:23:42Z</time></trkpt>
<trkpt lat="43.862397" lon="5.427037"><ele>453.5</ele><time>2011-01-14T09:23:47Z</time></trkpt>
<trkpt lat="43.862302" lon="5.427088"><ele>453.9</ele><time>2011-01-14T09:23:52Z</time></trkpt>
<trkpt lat="43.862198" lon="5.427137"><ele>454.4</ele><time>2011-01-14T09:23:57Z</time></trkpt>
<trkpt lat="43.862095" lon="5.427180"><ele>455</ele><time>2011-01-14T09:24:02Z</time></trkpt>
<trkpt lat="43.861992" lon="5.427205"><ele>455.9</ele><time>2011-01-14T09:24:07Z</time></trkpt>
<trkpt lat="43.861885" lon="5.427205"><ele>456.8</ele><time>2011-01-14T09:24:12Z</time></trkpt>
<trkpt lat="43.861775" lon="5.427190"><ele>457.6</ele><time>2011-01-14T09:24:17Z</time></trkpt>
<trkpt lat="43.861668" lon="5.427168"><ele>458.7</ele><time>2011-01-14T09:24:22Z</time></trkpt>
<trkpt lat="43.861565" lon="5.427142"><ele>459.6</ele><time>2011-01-14T09:24:27Z</time></trkpt>
<trkpt lat="43.861453" lon="5.427122"><ele>460.7</ele><time>2011-01-14T09:24:32Z</time></trkpt>
<trkpt lat="43.861347" lon="5.427095"><ele>461.8</ele><time>2011-01-14T09:24:37Z</time></trkpt>
<trkpt lat="43.861237" lon="5.427067"><ele>462.9</ele><time>2011-01-14T09:24:42Z</time></trkpt>
<trkpt lat="43.861122" lon="5.427037"><ele>464</ele><time>2011-01-14T09:24:47Z</time></trkpt>
<trkpt lat="43.861012" lon="5.427007"><ele>464.8</ele><time>2011-01-14T09:24:52Z</time></trkpt>
<trkpt lat="43.860908" lon="5.426962"><ele>465.5</ele><time>2011-01-14T09:24:57Z</time></trkpt>
<trkpt lat="43.860810" lon="5.426903"><ele>466.1</ele><time>2011-01-14T09:25:02Z</time></trkpt>
<trkpt lat="43.860703" lon="5.426843"><ele>466.5</ele><time>2011-01-14T09:25:07Z</time></trkpt>
<trkpt lat="43.860595" lon="5.426780"><ele>467.1</ele><time>2011-01-14T09:25:12Z</time></trkpt>
<trkpt lat="43.860485" lon="5.426717"><ele>467.7</ele><time>2011-01-14T09:25:17Z</time></trkpt>
<trkpt lat="43.860367" lon="5.426687"><ele>468.6</ele><time>2011-01-14T09:25:22Z</time></trkpt>
<trkpt lat="43.860260" lon="5.426702"><ele>469.5</ele><time>2011-01-14T09:25:27Z</time></trkpt>
<trkpt lat="43.860177" lon="5.426778"><ele>470.5</ele><time>2011-01-14T09:25:32Z</time></trkpt>
<trkpt lat="43.860127" lon="5.426885"><ele>471.5</ele><time>2011-01-14T09:25:37Z</time></trkpt>
<trkpt lat="43.860115" lon="5.427017"><ele>472.7</ele><time>2011-01-14T09:25:42Z</time></trkpt>
<trkpt lat="43.860133" lon="5.427148"><ele>474</ele><time>2011-01-14T09:25:47Z</time></trkpt>
<trkpt lat="43.860192" lon="5.427262"><ele>475</ele><time>2011-01-14T09:25:52Z</time></trkpt>
<trkpt lat="43.860268" lon="5.427347"><ele>475.8</ele><time>2011-01-14T09:25:57Z</time></trkpt>
<trkpt lat="43.860360" lon="5.427417"><ele>476.5</ele><time>2011-01-14T09:26:02Z</time></trkpt>
<trkpt lat="43.860455" lon="5.427497"><ele>477.4</ele><time>2011-01-14T09:26:07Z</time></trkpt>
<trkpt lat="43.860542" lon="5.427595"><ele>478.2</ele><time>2011-01-14T09:26:12Z</time></trkpt>
<trkpt lat="43.860618" lon="5.427707"><ele>479.1</ele><time>2011-01-14T09:26:17Z</time></trkpt>
<trkpt lat="43.860695" lon="5.427828"><ele>479.9</ele><time>2011-01-14T09:26:22Z</time></trkpt>
<trkpt lat="43.860767" lon="5.427958"><ele>480.9</ele><time>2011-01-14T09:26:27Z</time></trkpt>
<trkpt lat="43.860825" lon="5.428097"><ele>481.7</ele><time>2011-01-14T09:26:32Z</time></trkpt>
<trkpt lat="43.860878" lon="5.428240"><ele>482.5</ele><time>2011-01-14T09:26:37Z</time></trkpt>
<trkpt lat="43.860928" lon="5.428390"><ele>483.1</ele><time>2011-01-14T09:26:42Z</time></trkpt>
<trkpt lat="43.860965" lon="5.428537"><ele>483.4</ele><time>2011-01-14T09:26:47Z</time></trkpt>
<trkpt lat="43.861003" lon="5.428685"><ele>483.9</ele><time>2011-01-14T09:26:52Z</time></trkpt>
<trkpt lat="43.861035" lon="5.428838"><ele>484.5</ele><time>2011-01-14T09:26:57Z</time></trkpt>
<trkpt lat="43.861065" lon="5.428992"><ele>485</ele><time>2011-01-14T09:27:02Z</time></trkpt>
<trkpt lat="43.861095" lon="5.429138"><ele>485.5</ele><time>2011-01-14T09:27:07Z</time></trkpt>
<trkpt lat="43.861130" lon="5.429287"><ele>486</ele><time>2011-01-14T09:27:12Z</time></trkpt>
<trkpt lat="43.861180" lon="5.429422"><ele>486.6</ele><time>2011-01-14T09:27:17Z</time></trkpt>
<trkpt lat="43.861252" lon="5.429537"><ele>487.4</ele><time>2011-01-14T09:27:22Z</time></trkpt>
<trkpt lat="43.861352" lon="5.429622"><ele>488.2</ele><time>2011-01-14T09:27:27Z</time></trkpt>
<trkpt lat="43.861462" lon="5.429680"><ele>489</ele><time>2011-01-14T09:27:32Z</time></trkpt>
<trkpt lat="43.861572" lon="5.429712"><ele>489.7</ele><time>2011-01-14T09:27:37Z</time></trkpt>
<trkpt lat="43.861668" lon="5.429790"><ele>490.6</ele><time>2011-01-14T09:27:42Z</time></trkpt>
<trkpt lat="43.861678" lon="5.429943"><ele>492.1</ele><time>2011-01-14T09:27:47Z</time></trkpt>
<trkpt lat="43.861565" lon="5.429988"><ele>493.3</ele><time>2011-01-14T09:27:52Z</time></trkpt>
<trkpt lat="43.861453" lon="5.430023"><ele>494.4</ele><time>2011-01-14T09:27:57Z</time></trkpt>
<trkpt lat="43.861335" lon="5.430045"><ele>495.3</ele><time>2011-01-14T09:28:02Z</time></trkpt>
<trkpt lat="43.861233" lon="5.430072"><ele>495.9</ele><time>2011-01-14T09:28:07Z</time></trkpt>
<trkpt lat="43.861122" lon="5.430088"><ele>496.6</ele><time>2011-01-14T09:28:12Z</time></trkpt>
<trkpt lat="43.861015" lon="5.430030"><ele>497</ele><time>2011-01-14T09:28:17Z</time></trkpt>
<trkpt lat="43.860923" lon="5.429937"><ele>497.8</ele><time>2011-01-14T09:28:22Z</time></trkpt>
<trkpt lat="43.860852" lon="5.429818"><ele>498.8</ele><time>2011-01-14T09:28:27Z</time></trkpt>
<trkpt lat="43.860787" lon="5.429698"><ele>499.7</ele><time>2011-01-14T09:28:32Z</time></trkpt>
<trkpt lat="43.860725" lon="5.429577"><ele>500.5</ele><time>2011-01-14T09:28:37Z</time></trkpt>
<trkpt lat="43.860657" lon="5.429460"><ele>501.5</ele><time>2011-01-14T09:28:42Z</time></trkpt>
<trkpt lat="43.860588" lon="5.429342"><ele>502.4</ele><time>2011-01-14T09:28:47Z</time></trkpt>
<trkpt lat="43.860515" lon="5.429222"><ele>503.1</ele><time>2011-01-14T09:28:52Z</time></trkpt>
<trkpt lat="43.860447" lon="5.429102"><ele>503.7</ele><time>2011-01-14T09:28:57Z</time></trkpt>
<trkpt lat="43.860375" lon="5.428988"><ele>504.9</ele><time>2011-01-14T09:29:02Z</time></trkpt>
<trkpt lat="43.860313" lon="5.428865"><ele>505.9</ele><time>2011-01-14T09:29:07Z</time></trkpt>
<trkpt lat="43.860252" lon="5.428732"><ele>506.7</ele><time>2011-01-14T09:29:12Z</time></trkpt>
<trkpt lat="43.860192" lon="5.428602"><ele>507.4</ele><time>2011-01-14T09:29:17Z</time></trkpt>
<trkpt lat="43.860103" lon="5.428490"><ele>508</ele><time>2011-01-14T09:29:22Z</time></trkpt>
<trkpt lat="43.859997" lon="5.428483"><ele>508.2</ele><time>2011-01-14T09:29:27Z</time></trkpt>
<trkpt lat="43.859952" lon="5.428623"><ele>508.2</ele><time>2011-01-14T09:29:32Z</time></trkpt>
<trkpt lat="43.860012" lon="5.428782"><ele>508.2</ele><time>2011-01-14T09:29:37Z</time></trkpt>
<trkpt lat="43.860088" lon="5.428917"><ele>508.7</ele><time>2011-01-14T09:29:42Z</time></trkpt>
<trkpt lat="43.860160" lon="5.429052"><ele>509.3</ele><time>2011-01-14T09:29:47Z</time></trkpt>
<trkpt lat="43.860233" lon="5.429168"><ele>510.1</ele><time>2011-01-14T09:29:52Z</time></trkpt>
<trkpt lat="43.860313" lon="5.429328"><ele>510.8</ele><time>2011-01-14T09:29:57Z</time></trkpt>
<trkpt lat="43.860378" lon="5.429508"><ele>511.3</ele><time>2011-01-14T09:30:02Z</time></trkpt>
<trkpt lat="43.860423" lon="5.429702"><ele>512</ele><time>2011-01-14T09:30:07Z</time></trkpt>
<trkpt lat="43.860440" lon="5.429900"><ele>512.8</ele><time>2011-01-14T09:30:12Z</time></trkpt>
<trkpt lat="43.860432" lon="5.430093"><ele>513.8</ele><time>2011-01-14T09:30:17Z</time></trkpt>
<trkpt lat="43.860408" lon="5.430282"><ele>514.7</ele><time>2011-01-14T09:30:22Z</time></trkpt>
<trkpt lat="43.860375" lon="5.430465"><ele>515.6</ele><time>2011-01-14T09:30:27Z</time></trkpt>
<trkpt lat="43.860348" lon="5.430635"><ele>516.5</ele><time>2011-01-14T09:30:32Z</time></trkpt>
<trkpt lat="43.860322" lon="5.430792"><ele>517.6</ele><time>2011-01-14T09:30:37Z</time></trkpt>
<trkpt lat="43.860295" lon="5.430923"><ele>518.2</ele><time>2011-01-14T09:30:42Z</time></trkpt>
<trkpt lat="43.860268" lon="5.431047"><ele>518.6</ele><time>2011-01-14T09:30:47Z</time></trkpt>
<trkpt lat="43.860245" lon="5.431172"><ele>519.4</ele><time>2011-01-14T09:30:52Z</time></trkpt>
<trkpt lat="43.860222" lon="5.431300"><ele>520.3</ele><time>2011-01-14T09:30:57Z</time></trkpt>
<trkpt lat="43.860195" lon="5.431430"><ele>521</ele><time>2011-01-14T09:31:02Z</time></trkpt>
<trkpt lat="43.860165" lon="5.431557"><ele>521.6</ele><time>2011-01-14T09:31:07Z</time></trkpt>
<trkpt lat="43.860145" lon="5.431683"><ele>522.6</ele><time>2011-01-14T09:31:12Z</time></trkpt>
<trkpt lat="43.860118" lon="5.431813"><ele>523.7</ele><time>2011-01-14T09:31:17Z</time></trkpt>
<trkpt lat="43.860097" lon="5.431937"><ele>524.9</ele><time>2011-01-14T09:31:22Z</time></trkpt>
<trkpt lat="43.860070" lon="5.432058"><ele>526.1</ele><time>2011-01-14T09:31:27Z</time></trkpt>
<trkpt lat="43.860050" lon="5.432182"><ele>527.2</ele><time>2011-01-14T09:31:32Z</time></trkpt>
<trkpt lat="43.860027" lon="5.432303"><ele>528.4</ele><time>2011-01-14T09:31:37Z</time></trkpt>
<trkpt lat="43.860000" lon="5.432425"><ele>529.6</ele><time>2011-01-14T09:31:42Z</time></trkpt>
<trkpt lat="43.859962" lon="5.432547"><ele>530.6</ele><time>2011-01-14T09:31:47Z</time></trkpt>
<trkpt lat="43.859917" lon="5.432665"><ele>531.3</ele><time>2011-01-14T09:31:52Z</time></trkpt>
<trkpt lat="43.859867" lon="5.432780"><ele>531.9</ele><time>2011-01-14T09:31:57Z</time></trkpt>
<trkpt lat="43.859802" lon="5.432892"><ele>532.5</ele><time>2011-01-14T09:32:02Z</time></trkpt>
<trkpt lat="43.859737" lon="5.432995"><ele>533</ele><time>2011-01-14T09:32:07Z</time></trkpt>
<trkpt lat="43.859662" lon="5.433092"><ele>533.5</ele><time>2011-01-14T09:32:12Z</time></trkpt>
<trkpt lat="43.859577" lon="5.433183"><ele>534.1</ele><time>2011-01-14T09:32:17Z</time></trkpt>
<trkpt lat="43.859490" lon="5.433268"><ele>534.7</ele><time>2011-01-14T09:32:22Z</time></trkpt>
<trkpt lat="43.859398" lon="5.433353"><ele>535.5</ele><time>2011-01-14T09:32:27Z</time></trkpt>
<trkpt lat="43.859307" lon="5.433437"><ele>536.4</ele><time>2011-01-14T09:32:32Z</time></trkpt>
<trkpt lat="43.859215" lon="5.433522"><ele>537.5</ele><time>2011-01-14T09:32:37Z</time></trkpt>
<trkpt lat="43.859120" lon="5.433607"><ele>538.4</ele><time>2011-01-14T09:32:42Z</time></trkpt>
<trkpt lat="43.859032" lon="5.433688"><ele>539.2</ele><time>2011-01-14T09:32:47Z</time></trkpt>
<trkpt lat="43.858943" lon="5.433770"><ele>539.8</ele><time>2011-01-14T09:32:52Z</time></trkpt>
<trkpt lat="43.858852" lon="5.433850"><ele>540.5</ele><time>2011-01-14T09:32:57Z</time></trkpt>
<trkpt lat="43.858757" lon="5.433923"><ele>541.1</ele><time>2011-01-14T09:33:02Z</time></trkpt>
<trkpt lat="43.858662" lon="5.434002"><ele>541.7</ele><time>2011-01-14T09:33:07Z</time></trkpt>
<trkpt lat="43.858558" lon="5.434070"><ele>542.5</ele><time>2011-01-14T09:33:12Z</time></trkpt>
<trkpt lat="43.858452" lon="5.434132"><ele>543.3</ele><time>2011-01-14T09:33:17Z</time></trkpt>
<trkpt lat="43.858348" lon="5.434188"><ele>544</ele><time>2011-01-14T09:33:22Z</time></trkpt>
<trkpt lat="43.858238" lon="5.434242"><ele>544.5</ele><time>2011-01-14T09:33:27Z</time></trkpt>
<trkpt lat="43.858128" lon="5.434295"><ele>545</ele><time>2011-01-14T09:33:32Z</time></trkpt>
<trkpt lat="43.858017" lon="5.434348"><ele>545.6</ele><time>2011-01-14T09:33:37Z</time></trkpt>
<trkpt lat="43.857907" lon="5.434403"><ele>546.2</ele><time>2011-01-14T09:33:42Z</time></trkpt>
<trkpt lat="43.857785" lon="5.434453"><ele>546.7</ele><time>2011-01-14T09:33:47Z</time></trkpt>
<trkpt lat="43.857650" lon="5.434490"><ele>547.3</ele><time>2011-01-14T09:33:52Z</time></trkpt>
<trkpt lat="43.857522" lon="5.434510"><ele>547.9</ele><time>2011-01-14T09:33:57Z</time></trkpt>
<trkpt lat="43.857383" lon="5.434507"><ele>548.8</ele><time>2011-01-14T09:34:02Z</time></trkpt>
<trkpt lat="43.857250" lon="5.434503"><ele>549.4</ele><time>2011-01-14T09:34:07Z</time></trkpt>
<trkpt lat="43.857120" lon="5.434488"><ele>550</ele><time>2011-01-14T09:34:12Z</time></trkpt>
<trkpt lat="43.856987" lon="5.434462"><ele>550.7</ele><time>2011-01-14T09:34:17Z</time></trkpt>
<trkpt lat="43.856868" lon="5.434388"><ele>551.6</ele><time>2011-01-14T09:34:22Z</time></trkpt>
<trkpt lat="43.856770" lon="5.434267"><ele>552.3</ele><time>2011-01-14T09:34:27Z</time></trkpt>
<trkpt lat="43.856690" lon="5.434118"><ele>553</ele><time>2011-01-14T09:34:32Z</time></trkpt>
<trkpt lat="43.856610" lon="5.433968"><ele>553.3</ele><time>2011-01-14T09:34:37Z</time></trkpt>
<trkpt lat="43.856537" lon="5.433813"><ele>553.9</ele><time>2011-01-14T09:34:42Z</time></trkpt>
<trkpt lat="43.856465" lon="5.433672"><ele>554.7</ele><time>2011-01-14T09:34:47Z</time></trkpt>
<trkpt lat="43.856362" lon="5.433577"><ele>555.1</ele><time>2011-01-14T09:34:52Z</time></trkpt>
<trkpt lat="43.856235" lon="5.433588"><ele>555.8</ele><time>2011-01-14T09:34:57Z</time></trkpt>
<trkpt lat="43.856133" lon="5.433688"><ele>556.7</ele><time>2011-01-14T09:35:02Z</time></trkpt>
<trkpt lat="43.856057" lon="5.433843"><ele>557.1</ele><time>2011-01-14T09:35:07Z</time></trkpt>
<trkpt lat="43.855972" lon="5.433982"><ele>557.7</ele><time>2011-01-14T09:35:12Z</time></trkpt>
<trkpt lat="43.855847" lon="5.434037"><ele>558.8</ele><time>2011-01-14T09:35:17Z</time></trkpt>
<trkpt lat="43.855717" lon="5.434018"><ele>559.9</ele><time>2011-01-14T09:35:22Z</time></trkpt>
<trkpt lat="43.855598" lon="5.433935"><ele>560.9</ele><time>2011-01-14T09:35:27Z</time></trkpt>
<trkpt lat="43.855483" lon="5.433843"><ele>561.8</ele><time>2011-01-14T09:35:32Z</time></trkpt>
<trkpt lat="43.855370" lon="5.433765"><ele>562.9</ele><time>2011-01-14T09:35:37Z</time></trkpt>
<trkpt lat="43.855240" lon="5.433730"><ele>563.7</ele><time>2011-01-14T09:35:42Z</time></trkpt>
<trkpt lat="43.855110" lon="5.433777"><ele>564.4</ele><time>2011-01-14T09:35:47Z</time></trkpt>
<trkpt lat="43.855012" lon="5.433892"><ele>565.2</ele><time>2011-01-14T09:35:52Z</time></trkpt>
<trkpt lat="43.854942" lon="5.434030"><ele>565.9</ele><time>2011-01-14T09:35:57Z</time></trkpt>
<trkpt lat="43.854858" lon="5.434160"><ele>566.6</ele><time>2011-01-14T09:36:02Z</time></trkpt>
<trkpt lat="43.854752" lon="5.434260"><ele>567.3</ele><time>2011-01-14T09:36:07Z</time></trkpt>
<trkpt lat="43.854625" lon="5.434317"><ele>568</ele><time>2011-01-14T09:36:12Z</time></trkpt>
<trkpt lat="43.854497" lon="5.434352"><ele>568.8</ele><time>2011-01-14T09:36:17Z</time></trkpt>
<trkpt lat="43.854362" lon="5.434363"><ele>569.6</ele><time>2011-01-14T09:36:22Z</time></trkpt>
<trkpt lat="43.854228" lon="5.434370"><ele>570.5</ele><time>2011-01-14T09:36:27Z</time></trkpt>
<trkpt lat="43.854095" lon="5.434375"><ele>571.4</ele><time>2011-01-14T09:36:32Z</time></trkpt>
<trkpt lat="43.853962" lon="5.434388"><ele>572.2</ele><time>2011-01-14T09:36:37Z</time></trkpt>
<trkpt lat="43.853832" lon="5.434413"><ele>573.1</ele><time>2011-01-14T09:36:42Z</time></trkpt>
<trkpt lat="43.853695" lon="5.434448"><ele>574</ele><time>2011-01-14T09:36:47Z</time></trkpt>
<trkpt lat="43.853558" lon="5.434487"><ele>574.9</ele><time>2011-01-14T09:36:52Z</time></trkpt>
<trkpt lat="43.853420" lon="5.434532"><ele>575.8</ele><time>2011-01-14T09:36:57Z</time></trkpt>
<trkpt lat="43.853283" lon="5.434583"><ele>576.5</ele><time>2011-01-14T09:37:02Z</time></trkpt>
<trkpt lat="43.853142" lon="5.434638"><ele>577.2</ele><time>2011-01-14T09:37:07Z</time></trkpt>
<trkpt lat="43.852993" lon="5.434698"><ele>577.7</ele><time>2011-01-14T09:37:12Z</time></trkpt>
<trkpt lat="43.852848" lon="5.434765"><ele>578.2</ele><time>2011-01-14T09:37:17Z</time></trkpt>
<trkpt lat="43.852695" lon="5.434842"><ele>578.7</ele><time>2011-01-14T09:37:22Z</time></trkpt>
<trkpt lat="43.852550" lon="5.434913"><ele>578.9</ele><time>2011-01-14T09:37:27Z</time></trkpt>
<trkpt lat="43.852405" lon="5.434992"><ele>579.1</ele><time>2011-01-14T09:37:32Z</time></trkpt>
<trkpt lat="43.852268" lon="5.435070"><ele>579.4</ele><time>2011-01-14T09:37:37Z</time></trkpt>
<trkpt lat="43.852115" lon="5.435158"><ele>579.8</ele><time>2011-01-14T09:37:42Z</time></trkpt>
<trkpt lat="43.851963" lon="5.435258"><ele>580.3</ele><time>2011-01-14T09:37:47Z</time></trkpt>
<trkpt lat="43.851807" lon="5.435385"><ele>580.6</ele><time>2011-01-14T09:37:52Z</time></trkpt>
<trkpt lat="43.851650" lon="5.435523"><ele>581</ele><time>2011-01-14T09:37:57Z</time></trkpt>
<trkpt lat="43.851487" lon="5.435668"><ele>581.4</ele><time>2011-01-14T09:38:02Z</time></trkpt>
<trkpt lat="43.851315" lon="5.435817"><ele>581.7</ele><time>2011-01-14T09:38:07Z</time></trkpt>
<trkpt lat="43.851150" lon="5.435962"><ele>582</ele><time>2011-01-14T09:38:12Z</time></trkpt>
<trkpt lat="43.850987" lon="5.436102"><ele>582.3</ele><time>2011-01-14T09:38:17Z</time></trkpt>
<trkpt lat="43.850827" lon="5.436240"><ele>582.7</ele><time>2011-01-14T09:38:22Z</time></trkpt>
<trkpt lat="43.850662" lon="5.436383"><ele>583.1</ele><time>2011-01-14T09:38:27Z</time></trkpt>
<trkpt lat="43.850502" lon="5.436523"><ele>583.4</ele><time>2011-01-14T09:38:32Z</time></trkpt>
<trkpt lat="43.850338" lon="5.436663"><ele>583.9</ele><time>2011-01-14T09:38:37Z</time></trkpt>
<trkpt lat="43.850178" lon="5.436803"><ele>584.5</ele><time>2011-01-14T09:38:42Z</time></trkpt>
<trkpt lat="43.850028" lon="5.436932"><ele>585.2</ele><time>2011-01-14T09:38:47Z</time></trkpt>
<trkpt lat="43.849892" lon="5.437053"><ele>585.9</ele><time>2011-01-14T09:38:52Z</time></trkpt>
<trkpt lat="43.849755" lon="5.437173"><ele>586.8</ele><time>2011-01-14T09:38:57Z</time></trkpt>
<trkpt lat="43.849613" lon="5.437293"><ele>587.6</ele><time>2011-01-14T09:39:02Z</time></trkpt>
<trkpt lat="43.849472" lon="5.437412"><ele>588.4</ele><time>2011-01-14T09:39:07Z</time></trkpt>
<trkpt lat="43.849338" lon="5.437532"><ele>589.2</ele><time>2011-01-14T09:39:12Z</time></trkpt>
<trkpt lat="43.849197" lon="5.437653"><ele>590.1</ele><time>2011-01-14T09:39:17Z</time></trkpt>
<trkpt lat="43.849060" lon="5.437775"><ele>591.2</ele><time>2011-01-14T09:39:22Z</time></trkpt>
<trkpt lat="43.848923" lon="5.437898"><ele>592.5</ele><time>2011-01-14T09:39:27Z</time></trkpt>
<trkpt lat="43.848785" lon="5.438017"><ele>593.6</ele><time>2011-01-14T09:39:32Z</time></trkpt>
<trkpt lat="43.848645" lon="5.438135"><ele>594.6</ele><time>2011-01-14T09:39:37Z</time></trkpt>
<trkpt lat="43.848507" lon="5.438252"><ele>595.7</ele><time>2011-01-14T09:39:42Z</time></trkpt>
<trkpt lat="43.848392" lon="5.438348"><ele>596.8</ele><time>2011-01-14T09:39:47Z</time></trkpt>
<trkpt lat="43.848275" lon="5.438447"><ele>597.8</ele><time>2011-01-14T09:39:52Z</time></trkpt>
<trkpt lat="43.848160" lon="5.438545"><ele>598.4</ele><time>2011-01-14T09:39:57Z</time></trkpt>
<trkpt lat="43.848038" lon="5.438637"><ele>599.3</ele><time>2011-01-14T09:40:02Z</time></trkpt>
<trkpt lat="43.847915" lon="5.438728"><ele>600</ele><time>2011-01-14T09:40:07Z</time></trkpt>
<trkpt lat="43.847787" lon="5.438810"><ele>600.6</ele><time>2011-01-14T09:40:12Z</time></trkpt>
<trkpt lat="43.847645" lon="5.438858"><ele>601.4</ele><time>2011-01-14T09:40:17Z</time></trkpt>
<trkpt lat="43.847507" lon="5.438848"><ele>602.1</ele><time>2011-01-14T09:40:22Z</time></trkpt>
<trkpt lat="43.847385" lon="5.438797"><ele>602.9</ele><time>2011-01-14T09:40:27Z</time></trkpt>
<trkpt lat="43.847278" lon="5.438722"><ele>603.6</ele><time>2011-01-14T09:40:32Z</time></trkpt>
<trkpt lat="43.847163" lon="5.438643"><ele>604.4</ele><time>2011-01-14T09:40:37Z</time></trkpt>
<trkpt lat="43.847053" lon="5.438560"><ele>605.2</ele><time>2011-01-14T09:40:42Z</time></trkpt>
<trkpt lat="43.846928" lon="5.438508"><ele>606.2</ele><time>2011-01-14T09:40:47Z</time></trkpt>
<trkpt lat="43.846798" lon="5.438518"><ele>606.7</ele><time>2011-01-14T09:40:52Z</time></trkpt>
<trkpt lat="43.846665" lon="5.438572"><ele>607.3</ele><time>2011-01-14T09:40:57Z</time></trkpt>
<trkpt lat="43.846535" lon="5.438643"><ele>607.9</ele><time>2011-01-14T09:41:02Z</time></trkpt>
<trkpt lat="43.846405" lon="5.438712"><ele>608.6</ele><time>2011-01-14T09:41:07Z</time></trkpt>
<trkpt lat="43.846278" lon="5.438785"><ele>609.4</ele><time>2011-01-14T09:41:12Z</time></trkpt>
<trkpt lat="43.846153" lon="5.438857"><ele>610.3</ele><time>2011-01-14T09:41:17Z</time></trkpt>
<trkpt lat="43.846027" lon="5.438930"><ele>611.2</ele><time>2011-01-14T09:41:22Z</time></trkpt>
<trkpt lat="43.845898" lon="5.439003"><ele>612</ele><time>2011-01-14T09:41:27Z</time></trkpt>
<trkpt lat="43.845760" lon="5.439062"><ele>612.9</ele><time>2011-01-14T09:41:32Z</time></trkpt>
<trkpt lat="43.845642" lon="5.439103"><ele>613.7</ele><time>2011-01-14T09:41:37Z</time></trkpt>
<trkpt lat="43.845523" lon="5.439140"><ele>614.5</ele><time>2011-01-14T09:41:42Z</time></trkpt>
<trkpt lat="43.845425" lon="5.439182"><ele>615.3</ele><time>2011-01-14T09:41:47Z</time></trkpt>
<trkpt lat="43.845325" lon="5.439282"><ele>616.1</ele><time>2011-01-14T09:41:52Z</time></trkpt>
<trkpt lat="43.845242" lon="5.439430"><ele>616.7</ele><time>2011-01-14T09:41:57Z</time></trkpt>
<trkpt lat="43.845165" lon="5.439603"><ele>617.1</ele><time>2011-01-14T09:42:02Z</time></trkpt>
<trkpt lat="43.845062" lon="5.439757"><ele>617.3</ele><time>2011-01-14T09:42:07Z</time></trkpt>
<trkpt lat="43.844913" lon="5.439857"><ele>617.7</ele><time>2011-01-14T09:42:12Z</time></trkpt>
<trkpt lat="43.844742" lon="5.439948"><ele>617.8</ele><time>2011-01-14T09:42:17Z</time></trkpt>
<trkpt lat="43.844573" lon="5.440070"><ele>617.8</ele><time>2011-01-14T09:42:22Z</time></trkpt>
<trkpt lat="43.844413" lon="5.440203"><ele>617.5</ele><time>2011-01-14T09:42:27Z</time></trkpt>
<trkpt lat="43.844250" lon="5.440337"><ele>617.6</ele><time>2011-01-14T09:42:32Z</time></trkpt>
<trkpt lat="43.844085" lon="5.440470"><ele>617.7</ele><time>2011-01-14T09:42:37Z</time></trkpt>
<trkpt lat="43.843922" lon="5.440622"><ele>617.9</ele><time>2011-01-14T09:42:42Z</time></trkpt>
<trkpt lat="43.843788" lon="5.440823"><ele>618.1</ele><time>2011-01-14T09:42:47Z</time></trkpt>
<trkpt lat="43.843688" lon="5.441075"><ele>618.3</ele><time>2011-01-14T09:42:52Z</time></trkpt>
<trkpt lat="43.843613" lon="5.441338"><ele>618.7</ele><time>2011-01-14T09:42:57Z</time></trkpt>
<trkpt lat="43.843537" lon="5.441600"><ele>619.2</ele><time>2011-01-14T09:43:02Z</time></trkpt>
<trkpt lat="43.843457" lon="5.441868"><ele>619.9</ele><time>2011-01-14T09:43:07Z</time></trkpt>
<trkpt lat="43.843380" lon="5.442135"><ele>620.8</ele><time>2011-01-14T09:43:12Z</time></trkpt>
<trkpt lat="43.843303" lon="5.442400"><ele>621.6</ele><time>2011-01-14T09:43:17Z</time></trkpt>
<trkpt lat="43.843220" lon="5.442653"><ele>622.9</ele><time>2011-01-14T09:43:22Z</time></trkpt>
<trkpt lat="43.843152" lon="5.442917"><ele>624.2</ele><time>2011-01-14T09:43:27Z</time></trkpt>
<trkpt lat="43.843102" lon="5.443223"><ele>624.2</ele><time>2011-01-14T09:43:32Z</time></trkpt>
<trkpt lat="43.843090" lon="5.443548"><ele>624.5</ele><time>2011-01-14T09:43:37Z</time></trkpt>
<trkpt lat="43.843087" lon="5.443843"><ele>624.3</ele><time>2011-01-14T09:43:42Z</time></trkpt>
<trkpt lat="43.843063" lon="5.444165"><ele>624.3</ele><time>2011-01-14T09:43:47Z</time></trkpt>
<trkpt lat="43.843010" lon="5.444490"><ele>624.6</ele><time>2011-01-14T09:43:52Z</time></trkpt>
<trkpt lat="43.842942" lon="5.444808"><ele>624.7</ele><time>2011-01-14T09:43:57Z</time></trkpt>
<trkpt lat="43.842883" lon="5.445135"><ele>624.5</ele><time>2011-01-14T09:44:02Z</time></trkpt>
<trkpt lat="43.842853" lon="5.445487"><ele>624.7</ele><time>2011-01-14T09:44:07Z</time></trkpt>
<trkpt lat="43.842865" lon="5.445810"><ele>625.2</ele><time>2011-01-14T09:44:12Z</time></trkpt>
<trkpt lat="43.842892" lon="5.446128"><ele>625.9</ele><time>2011-01-14T09:44:17Z</time></trkpt>
<trkpt lat="43.842957" lon="5.446460"><ele>625.8</ele><time>2011-01-14T09:44:22Z</time></trkpt>
<trkpt lat="43.843037" lon="5.446815"><ele>625.5</ele><time>2011-01-14T09:44:27Z</time></trkpt>
<trkpt lat="43.843098" lon="5.447165"><ele>625</ele><time>2011-01-14T09:44:32Z</time></trkpt>
<trkpt lat="43.843098" lon="5.447527"><ele>624.6</ele><time>2011-01-14T09:44:37Z</time></trkpt>
<trkpt lat="43.843052" lon="5.447885"><ele>624.2</ele><time>2011-01-14T09:44:42Z</time></trkpt>
<trkpt lat="43.842995" lon="5.448257"><ele>623.8</ele><time>2011-01-14T09:44:47Z</time></trkpt>
<trkpt lat="43.842945" lon="5.448633"><ele>623.3</ele><time>2011-01-14T09:44:52Z</time></trkpt>
<trkpt lat="43.842892" lon="5.449013"><ele>623.3</ele><time>2011-01-14T09:44:57Z</time></trkpt>
<trkpt lat="43.842838" lon="5.449395"><ele>623.1</ele><time>2011-01-14T09:45:02Z</time></trkpt>
<trkpt lat="43.842782" lon="5.449787"><ele>622.7</ele><time>2011-01-14T09:45:07Z</time></trkpt>
<trkpt lat="43.842743" lon="5.450205"><ele>622.2</ele><time>2011-01-14T09:45:12Z</time></trkpt>
<trkpt lat="43.842782" lon="5.450635"><ele>621.8</ele><time>2011-01-14T09:45:17Z</time></trkpt>
<trkpt lat="43.842862" lon="5.451042"><ele>621.3</ele><time>2011-01-14T09:45:22Z</time></trkpt>
<trkpt lat="43.842945" lon="5.451442"><ele>621</ele><time>2011-01-14T09:45:27Z</time></trkpt>
<trkpt lat="43.843022" lon="5.451848"><ele>620.6</ele><time>2011-01-14T09:45:32Z</time></trkpt>
<trkpt lat="43.843102" lon="5.452248"><ele>620.2</ele><time>2011-01-14T09:45:37Z</time></trkpt>
<trkpt lat="43.843147" lon="5.452662"><ele>619.8</ele><time>2011-01-14T09:45:42Z</time></trkpt>
<trkpt lat="43.843093" lon="5.453083"><ele>619.5</ele><time>2011-01-14T09:45:47Z</time></trkpt>
<trkpt lat="43.843002" lon="5.453490"><ele>619.1</ele><time>2011-01-14T09:45:52Z</time></trkpt>
<trkpt lat="43.842903" lon="5.453918"><ele>618</ele><time>2011-01-14T09:45:57Z</time></trkpt>
<trkpt lat="43.842793" lon="5.454375"><ele>616.3</ele><time>2011-01-14T09:46:02Z</time></trkpt>
<trkpt lat="43.842682" lon="5.454857"><ele>614.6</ele><time>2011-01-14T09:46:07Z</time></trkpt>
<trkpt lat="43.842575" lon="5.455323"><ele>613.3</ele><time>2011-01-14T09:46:12Z</time></trkpt>
<trkpt lat="43.842422" lon="5.455752"><ele>611.7</ele><time>2011-01-14T09:46:17Z</time></trkpt>
<trkpt lat="43.842175" lon="5.456113"><ele>610.1</ele><time>2011-01-14T09:46:22Z</time></trkpt>
<trkpt lat="43.841908" lon="5.456447"><ele>608.7</ele><time>2011-01-14T09:46:27Z</time></trkpt>
<trkpt lat="43.841625" lon="5.456745"><ele>607</ele><time>2011-01-14T09:46:32Z</time></trkpt>
<trkpt lat="43.841243" lon="5.456728"><ele>604.4</ele><time>2011-01-14T09:46:37Z</time></trkpt>
<trkpt lat="43.840950" lon="5.456497"><ele>602.2</ele><time>2011-01-14T09:46:42Z</time></trkpt>
<trkpt lat="43.840867" lon="5.456192"><ele>602.6</ele><time>2011-01-14T09:46:47Z</time></trkpt>
<trkpt lat="43.840835" lon="5.456028"><ele>603.7</ele><time>2011-01-14T09:46:52Z</time></trkpt>
<trkpt lat="43.840805" lon="5.455900"><ele>604.6</ele><time>2011-01-14T09:46:57Z</time></trkpt>
<trkpt lat="43.840835" lon="5.455773"><ele>605.5</ele><time>2011-01-14T09:47:02Z</time></trkpt>
<trkpt lat="43.840867" lon="5.455625"><ele>606.4</ele><time>2011-01-14T09:47:07Z</time></trkpt>
<trkpt lat="43.840858" lon="5.455473"><ele>607.3</ele><time>2011-01-14T09:47:12Z</time></trkpt>
<trkpt lat="43.840797" lon="5.455348"><ele>607.8</ele><time>2011-01-14T09:47:17Z</time></trkpt>
<trkpt lat="43.840702" lon="5.455285"><ele>608.7</ele><time>2011-01-14T09:47:22Z</time></trkpt>
<trkpt lat="43.840615" lon="5.455280"><ele>609.3</ele><time>2011-01-14T09:47:27Z</time></trkpt>
<trkpt lat="43.840553" lon="5.455257"><ele>610.1</ele><time>2011-01-14T09:47:32Z</time></trkpt>
<trkpt lat="43.840485" lon="5.455240"><ele>610.9</ele><time>2011-01-14T09:47:37Z</time></trkpt>
<trkpt lat="43.840408" lon="5.455215"><ele>611.7</ele><time>2011-01-14T09:47:42Z</time></trkpt>
<trkpt lat="43.840337" lon="5.455192"><ele>612.8</ele><time>2011-01-14T09:47:47Z</time></trkpt>
<trkpt lat="43.840255" lon="5.455145"><ele>613.8</ele><time>2011-01-14T09:47:52Z</time></trkpt>
<trkpt lat="43.840175" lon="5.455140"><ele>614.8</ele><time>2011-01-14T09:47:57Z</time></trkpt>
<trkpt lat="43.840095" lon="5.455123"><ele>615.9</ele><time>2011-01-14T09:48:02Z</time></trkpt>
<trkpt lat="43.840020" lon="5.455112"><ele>617</ele><time>2011-01-14T09:48:07Z</time></trkpt>
<trkpt lat="43.839950" lon="5.455092"><ele>618</ele><time>2011-01-14T09:48:12Z</time></trkpt>
<trkpt lat="43.839878" lon="5.455068"><ele>618.9</ele><time>2011-01-14T09:48:17Z</time></trkpt>
<trkpt lat="43.839805" lon="5.455033"><ele>619.6</ele><time>2011-01-14T09:48:22Z</time></trkpt>
<trkpt lat="43.839737" lon="5.454992"><ele>620.4</ele><time>2011-01-14T09:48:27Z</time></trkpt>
<trkpt lat="43.839665" lon="5.454957"><ele>621.2</ele><time>2011-01-14T09:48:32Z</time></trkpt>
<trkpt lat="43.839592" lon="5.454928"><ele>622</ele><time>2011-01-14T09:48:37Z</time></trkpt>
<trkpt lat="43.839527" lon="5.454878"><ele>622.6</ele><time>2011-01-14T09:48:42Z</time></trkpt>
<trkpt lat="43.839462" lon="5.454827"><ele>623.2</ele><time>2011-01-14T09:48:47Z</time></trkpt>
<trkpt lat="43.839393" lon="5.454773"><ele>624</ele><time>2011-01-14T09:48:52Z</time></trkpt>
<trkpt lat="43.839322" lon="5.454730"><ele>624.6</ele><time>2011-01-14T09:48:57Z</time></trkpt>
<trkpt lat="43.839252" lon="5.454675"><ele>625.2</ele><time>2011-01-14T09:49:02Z</time></trkpt>
<trkpt lat="43.839183" lon="5.454623"><ele>626</ele><time>2011-01-14T09:49:07Z</time></trkpt>
<trkpt lat="43.839123" lon="5.454567"><ele>626.8</ele><time>2011-01-14T09:49:12Z</time></trkpt>
<trkpt lat="43.839050" lon="5.454520"><ele>627.6</ele><time>2011-01-14T09:49:17Z</time></trkpt>
<trkpt lat="43.838982" lon="5.454485"><ele>628.2</ele><time>2011-01-14T09:49:22Z</time></trkpt>
<trkpt lat="43.838920" lon="5.454443"><ele>628.9</ele><time>2011-01-14T09:49:27Z</time></trkpt>
<trkpt lat="43.838875" lon="5.454407"><ele>629.5</ele><time>2011-01-14T09:49:32Z</time></trkpt>
<trkpt lat="43.838825" lon="5.454375"><ele>630.1</ele><time>2011-01-14T09:49:37Z</time></trkpt>
<trkpt lat="43.838810" lon="5.454365"><ele>630.4</ele><time>2011-01-14T09:49:42Z</time></trkpt>
<trkpt lat="43.838810" lon="5.454365"><ele>630.5</ele><time>2011-01-14T09:49:47Z</time></trkpt>
<trkpt lat="43.838807" lon="5.454362"><ele>630.7</ele><time>2011-01-14T09:49:52Z</time></trkpt>
<trkpt lat="43.838722" lon="5.454348"><ele>631.1</ele><time>2011-01-14T09:49:57Z</time></trkpt>
<trkpt lat="43.838647" lon="5.454310"><ele>631.8</ele><time>2011-01-14T09:50:02Z</time></trkpt>
<trkpt lat="43.838565" lon="5.454253"><ele>632.5</ele><time>2011-01-14T09:50:07Z</time></trkpt>
<trkpt lat="43.838493" lon="5.454207"><ele>633.1</ele><time>2011-01-14T09:50:12Z</time></trkpt>
<trkpt lat="43.838417" lon="5.454153"><ele>633.7</ele><time>2011-01-14T09:50:17Z</time></trkpt>
<trkpt lat="43.838348" lon="5.454107"><ele>634.4</ele><time>2011-01-14T09:50:22Z</time></trkpt>
<trkpt lat="43.838268" lon="5.454062"><ele>635.2</ele><time>2011-01-14T09:50:27Z</time></trkpt>
<trkpt lat="43.838188" lon="5.454008"><ele>636.2</ele><time>2011-01-14T09:50:32Z</time></trkpt>
<trkpt lat="43.838097" lon="5.453950"><ele>637.1</ele><time>2011-01-14T09:50:37Z</time></trkpt>
<trkpt lat="43.838017" lon="5.453902"><ele>638.1</ele><time>2011-01-14T09:50:42Z</time></trkpt>
<trkpt lat="43.837928" lon="5.453860"><ele>639</ele><time>2011-01-14T09:50:47Z</time></trkpt>
<trkpt lat="43.837845" lon="5.453835"><ele>639.9</ele><time>2011-01-14T09:50:52Z</time></trkpt>
<trkpt lat="43.837757" lon="5.453827"><ele>640.7</ele><time>2011-01-14T09:50:57Z</time></trkpt>
<trkpt lat="43.837670" lon="5.453815"><ele>641.6</ele><time>2011-01-14T09:51:02Z</time></trkpt>
<trkpt lat="43.837590" lon="5.453777"><ele>642.5</ele><time>2011-01-14T09:51:07Z</time></trkpt>
<trkpt lat="43.837505" lon="5.453742"><ele>643.4</ele><time>2011-01-14T09:51:12Z</time></trkpt>
<trkpt lat="43.837422" lon="5.453728"><ele>644.1</ele><time>2011-01-14T09:51:17Z</time></trkpt>
<trkpt lat="43.837337" lon="5.453703"><ele>644.8</ele><time>2011-01-14T09:51:22Z</time></trkpt>
<trkpt lat="43.837250" lon="5.453682"><ele>645.8</ele><time>2011-01-14T09:51:27Z</time></trkpt>
<trkpt lat="43.837162" lon="5.453663"><ele>646.6</ele><time>2011-01-14T09:51:32Z</time></trkpt>
<trkpt lat="43.837075" lon="5.453652"><ele>647.3</ele><time>2011-01-14T09:51:37Z</time></trkpt>
<trkpt lat="43.836983" lon="5.453635"><ele>648.1</ele><time>2011-01-14T09:51:42Z</time></trkpt>
<trkpt lat="43.836895" lon="5.453617"><ele>649</ele><time>2011-01-14T09:51:47Z</time></trkpt>
<trkpt lat="43.836812" lon="5.453578"><ele>649.8</ele><time>2011-01-14T09:51:52Z</time></trkpt>
<trkpt lat="43.836723" lon="5.453547"><ele>650.5</ele><time>2011-01-14T09:51:57Z</time></trkpt>
<trkpt lat="43.836632" lon="5.453527"><ele>651.3</ele><time>2011-01-14T09:52:02Z</time></trkpt>
<trkpt lat="43.836543" lon="5.453498"><ele>652.3</ele><time>2011-01-14T09:52:07Z</time></trkpt>
<trkpt lat="43.836460" lon="5.453465"><ele>653.3</ele><time>2011-01-14T09:52:12Z</time></trkpt>
<trkpt lat="43.836380" lon="5.453422"><ele>654.2</ele><time>2011-01-14T09:52:17Z</time></trkpt>
<trkpt lat="43.836300" lon="5.453365"><ele>655</ele><time>2011-01-14T09:52:22Z</time></trkpt>
<trkpt lat="43.836220" lon="5.453298"><ele>655.8</ele><time>2011-01-14T09:52:27Z</time></trkpt>
<trkpt lat="43.836143" lon="5.453227"><ele>656.6</ele><time>2011-01-14T09:52:32Z</time></trkpt>
<trkpt lat="43.836072" lon="5.453148"><ele>657.5</ele><time>2011-01-14T09:52:37Z</time></trkpt>
<trkpt lat="43.835992" lon="5.453082"><ele>658.4</ele><time>2011-01-14T09:52:42Z</time></trkpt>
<trkpt lat="43.835903" lon="5.453032"><ele>659.3</ele><time>2011-01-14T09:52:47Z</time></trkpt>
<trkpt lat="43.835808" lon="5.453003"><ele>660</ele><time>2011-01-14T09:52:52Z</time></trkpt>
<trkpt lat="43.835717" lon="5.452978"><ele>660.8</ele><time>2011-01-14T09:52:57Z</time></trkpt>
<trkpt lat="43.835622" lon="5.452963"><ele>661.6</ele><time>2011-01-14T09:53:02Z</time></trkpt>
<trkpt lat="43.835525" lon="5.452955"><ele>662.4</ele><time>2011-01-14T09:53:07Z</time></trkpt>
<trkpt lat="43.835430" lon="5.452967"><ele>663.1</ele><time>2011-01-14T09:53:12Z</time></trkpt>
<trkpt lat="43.835335" lon="5.452973"><ele>664</ele><time>2011-01-14T09:53:17Z</time></trkpt>
<trkpt lat="43.835243" lon="5.452980"><ele>664.8</ele><time>2011-01-14T09:53:22Z</time></trkpt>
<trkpt lat="43.835152" lon="5.452970"><ele>665.6</ele><time>2011-01-14T09:53:27Z</time></trkpt>
<trkpt lat="43.835060" lon="5.452947"><ele>666.3</ele><time>2011-01-14T09:53:32Z</time></trkpt>
<trkpt lat="43.834965" lon="5.452908"><ele>667</ele><time>2011-01-14T09:53:37Z</time></trkpt>
<trkpt lat="43.834873" lon="5.452865"><ele>667.8</ele><time>2011-01-14T09:53:42Z</time></trkpt>
<trkpt lat="43.834790" lon="5.452810"><ele>668.6</ele><time>2011-01-14T09:53:47Z</time></trkpt>
<trkpt lat="43.834705" lon="5.452753"><ele>669.5</ele><time>2011-01-14T09:53:52Z</time></trkpt>
<trkpt lat="43.834622" lon="5.452707"><ele>670.4</ele><time>2011-01-14T09:53:57Z</time></trkpt>
<trkpt lat="43.834545" lon="5.452643"><ele>671.6</ele><time>2011-01-14T09:54:02Z</time></trkpt>
<trkpt lat="43.834473" lon="5.452575"><ele>672.6</ele><time>2011-01-14T09:54:07Z</time></trkpt>
<trkpt lat="43.834397" lon="5.452508"><ele>673.6</ele><time>2011-01-14T09:54:12Z</time></trkpt>
<trkpt lat="43.834320" lon="5.452443"><ele>674.7</ele><time>2011-01-14T09:54:17Z</time></trkpt>
<trkpt lat="43.834252" lon="5.452368"><ele>675.8</ele><time>2011-01-14T09:54:22Z</time></trkpt>
<trkpt lat="43.834187" lon="5.452287"><ele>676.9</ele><time>2011-01-14T09:54:27Z</time></trkpt>
<trkpt lat="43.834133" lon="5.452188"><ele>677.9</ele><time>2011-01-14T09:54:32Z</time></trkpt>
<trkpt lat="43.834092" lon="5.452082"><ele>679</ele><time>2011-01-14T09:54:37Z</time></trkpt>
<trkpt lat="43.834053" lon="5.451973"><ele>680.2</ele><time>2011-01-14T09:54:42Z</time></trkpt>
<trkpt lat="43.834015" lon="5.451867"><ele>681.2</ele><time>2011-01-14T09:54:47Z</time></trkpt>
<trkpt lat="43.833965" lon="5.451778"><ele>682.1</ele><time>2011-01-14T09:54:52Z</time></trkpt>
<trkpt lat="43.833915" lon="5.451700"><ele>682.9</ele><time>2011-01-14T09:54:57Z</time></trkpt>
<trkpt lat="43.833858" lon="5.451618"><ele>683.8</ele><time>2011-01-14T09:55:02Z</time></trkpt>
<trkpt lat="43.833805" lon="5.451538"><ele>684.6</ele><time>2011-01-14T09:55:07Z</time></trkpt>
<trkpt lat="43.833748" lon="5.451460"><ele>685.6</ele><time>2011-01-14T09:55:12Z</time></trkpt>
<trkpt lat="43.833690" lon="5.451387"><ele>686.7</ele><time>2011-01-14T09:55:17Z</time></trkpt>
<trkpt lat="43.833630" lon="5.451323"><ele>687.6</ele><time>2011-01-14T09:55:22Z</time></trkpt>
<trkpt lat="43.833565" lon="5.451272"><ele>688.3</ele><time>2011-01-14T09:55:27Z</time></trkpt>
<trkpt lat="43.833500" lon="5.451212"><ele>689.2</ele><time>2011-01-14T09:55:32Z</time></trkpt>
<trkpt lat="43.833435" lon="5.451172"><ele>690</ele><time>2011-01-14T09:55:37Z</time></trkpt>
<trkpt lat="43.833373" lon="5.451120"><ele>690.9</ele><time>2011-01-14T09:55:42Z</time></trkpt>
<trkpt lat="43.833313" lon="5.451068"><ele>691.7</ele><time>2011-01-14T09:55:47Z</time></trkpt>
<trkpt lat="43.833252" lon="5.451022"><ele>692.5</ele><time>2011-01-14T09:55:52Z</time></trkpt>
<trkpt lat="43.833183" lon="5.450997"><ele>693</ele><time>2011-01-14T09:55:57Z</time></trkpt>
<trkpt lat="43.833115" lon="5.450982"><ele>693.6</ele><time>2011-01-14T09:56:02Z</time></trkpt>
<trkpt lat="43.833053" lon="5.450943"><ele>694.3</ele><time>2011-01-14T09:56:07Z</time></trkpt>
<trkpt lat="43.832997" lon="5.450888"><ele>694.9</ele><time>2011-01-14T09:56:12Z</time></trkpt>
<trkpt lat="43.832947" lon="5.450815"><ele>695.9</ele><time>2011-01-14T09:56:17Z</time></trkpt>
<trkpt lat="43.832882" lon="5.450757"><ele>696.6</ele><time>2011-01-14T09:56:22Z</time></trkpt>
<trkpt lat="43.832837" lon="5.450658"><ele>697.4</ele><time>2011-01-14T09:56:27Z</time></trkpt>
<trkpt lat="43.832778" lon="5.450572"><ele>697.8</ele><time>2011-01-14T09:56:32Z</time></trkpt>
<trkpt lat="43.832710" lon="5.450465"><ele>697.9</ele><time>2011-01-14T09:56:37Z</time></trkpt>
<trkpt lat="43.832642" lon="5.450345"><ele>698.1</ele><time>2011-01-14T09:56:42Z</time></trkpt>
<trkpt lat="43.832547" lon="5.450243"><ele>698.3</ele><time>2011-01-14T09:56:47Z</time></trkpt>
<trkpt lat="43.832420" lon="5.450202"><ele>698.2</ele><time>2011-01-14T09:56:52Z</time></trkpt>
<trkpt lat="43.832360" lon="5.450265"><ele>698</ele><time>2011-01-14T09:56:57Z</time></trkpt>
<trkpt lat="43.832260" lon="5.450287"><ele>697.9</ele><time>2011-01-14T09:57:02Z</time></trkpt>
<trkpt lat="43.832153" lon="5.450305"><ele>697.8</ele><time>2011-01-14T09:57:07Z</time></trkpt>
<trkpt lat="43.832035" lon="5.450365"><ele>697.9</ele><time>2011-01-14T09:57:12Z</time></trkpt>
<trkpt lat="43.831928" lon="5.450475"><ele>698.2</ele><time>2011-01-14T09:57:17Z</time></trkpt>
<trkpt lat="43.831840" lon="5.450603"><ele>698.7</ele><time>2011-01-14T09:57:22Z</time></trkpt>
<trkpt lat="43.831760" lon="5.450732"><ele>699.4</ele><time>2011-01-14T09:57:27Z</time></trkpt>
<trkpt lat="43.831695" lon="5.450857"><ele>700.7</ele><time>2011-01-14T09:57:32Z</time></trkpt>
<trkpt lat="43.831630" lon="5.450970"><ele>701.7</ele><time>2011-01-14T09:57:37Z</time></trkpt>
<trkpt lat="43.831558" lon="5.451078"><ele>702.8</ele><time>2011-01-14T09:57:42Z</time></trkpt>
<trkpt lat="43.831485" lon="5.451188"><ele>703.6</ele><time>2011-01-14T09:57:47Z</time></trkpt>
<trkpt lat="43.831413" lon="5.451295"><ele>704.4</ele><time>2011-01-14T09:57:52Z</time></trkpt>
<trkpt lat="43.831345" lon="5.451402"><ele>704.9</ele><time>2011-01-14T09:57:57Z</time></trkpt>
<trkpt lat="43.831283" lon="5.451523"><ele>705.5</ele><time>2011-01-14T09:58:02Z</time></trkpt>
<trkpt lat="43.831233" lon="5.451652"><ele>705.9</ele><time>2011-01-14T09:58:07Z</time></trkpt>
<trkpt lat="43.831177" lon="5.451778"><ele>706.4</ele><time>2011-01-14T09:58:12Z</time></trkpt>
<trkpt lat="43.831115" lon="5.451905"><ele>707</ele><time>2011-01-14T09:58:17Z</time></trkpt>
<trkpt lat="43.831040" lon="5.452003"><ele>707.6</ele><time>2011-01-14T09:58:22Z</time></trkpt>
<trkpt lat="43.830940" lon="5.452058"><ele>708.7</ele><time>2011-01-14T09:58:27Z</time></trkpt>
<trkpt lat="43.830833" lon="5.452095"><ele>709.9</ele><time>2011-01-14T09:58:32Z</time></trkpt>
<trkpt lat="43.830727" lon="5.452120"><ele>711.1</ele><time>2011-01-14T09:58:37Z</time></trkpt>
<trkpt lat="43.830620" lon="5.452115"><ele>711.8</ele><time>2011-01-14T09:58:42Z</time></trkpt>
<trkpt lat="43.830513" lon="5.452077"><ele>712.7</ele><time>2011-01-14T09:58:47Z</time></trkpt>
<trkpt lat="43.830413" lon="5.452008"><ele>713.6</ele><time>2011-01-14T09:58:52Z</time></trkpt>
<trkpt lat="43.830333" lon="5.451913"><ele>714.4</ele><time>2011-01-14T09:58:57Z</time></trkpt>
<trkpt lat="43.830268" lon="5.451802"><ele>715.5</ele><time>2011-01-14T09:59:02Z</time></trkpt>
<trkpt lat="43.830220" lon="5.451673"><ele>716.3</ele><time>2011-01-14T09:59:07Z</time></trkpt>
<trkpt lat="43.830170" lon="5.451542"><ele>717.1</ele><time>2011-01-14T09:59:12Z</time></trkpt>
<trkpt lat="43.830105" lon="5.451422"><ele>718</ele><time>2011-01-14T09:59:17Z</time></trkpt>
<trkpt lat="43.830043" lon="5.451295"><ele>718.8</ele><time>2011-01-14T09:59:22Z</time></trkpt>
<trkpt lat="43.829998" lon="5.451165"><ele>720.1</ele><time>2011-01-14T09:59:27Z</time></trkpt>
<trkpt lat="43.829952" lon="5.451035"><ele>721.1</ele><time>2011-01-14T09:59:32Z</time></trkpt>
<trkpt lat="43.829933" lon="5.450898"><ele>721.7</ele><time>2011-01-14T09:59:37Z</time></trkpt>
<trkpt lat="43.829910" lon="5.450767"><ele>722.7</ele><time>2011-01-14T09:59:42Z</time></trkpt>
<trkpt lat="43.829907" lon="5.450647"><ele>723.9</ele><time>2011-01-14T09:59:47Z</time></trkpt>
<trkpt lat="43.829895" lon="5.450528"><ele>725.2</ele><time>2011-01-14T09:59:52Z</time></trkpt>
<trkpt lat="43.829903" lon="5.450408"><ele>726.2</ele><time>2011-01-14T09:59:57Z</time></trkpt>
<trkpt lat="43.829930" lon="5.450297"><ele>727.2</ele><time>2011-01-14T10:00:02Z</time></trkpt>
<trkpt lat="43.829952" lon="5.450188"><ele>728.2</ele><time>2011-01-14T10:00:07Z</time></trkpt>
<trkpt lat="43.829940" lon="5.450077"><ele>729</ele><time>2011-01-14T10:00:12Z</time></trkpt>
<trkpt lat="43.829880" lon="5.449990"><ele>729.9</ele><time>2011-01-14T10:00:17Z</time></trkpt>
<trkpt lat="43.829800" lon="5.449952"><ele>730.9</ele><time>2011-01-14T10:00:22Z</time></trkpt>
<trkpt lat="43.829715" lon="5.450013"><ele>731.6</ele><time>2011-01-14T10:00:27Z</time></trkpt>
<trkpt lat="43.829685" lon="5.450147"><ele>732</ele><time>2011-01-14T10:00:32Z</time></trkpt>
<trkpt lat="43.829647" lon="5.450270"><ele>732.6</ele><time>2011-01-14T10:00:37Z</time></trkpt>
<trkpt lat="43.829628" lon="5.450405"><ele>732.9</ele><time>2011-01-14T10:00:42Z</time></trkpt>
<trkpt lat="43.829617" lon="5.450538"><ele>732.9</ele><time>2011-01-14T10:00:47Z</time></trkpt>
<trkpt lat="43.829617" lon="5.450673"><ele>733</ele><time>2011-01-14T10:00:52Z</time></trkpt>
<trkpt lat="43.829613" lon="5.450798"><ele>733.6</ele><time>2011-01-14T10:00:57Z</time></trkpt>
<trkpt lat="43.829608" lon="5.450920"><ele>733.9</ele><time>2011-01-14T10:01:02Z</time></trkpt>
<trkpt lat="43.829597" lon="5.451045"><ele>734.6</ele><time>2011-01-14T10:01:07Z</time></trkpt>
<trkpt lat="43.829582" lon="5.451172"><ele>735.4</ele><time>2011-01-14T10:01:12Z</time></trkpt>
<trkpt lat="43.829543" lon="5.451275"><ele>736.3</ele><time>2011-01-14T10:01:17Z</time></trkpt>
<trkpt lat="43.829483" lon="5.451367"><ele>736.8</ele><time>2011-01-14T10:01:22Z</time></trkpt>
<trkpt lat="43.829415" lon="5.451427"><ele>737.5</ele><time>2011-01-14T10:01:27Z</time></trkpt>
<trkpt lat="43.829350" lon="5.451513"><ele>738.3</ele><time>2011-01-14T10:01:32Z</time></trkpt>
<trkpt lat="43.829292" lon="5.451607"><ele>739.2</ele><time>2011-01-14T10:01:37Z</time></trkpt>
<trkpt lat="43.829238" lon="5.451703"><ele>740</ele><time>2011-01-14T10:01:42Z</time></trkpt>
<trkpt lat="43.829185" lon="5.451800"><ele>741</ele><time>2011-01-14T10:01:47Z</time></trkpt>
<trkpt lat="43.829137" lon="5.451903"><ele>741.9</ele><time>2011-01-14T10:01:52Z</time></trkpt>
<trkpt lat="43.829093" lon="5.452015"><ele>742.5</ele><time>2011-01-14T10:01:57Z</time></trkpt>
<trkpt lat="43.829063" lon="5.452123"><ele>743.2</ele><time>2011-01-14T10:02:02Z</time></trkpt>
<trkpt lat="43.829025" lon="5.452232"><ele>744</ele><time>2011-01-14T10:02:07Z</time></trkpt>
<trkpt lat="43.828992" lon="5.452332"><ele>744.8</ele><time>2011-01-14T10:02:12Z</time></trkpt>
<trkpt lat="43.828957" lon="5.452430"><ele>745.7</ele><time>2011-01-14T10:02:17Z</time></trkpt>
<trkpt lat="43.828930" lon="5.452533"><ele>746.7</ele><time>2011-01-14T10:02:22Z</time></trkpt>
<trkpt lat="43.828900" lon="5.452643"><ele>747.5</ele><time>2011-01-14T10:02:27Z</time></trkpt>
<trkpt lat="43.828865" lon="5.452753"><ele>748.6</ele><time>2011-01-14T10:02:32Z</time></trkpt>
<trkpt lat="43.828838" lon="5.452865"><ele>749.5</ele><time>2011-01-14T10:02:37Z</time></trkpt>
<trkpt lat="43.828820" lon="5.452982"><ele>750.2</ele><time>2011-01-14T10:02:42Z</time></trkpt>
<trkpt lat="43.828803" lon="5.453097"><ele>750.8</ele><time>2011-01-14T10:02:47Z</time></trkpt>
<trkpt lat="43.828800" lon="5.453213"><ele>751.5</ele><time>2011-01-14T10:02:52Z</time></trkpt>
<trkpt lat="43.828803" lon="5.453320"><ele>752.3</ele><time>2011-01-14T10:02:57Z</time></trkpt>
<trkpt lat="43.828803" lon="5.453420"><ele>753.2</ele><time>2011-01-14T10:03:02Z</time></trkpt>
<trkpt lat="43.828773" lon="5.453520"><ele>754</ele><time>2011-01-14T10:03:07Z</time></trkpt>
<trkpt lat="43.828705" lon="5.453575"><ele>754.7</ele><time>2011-01-14T10:03:12Z</time></trkpt>
<trkpt lat="43.828622" lon="5.453545"><ele>755.3</ele><time>2011-01-14T10:03:17Z</time></trkpt>
<trkpt lat="43.828572" lon="5.453442"><ele>756</ele><time>2011-01-14T10:03:22Z</time></trkpt>
<trkpt lat="43.828568" lon="5.453313"><ele>756.7</ele><time>2011-01-14T10:03:27Z</time></trkpt>
<trkpt lat="43.828583" lon="5.453187"><ele>757.3</ele><time>2011-01-14T10:03:32Z</time></trkpt>
<trkpt lat="43.828602" lon="5.453057"><ele>758.1</ele><time>2011-01-14T10:03:37Z</time></trkpt>
<trkpt lat="43.828602" lon="5.452923"><ele>758.7</ele><time>2011-01-14T10:03:42Z</time></trkpt>
<trkpt lat="43.828572" lon="5.452798"><ele>759.1</ele><time>2011-01-14T10:03:47Z</time></trkpt>
<trkpt lat="43.828513" lon="5.452687"><ele>759.5</ele><time>2011-01-14T10:03:52Z</time></trkpt>
<trkpt lat="43.828450" lon="5.452592"><ele>760.2</ele><time>2011-01-14T10:03:57Z</time></trkpt>
<trkpt lat="43.828397" lon="5.452487"><ele>761.1</ele><time>2011-01-14T10:04:02Z</time></trkpt>
<trkpt lat="43.828353" lon="5.452370"><ele>762.1</ele><time>2011-01-14T10:04:07Z</time></trkpt>
<trkpt lat="43.828300" lon="5.452265"><ele>763</ele><time>2011-01-14T10:04:12Z</time></trkpt>
<trkpt lat="43.828228" lon="5.452185"><ele>764</ele><time>2011-01-14T10:04:17Z</time></trkpt>
<trkpt lat="43.828137" lon="5.452158"><ele>764.8</ele><time>2011-01-14T10:04:22Z</time></trkpt>
<trkpt lat="43.828057" lon="5.452225"><ele>765.3</ele><time>2011-01-14T10:04:27Z</time></trkpt>
<trkpt lat="43.828037" lon="5.452360"><ele>765.7</ele><time>2011-01-14T10:04:32Z</time></trkpt>
<trkpt lat="43.828090" lon="5.452482"><ele>766.3</ele><time>2011-01-14T10:04:37Z</time></trkpt>
<trkpt lat="43.828155" lon="5.452592"><ele>767.2</ele><time>2011-01-14T10:04:42Z</time></trkpt>
<trkpt lat="43.828225" lon="5.452692"><ele>768.3</ele><time>2011-01-14T10:04:47Z</time></trkpt>
<trkpt lat="43.828285" lon="5.452797"><ele>769</ele><time>2011-01-14T10:04:52Z</time></trkpt>
<trkpt lat="43.828323" lon="5.452923"><ele>769.5</ele><time>2011-01-14T10:04:57Z</time></trkpt>
<trkpt lat="43.828335" lon="5.453057"><ele>770</ele><time>2011-01-14T10:05:02Z</time></trkpt>
<trkpt lat="43.828312" lon="5.453183"><ele>770.4</ele><time>2011-01-14T10:05:07Z</time></trkpt>
<trkpt lat="43.828293" lon="5.453312"><ele>771.1</ele><time>2011-01-14T10:05:12Z</time></trkpt>
<trkpt lat="43.828255" lon="5.453432"><ele>771.8</ele><time>2011-01-14T10:05:17Z</time></trkpt>
<trkpt lat="43.828228" lon="5.453550"><ele>772.5</ele><time>2011-01-14T10:05:22Z</time></trkpt>
<trkpt lat="43.828213" lon="5.453678"><ele>773.2</ele><time>2011-01-14T10:05:27Z</time></trkpt>
<trkpt lat="43.828217" lon="5.453805"><ele>774.1</ele><time>2011-01-14T10:05:32Z</time></trkpt>
<trkpt lat="43.828228" lon="5.453933"><ele>774.8</ele><time>2011-01-14T10:05:37Z</time></trkpt>
<trkpt lat="43.828240" lon="5.454062"><ele>775.5</ele><time>2011-01-14T10:05:42Z</time></trkpt>
<trkpt lat="43.828267" lon="5.454185"><ele>776.3</ele><time>2011-01-14T10:05:47Z</time></trkpt>
<trkpt lat="43.828300" lon="5.454300"><ele>777.1</ele><time>2011-01-14T10:05:52Z</time></trkpt>
<trkpt lat="43.828335" lon="5.454413"><ele>778</ele><time>2011-01-14T10:05:57Z</time></trkpt>
<trkpt lat="43.828342" lon="5.454533"><ele>779</ele><time>2011-01-14T10:06:02Z</time></trkpt>
<trkpt lat="43.828285" lon="5.454622"><ele>780.1</ele><time>2011-01-14T10:06:07Z</time></trkpt>
<trkpt lat="43.828202" lon="5.454585"><ele>780.8</ele><time>2011-01-14T10:06:12Z</time></trkpt>
<trkpt lat="43.828155" lon="5.454467"><ele>781.7</ele><time>2011-01-14T10:06:17Z</time></trkpt>
<trkpt lat="43.828137" lon="5.454338"><ele>782.5</ele><time>2011-01-14T10:06:22Z</time></trkpt>
<trkpt lat="43.828117" lon="5.454213"><ele>783.2</ele><time>2011-01-14T10:06:27Z</time></trkpt>
<trkpt lat="43.828090" lon="5.454087"><ele>784</ele><time>2011-01-14T10:06:32Z</time></trkpt>
<trkpt lat="43.828060" lon="5.453962"><ele>784.9</ele><time>2011-01-14T10:06:37Z</time></trkpt>
<trkpt lat="43.828030" lon="5.453842"><ele>785.8</ele><time>2011-01-14T10:06:42Z</time></trkpt>
<trkpt lat="43.827998" lon="5.453722"><ele>786.6</ele><time>2011-01-14T10:06:47Z</time></trkpt>
<trkpt lat="43.827957" lon="5.453607"><ele>787.6</ele><time>2011-01-14T10:06:52Z</time></trkpt>
<trkpt lat="43.827915" lon="5.453497"><ele>788.6</ele><time>2011-01-14T10:06:57Z</time></trkpt>
<trkpt lat="43.827865" lon="5.453390"><ele>789.6</ele><time>2011-01-14T10:07:02Z</time></trkpt>
<trkpt lat="43.827808" lon="5.453292"><ele>790.7</ele><time>2011-01-14T10:07:07Z</time></trkpt>
<trkpt lat="43.827743" lon="5.453207"><ele>791.7</ele><time>2011-01-14T10:07:12Z</time></trkpt>
<trkpt lat="43.827660" lon="5.453165"><ele>792.6</ele><time>2011-01-14T10:07:17Z</time></trkpt>
<trkpt lat="43.827568" lon="5.453167"><ele>793.2</ele><time>2011-01-14T10:07:22Z</time></trkpt>
<trkpt lat="43.827480" lon="5.453207"><ele>793.8</ele><time>2011-01-14T10:07:27Z</time></trkpt>
<trkpt lat="43.827403" lon="5.453268"><ele>794.2</ele><time>2011-01-14T10:07:32Z</time></trkpt>
<trkpt lat="43.827328" lon="5.453325"><ele>794.9</ele><time>2011-01-14T10:07:37Z</time></trkpt>
<trkpt lat="43.827248" lon="5.453382"><ele>795.5</ele><time>2011-01-14T10:07:42Z</time></trkpt>
<trkpt lat="43.827172" lon="5.453432"><ele>796.2</ele><time>2011-01-14T10:07:47Z</time></trkpt>
<trkpt lat="43.827080" lon="5.453445"><ele>796.7</ele><time>2011-01-14T10:07:52Z</time></trkpt>
<trkpt lat="43.827007" lon="5.453380"><ele>797.4</ele><time>2011-01-14T10:07:57Z</time></trkpt>
<trkpt lat="43.826973" lon="5.453267"><ele>798.5</ele><time>2011-01-14T10:08:02Z</time></trkpt>
<trkpt lat="43.826977" lon="5.453143"><ele>799.8</ele><time>2011-01-14T10:08:07Z</time></trkpt>
<trkpt lat="43.827007" lon="5.453015"><ele>800.9</ele><time>2011-01-14T10:08:12Z</time></trkpt>
<trkpt lat="43.827038" lon="5.452892"><ele>801.9</ele><time>2011-01-14T10:08:17Z</time></trkpt>
<trkpt lat="43.827050" lon="5.452767"><ele>802.6</ele><time>2011-01-14T10:08:22Z</time></trkpt>
<trkpt lat="43.827015" lon="5.452650"><ele>803.1</ele><time>2011-01-14T10:08:27Z</time></trkpt>
<trkpt lat="43.826942" lon="5.452568"><ele>803.7</ele><time>2011-01-14T10:08:32Z</time></trkpt>
<trkpt lat="43.826852" lon="5.452535"><ele>804.2</ele><time>2011-01-14T10:08:37Z</time></trkpt>
<trkpt lat="43.826755" lon="5.452553"><ele>804.6</ele><time>2011-01-14T10:08:42Z</time></trkpt>
<trkpt lat="43.826663" lon="5.452597"><ele>805.1</ele><time>2011-01-14T10:08:47Z</time></trkpt>
<trkpt lat="43.826583" lon="5.452645"><ele>805.7</ele><time>2011-01-14T10:08:52Z</time></trkpt>
<trkpt lat="43.826503" lon="5.452710"><ele>806.3</ele><time>2011-01-14T10:08:57Z</time></trkpt>
<trkpt lat="43.826417" lon="5.452755"><ele>807</ele><time>2011-01-14T10:09:02Z</time></trkpt>
<trkpt lat="43.826332" lon="5.452795"><ele>807.7</ele><time>2011-01-14T10:09:07Z</time></trkpt>
<trkpt lat="43.826248" lon="5.452837"><ele>808.6</ele><time>2011-01-14T10:09:12Z</time></trkpt>
<trkpt lat="43.826160" lon="5.452873"><ele>809.5</ele><time>2011-01-14T10:09:17Z</time></trkpt>
<trkpt lat="43.826077" lon="5.452908"><ele>810.3</ele><time>2011-01-14T10:09:22Z</time></trkpt>
<trkpt lat="43.825993" lon="5.452952"><ele>811.2</ele><time>2011-01-14T10:09:27Z</time></trkpt>
<trkpt lat="43.825908" lon="5.452987"><ele>812</ele><time>2011-01-14T10:09:32Z</time></trkpt>
<trkpt lat="43.825828" lon="5.453025"><ele>813</ele><time>2011-01-14T10:09:37Z</time></trkpt>
<trkpt lat="43.825745" lon="5.453063"><ele>813.8</ele><time>2011-01-14T10:09:42Z</time></trkpt>
<trkpt lat="43.825665" lon="5.453095"><ele>814.7</ele><time>2011-01-14T10:09:47Z</time></trkpt>
<trkpt lat="43.825580" lon="5.453123"><ele>815.6</ele><time>2011-01-14T10:09:52Z</time></trkpt>
<trkpt lat="43.825497" lon="5.453132"><ele>816.4</ele><time>2011-01-14T10:09:57Z</time></trkpt>
<trkpt lat="43.825413" lon="5.453125"><ele>817.1</ele><time>2011-01-14T10:10:02Z</time></trkpt>
<trkpt lat="43.825333" lon="5.453113"><ele>817.8</ele><time>2011-01-14T10:10:07Z</time></trkpt>
<trkpt lat="43.825248" lon="5.453087"><ele>818.4</ele><time>2011-01-14T10:10:12Z</time></trkpt>
<trkpt lat="43.825177" lon="5.453057"><ele>819.1</ele><time>2011-01-14T10:10:17Z</time></trkpt>
<trkpt lat="43.825103" lon="5.453013"><ele>819.9</ele><time>2011-01-14T10:10:22Z</time></trkpt>
<trkpt lat="43.825027" lon="5.452965"><ele>820.8</ele><time>2011-01-14T10:10:27Z</time></trkpt>
<trkpt lat="43.824955" lon="5.452910"><ele>821.6</ele><time>2011-01-14T10:10:32Z</time></trkpt>
<trkpt lat="43.824878" lon="5.452862"><ele>822.4</ele><time>2011-01-14T10:10:37Z</time></trkpt>
<trkpt lat="43.824798" lon="5.452820"><ele>823.4</ele><time>2011-01-14T10:10:42Z</time></trkpt>
<trkpt lat="43.824722" lon="5.452783"><ele>824.3</ele><time>2011-01-14T10:10:47Z</time></trkpt>
<trkpt lat="43.824642" lon="5.452748"><ele>825.2</ele><time>2011-01-14T10:10:52Z</time></trkpt>
<trkpt lat="43.824562" lon="5.452717"><ele>826.2</ele><time>2011-01-14T10:10:57Z</time></trkpt>
<trkpt lat="43.824490" lon="5.452680"><ele>827.1</ele><time>2011-01-14T10:11:02Z</time></trkpt>
<trkpt lat="43.824413" lon="5.452645"><ele>828.1</ele><time>2011-01-14T10:11:07Z</time></trkpt>
<trkpt lat="43.824333" lon="5.452610"><ele>829</ele><time>2011-01-14T10:11:12Z</time></trkpt>
<trkpt lat="43.824253" lon="5.452588"><ele>830</ele><time>2011-01-14T10:11:17Z</time></trkpt>
<trkpt lat="43.824168" lon="5.452585"><ele>830.9</ele><time>2011-01-14T10:11:22Z</time></trkpt>
<trkpt lat="43.824088" lon="5.452545"><ele>831.7</ele><time>2011-01-14T10:11:27Z</time></trkpt>
<trkpt lat="43.824025" lon="5.452473"><ele>832.9</ele><time>2011-01-14T10:11:32Z</time></trkpt>
<trkpt lat="43.824017" lon="5.452363"><ele>834.1</ele><time>2011-01-14T10:11:37Z</time></trkpt>
<trkpt lat="43.824073" lon="5.452278"><ele>835.1</ele><time>2011-01-14T10:11:42Z</time></trkpt>
<trkpt lat="43.824147" lon="5.452210"><ele>835.9</ele><time>2011-01-14T10:11:47Z</time></trkpt>
<trkpt lat="43.824230" lon="5.452157"><ele>836.7</ele><time>2011-01-14T10:11:52Z</time></trkpt>
<trkpt lat="43.824310" lon="5.452112"><ele>837.3</ele><time>2011-01-14T10:11:57Z</time></trkpt>
<trkpt lat="43.824390" lon="5.452067"><ele>837.9</ele><time>2011-01-14T10:12:02Z</time></trkpt>
<trkpt lat="43.824467" lon="5.452020"><ele>838.6</ele><time>2011-01-14T10:12:07Z</time></trkpt>
<trkpt lat="43.824547" lon="5.451970"><ele>839.4</ele><time>2011-01-14T10:12:12Z</time></trkpt>
<trkpt lat="43.824627" lon="5.451938"><ele>840.2</ele><time>2011-01-14T10:12:17Z</time></trkpt>
<trkpt lat="43.824715" lon="5.451908"><ele>841</ele><time>2011-01-14T10:12:22Z</time></trkpt>
<trkpt lat="43.824798" lon="5.451895"><ele>841.8</ele><time>2011-01-14T10:12:27Z</time></trkpt>
<trkpt lat="43.824887" lon="5.451888"><ele>842.6</ele><time>2011-01-14T10:12:32Z</time></trkpt>
<trkpt lat="43.824973" lon="5.451885"><ele>843.4</ele><time>2011-01-14T10:12:37Z</time></trkpt>
<trkpt lat="43.825050" lon="5.451918"><ele>844.2</ele><time>2011-01-14T10:12:42Z</time></trkpt>
<trkpt lat="43.825138" lon="5.451898"><ele>845.1</ele><time>2011-01-14T10:12:47Z</time></trkpt>
<trkpt lat="43.825215" lon="5.451858"><ele>845.8</ele><time>2011-01-14T10:12:52Z</time></trkpt>
<trkpt lat="43.825295" lon="5.451803"><ele>846.5</ele><time>2011-01-14T10:12:57Z</time></trkpt>
<trkpt lat="43.825367" lon="5.451740"><ele>847.2</ele><time>2011-01-14T10:13:02Z</time></trkpt>
<trkpt lat="43.825435" lon="5.451680"><ele>848</ele><time>2011-01-14T10:13:07Z</time></trkpt>
<trkpt lat="43.825505" lon="5.451607"><ele>848.8</ele><time>2011-01-14T10:13:12Z</time></trkpt>
<trkpt lat="43.825573" lon="5.451528"><ele>849.8</ele><time>2011-01-14T10:13:17Z</time></trkpt>
<trkpt lat="43.825638" lon="5.451450"><ele>850.9</ele><time>2011-01-14T10:13:22Z</time></trkpt>
<trkpt lat="43.825695" lon="5.451358"><ele>852</ele><time>2011-01-14T10:13:27Z</time></trkpt>
<trkpt lat="43.825748" lon="5.451258"><ele>853.1</ele><time>2011-01-14T10:13:32Z</time></trkpt>
<trkpt lat="43.825802" lon="5.451158"><ele>853.9</ele><time>2011-01-14T10:13:37Z</time></trkpt>
<trkpt lat="43.825852" lon="5.451053"><ele>855</ele><time>2011-01-14T10:13:42Z</time></trkpt>
<trkpt lat="43.825890" lon="5.450943"><ele>855.9</ele><time>2011-01-14T10:13:47Z</time></trkpt>
<trkpt lat="43.825932" lon="5.450840"><ele>856.8</ele><time>2011-01-14T10:13:52Z</time></trkpt>
<trkpt lat="43.825982" lon="5.450745"><ele>857.7</ele><time>2011-01-14T10:13:57Z</time></trkpt>
<trkpt lat="43.826030" lon="5.450650"><ele>858.6</ele><time>2011-01-14T10:14:02Z</time></trkpt>
<trkpt lat="43.826083" lon="5.450552"><ele>859.4</ele><time>2011-01-14T10:14:07Z</time></trkpt>
<trkpt lat="43.826145" lon="5.450465"><ele>860.5</ele><time>2011-01-14T10:14:12Z</time></trkpt>
<trkpt lat="43.826207" lon="5.450380"><ele>861.6</ele><time>2011-01-14T10:14:17Z</time></trkpt>
<trkpt lat="43.826283" lon="5.450303"><ele>862.3</ele><time>2011-01-14T10:14:22Z</time></trkpt>
<trkpt lat="43.826358" lon="5.450245"><ele>862.9</ele><time>2011-01-14T10:14:27Z</time></trkpt>
<trkpt lat="43.826420" lon="5.450155"><ele>863.7</ele><time>2011-01-14T10:14:32Z</time></trkpt>
<trkpt lat="43.826458" lon="5.450040"><ele>864.5</ele><time>2011-01-14T10:14:37Z</time></trkpt>
<trkpt lat="43.826458" lon="5.449918"><ele>865.2</ele><time>2011-01-14T10:14:42Z</time></trkpt>
<trkpt lat="43.826432" lon="5.449800"><ele>865.7</ele><time>2011-01-14T10:14:47Z</time></trkpt>
<trkpt lat="43.826397" lon="5.449687"><ele>866.2</ele><time>2011-01-14T10:14:52Z</time></trkpt>
<trkpt lat="43.826347" lon="5.449590"><ele>866.7</ele><time>2011-01-14T10:14:57Z</time></trkpt>
<trkpt lat="43.826320" lon="5.449477"><ele>867.3</ele><time>2011-01-14T10:15:02Z</time></trkpt>
<trkpt lat="43.826298" lon="5.449367"><ele>868.1</ele><time>2011-01-14T10:15:07Z</time></trkpt>
<trkpt lat="43.826283" lon="5.449250"><ele>869</ele><time>2011-01-14T10:15:12Z</time></trkpt>
<trkpt lat="43.826267" lon="5.449133"><ele>869.7</ele><time>2011-01-14T10:15:17Z</time></trkpt>
<trkpt lat="43.826260" lon="5.449017"><ele>870.6</ele><time>2011-01-14T10:15:22Z</time></trkpt>
<trkpt lat="43.826252" lon="5.448900"><ele>871.4</ele><time>2011-01-14T10:15:27Z</time></trkpt>
<trkpt lat="43.826245" lon="5.448782"><ele>872.2</ele><time>2011-01-14T10:15:32Z</time></trkpt>
<trkpt lat="43.826237" lon="5.448660"><ele>873</ele><time>2011-01-14T10:15:37Z</time></trkpt>
<trkpt lat="43.826228" lon="5.448538"><ele>873.8</ele><time>2011-01-14T10:15:42Z</time></trkpt>
<trkpt lat="43.826228" lon="5.448418"><ele>874.5</ele><time>2011-01-14T10:15:47Z</time></trkpt>
<trkpt lat="43.826240" lon="5.448298"><ele>875.3</ele><time>2011-01-14T10:15:52Z</time></trkpt>
<trkpt lat="43.826228" lon="5.448175"><ele>876.2</ele><time>2011-01-14T10:15:57Z</time></trkpt>
<trkpt lat="43.826210" lon="5.448055"><ele>876.9</ele><time>2011-01-14T10:16:02Z</time></trkpt>
<trkpt lat="43.826187" lon="5.447943"><ele>877.7</ele><time>2011-01-14T10:16:07Z</time></trkpt>
<trkpt lat="43.826157" lon="5.447833"><ele>878.5</ele><time>2011-01-14T10:16:12Z</time></trkpt>
<trkpt lat="43.826115" lon="5.447730"><ele>879.3</ele><time>2011-01-14T10:16:17Z</time></trkpt>
<trkpt lat="43.826065" lon="5.447630"><ele>880.2</ele><time>2011-01-14T10:16:22Z</time></trkpt>
<trkpt lat="43.826003" lon="5.447547"><ele>881</ele><time>2011-01-14T10:16:27Z</time></trkpt>
<trkpt lat="43.825940" lon="5.447470"><ele>881.8</ele><time>2011-01-14T10:16:32Z</time></trkpt>
<trkpt lat="43.825867" lon="5.447422"><ele>882.5</ele><time>2011-01-14T10:16:37Z</time></trkpt>
<trkpt lat="43.825802" lon="5.447348"><ele>883.3</ele><time>2011-01-14T10:16:42Z</time></trkpt>
<trkpt lat="43.825730" lon="5.447278"><ele>884.1</ele><time>2011-01-14T10:16:47Z</time></trkpt>
<trkpt lat="43.825665" lon="5.447205"><ele>884.9</ele><time>2011-01-14T10:16:52Z</time></trkpt>
<trkpt lat="43.825597" lon="5.447127"><ele>885.7</ele><time>2011-01-14T10:16:57Z</time></trkpt>
<trkpt lat="43.825532" lon="5.447047"><ele>886.5</ele><time>2011-01-14T10:17:02Z</time></trkpt>
<trkpt lat="43.825467" lon="5.446972"><ele>887.3</ele><time>2011-01-14T10:17:07Z</time></trkpt>
<trkpt lat="43.825408" lon="5.446893"><ele>888</ele><time>2011-01-14T10:17:12Z</time></trkpt>
<trkpt lat="43.825348" lon="5.446815"><ele>888.9</ele><time>2011-01-14T10:17:17Z</time></trkpt>
<trkpt lat="43.825275" lon="5.446757"><ele>889.9</ele><time>2011-01-14T10:17:22Z</time></trkpt>
<trkpt lat="43.825195" lon="5.446715"><ele>890.8</ele><time>2011-01-14T10:17:27Z</time></trkpt>
<trkpt lat="43.825112" lon="5.446700"><ele>891.7</ele><time>2011-01-14T10:17:32Z</time></trkpt>
<trkpt lat="43.825027" lon="5.446717"><ele>892.3</ele><time>2011-01-14T10:17:37Z</time></trkpt>
<trkpt lat="43.824947" lon="5.446755"><ele>893</ele><time>2011-01-14T10:17:42Z</time></trkpt>
<trkpt lat="43.824872" lon="5.446805"><ele>893.7</ele><time>2011-01-14T10:17:47Z</time></trkpt>
<trkpt lat="43.824798" lon="5.446872"><ele>894.5</ele><time>2011-01-14T10:17:52Z</time></trkpt>
<trkpt lat="43.824745" lon="5.446958"><ele>895.1</ele><time>2011-01-14T10:17:57Z</time></trkpt>
<trkpt lat="43.824677" lon="5.447037"><ele>895.8</ele><time>2011-01-14T10:18:02Z</time></trkpt>
<trkpt lat="43.824603" lon="5.447113"><ele>896.5</ele><time>2011-01-14T10:18:07Z</time></trkpt>
<trkpt lat="43.824535" lon="5.447183"><ele>897.1</ele><time>2011-01-14T10:18:12Z</time></trkpt>
<trkpt lat="43.824463" lon="5.447252"><ele>897.8</ele><time>2011-01-14T10:18:17Z</time></trkpt>
<trkpt lat="43.824395" lon="5.447322"><ele>898.5</ele><time>2011-01-14T10:18:22Z</time></trkpt>
<trkpt lat="43.824322" lon="5.447388"><ele>899.3</ele><time>2011-01-14T10:18:27Z</time></trkpt>
<trkpt lat="43.824250" lon="5.447457"><ele>900</ele><time>2011-01-14T10:18:32Z</time></trkpt>
<trkpt lat="43.824168" lon="5.447515"><ele>900.8</ele><time>2011-01-14T10:18:37Z</time></trkpt>
<trkpt lat="43.824097" lon="5.447583"><ele>901.7</ele><time>2011-01-14T10:18:42Z</time></trkpt>
<trkpt lat="43.824020" lon="5.447647"><ele>902.4</ele><time>2011-01-14T10:18:47Z</time></trkpt>
<trkpt lat="43.823943" lon="5.447702"><ele>903.1</ele><time>2011-01-14T10:18:52Z</time></trkpt>
<trkpt lat="43.823868" lon="5.447758"><ele>903.9</ele><time>2011-01-14T10:18:57Z</time></trkpt>
<trkpt lat="43.823788" lon="5.447808"><ele>904.5</ele><time>2011-01-14T10:19:02Z</time></trkpt>
<trkpt lat="43.823703" lon="5.447848"><ele>905.4</ele><time>2011-01-14T10:19:07Z</time></trkpt>
<trkpt lat="43.823620" lon="5.447895"><ele>906.2</ele><time>2011-01-14T10:19:12Z</time></trkpt>
<trkpt lat="43.823543" lon="5.447943"><ele>907</ele><time>2011-01-14T10:19:17Z</time></trkpt>
<trkpt lat="43.823467" lon="5.448000"><ele>907.9</ele><time>2011-01-14T10:19:22Z</time></trkpt>
<trkpt lat="43.823387" lon="5.448058"><ele>908.8</ele><time>2011-01-14T10:19:27Z</time></trkpt>
<trkpt lat="43.823315" lon="5.448118"><ele>909.6</ele><time>2011-01-14T10:19:32Z</time></trkpt>
<trkpt lat="43.823235" lon="5.448167"><ele>910.3</ele><time>2011-01-14T10:19:37Z</time></trkpt>
<trkpt lat="43.823158" lon="5.448222"><ele>911.2</ele><time>2011-01-14T10:19:42Z</time></trkpt>
<trkpt lat="43.823085" lon="5.448280"><ele>912.1</ele><time>2011-01-14T10:19:47Z</time></trkpt>
<trkpt lat="43.823010" lon="5.448335"><ele>913</ele><time>2011-01-14T10:19:52Z</time></trkpt>
<trkpt lat="43.822933" lon="5.448385"><ele>913.8</ele><time>2011-01-14T10:19:57Z</time></trkpt>
<trkpt lat="43.822857" lon="5.448430"><ele>914.8</ele><time>2011-01-14T10:20:02Z</time></trkpt>
<trkpt lat="43.822777" lon="5.448475"><ele>915.8</ele><time>2011-01-14T10:20:07Z</time></trkpt>
<trkpt lat="43.822705" lon="5.448513"><ele>916.6</ele><time>2011-01-14T10:20:12Z</time></trkpt>
<trkpt lat="43.822625" lon="5.448555"><ele>917.6</ele><time>2011-01-14T10:20:17Z</time></trkpt>
<trkpt lat="43.822540" lon="5.448590"><ele>918.5</ele><time>2011-01-14T10:20:22Z</time></trkpt>
<trkpt lat="43.822457" lon="5.448608"><ele>919.4</ele><time>2011-01-14T10:20:27Z</time></trkpt>
<trkpt lat="43.822377" lon="5.448627"><ele>920.3</ele><time>2011-01-14T10:20:32Z</time></trkpt>
<trkpt lat="43.822288" lon="5.448632"><ele>921.2</ele><time>2011-01-14T10:20:37Z</time></trkpt>
<trkpt lat="43.822205" lon="5.448633"><ele>922.1</ele><time>2011-01-14T10:20:42Z</time></trkpt>
<trkpt lat="43.822117" lon="5.448618"><ele>923.1</ele><time>2011-01-14T10:20:47Z</time></trkpt>
<trkpt lat="43.822025" lon="5.448613"><ele>924.1</ele><time>2011-01-14T10:20:52Z</time></trkpt>
<trkpt lat="43.821938" lon="5.448622"><ele>924.7</ele><time>2011-01-14T10:20:57Z</time></trkpt>
<trkpt lat="43.821853" lon="5.448643"><ele>925.4</ele><time>2011-01-14T10:21:02Z</time></trkpt>
<trkpt lat="43.821767" lon="5.448668"><ele>926.2</ele><time>2011-01-14T10:21:07Z</time></trkpt>
<trkpt lat="43.821682" lon="5.448705"><ele>927.1</ele><time>2011-01-14T10:21:12Z</time></trkpt>
<trkpt lat="43.821613" lon="5.448763"><ele>927.8</ele><time>2011-01-14T10:21:17Z</time></trkpt>
<trkpt lat="43.821533" lon="5.448802"><ele>928.4</ele><time>2011-01-14T10:21:22Z</time></trkpt>
<trkpt lat="43.821453" lon="5.448843"><ele>929.1</ele><time>2011-01-14T10:21:27Z</time></trkpt>
<trkpt lat="43.821373" lon="5.448882"><ele>929.9</ele><time>2011-01-14T10:21:32Z</time></trkpt>
<trkpt lat="43.821288" lon="5.448917"><ele>930.7</ele><time>2011-01-14T10:21:37Z</time></trkpt>
<trkpt lat="43.821205" lon="5.448953"><ele>931.4</ele><time>2011-01-14T10:21:42Z</time></trkpt>
<trkpt lat="43.821125" lon="5.448987"><ele>932.1</ele><time>2011-01-14T10:21:47Z</time></trkpt>
<trkpt lat="43.821042" lon="5.449023"><ele>933</ele><time>2011-01-14T10:21:52Z</time></trkpt>
<trkpt lat="43.820953" lon="5.449058"><ele>933.6</ele><time>2011-01-14T10:21:57Z</time></trkpt>
<trkpt lat="43.820873" lon="5.449090"><ele>934.3</ele><time>2011-01-14T10:22:02Z</time></trkpt>
<trkpt lat="43.820790" lon="5.449117"><ele>935.1</ele><time>2011-01-14T10:22:07Z</time></trkpt>
<trkpt lat="43.820705" lon="5.449138"><ele>936</ele><time>2011-01-14T10:22:12Z</time></trkpt>
<trkpt lat="43.820622" lon="5.449163"><ele>936.7</ele><time>2011-01-14T10:22:17Z</time></trkpt>
<trkpt lat="43.820538" lon="5.449180"><ele>937.7</ele><time>2011-01-14T10:22:22Z</time></trkpt>
<trkpt lat="43.820453" lon="5.449190"><ele>938.5</ele><time>2011-01-14T10:22:27Z</time></trkpt>
<trkpt lat="43.820362" lon="5.449193"><ele>939.3</ele><time>2011-01-14T10:22:32Z</time></trkpt>
<trkpt lat="43.820275" lon="5.449200"><ele>940.1</ele><time>2011-01-14T10:22:37Z</time></trkpt>
<trkpt lat="43.820190" lon="5.449205"><ele>940.8</ele><time>2011-01-14T10:22:42Z</time></trkpt>
<trkpt lat="43.820095" lon="5.449210"><ele>941.5</ele><time>2011-01-14T10:22:47Z</time></trkpt>
<trkpt lat="43.820000" lon="5.449218"><ele>942.3</ele><time>2011-01-14T10:22:52Z</time></trkpt>
<trkpt lat="43.819908" lon="5.449222"><ele>942.9</ele><time>2011-01-14T10:22:57Z</time></trkpt>
<trkpt lat="43.819820" lon="5.449220"><ele>943.5</ele><time>2011-01-14T10:23:02Z</time></trkpt>
<trkpt lat="43.819728" lon="5.449210"><ele>944.3</ele><time>2011-01-14T10:23:07Z</time></trkpt>
<trkpt lat="43.819642" lon="5.449178"><ele>945.1</ele><time>2011-01-14T10:23:12Z</time></trkpt>
<trkpt lat="43.819545" lon="5.449140"><ele>946.1</ele><time>2011-01-14T10:23:17Z</time></trkpt>
<trkpt lat="43.819465" lon="5.449085"><ele>946.9</ele><time>2011-01-14T10:23:22Z</time></trkpt>
<trkpt lat="43.819382" lon="5.449018"><ele>947.7</ele><time>2011-01-14T10:23:27Z</time></trkpt>
<trkpt lat="43.819298" lon="5.448958"><ele>948.4</ele><time>2011-01-14T10:23:32Z</time></trkpt>
<trkpt lat="43.819210" lon="5.448897"><ele>949.2</ele><time>2011-01-14T10:23:37Z</time></trkpt>
<trkpt lat="43.819118" lon="5.448842"><ele>949.9</ele><time>2011-01-14T10:23:42Z</time></trkpt>
<trkpt lat="43.819035" lon="5.448785"><ele>950.9</ele><time>2011-01-14T10:23:47Z</time></trkpt>
<trkpt lat="43.818950" lon="5.448730"><ele>951.9</ele><time>2011-01-14T10:23:52Z</time></trkpt>
<trkpt lat="43.818863" lon="5.448670"><ele>953</ele><time>2011-01-14T10:23:57Z</time></trkpt>
<trkpt lat="43.818778" lon="5.448608"><ele>953.9</ele><time>2011-01-14T10:24:02Z</time></trkpt>
<trkpt lat="43.818695" lon="5.448548"><ele>954.8</ele><time>2011-01-14T10:24:07Z</time></trkpt>
<trkpt lat="43.818600" lon="5.448492"><ele>955.5</ele><time>2011-01-14T10:24:12Z</time></trkpt>
<trkpt lat="43.818500" lon="5.448460"><ele>956</ele><time>2011-01-14T10:24:17Z</time></trkpt>
<trkpt lat="43.818413" lon="5.448458"><ele>956.1</ele><time>2011-01-14T10:24:22Z</time></trkpt>
<trkpt lat="43.818405" lon="5.448477"><ele>956</ele><time>2011-01-14T10:24:27Z</time></trkpt>
<trkpt lat="43.818413" lon="5.448488"><ele>956.1</ele><time>2011-01-14T10:24:32Z</time></trkpt>
<trkpt lat="43.818452" lon="5.448452"><ele>956.3</ele><time>2011-01-14T10:24:37Z</time></trkpt>
<trkpt lat="43.818470" lon="5.448398"><ele>956.5</ele><time>2011-01-14T10:24:42Z</time></trkpt>
<trkpt lat="43.818505" lon="5.448372"><ele>956.7</ele><time>2011-01-14T10:24:47Z</time></trkpt>
<trkpt lat="43.818542" lon="5.448360"><ele>956.6</ele><time>2011-01-14T10:24:52Z</time></trkpt>
<trkpt lat="43.818577" lon="5.448348"><ele>956.6</ele><time>2011-01-14T10:24:57Z</time></trkpt>
<trkpt lat="43.818615" lon="5.448327"><ele>956.6</ele><time>2011-01-14T10:25:02Z</time></trkpt>
<trkpt lat="43.818623" lon="5.448292"><ele>956.8</ele><time>2011-01-14T10:25:07Z</time></trkpt>
<trkpt lat="43.818592" lon="5.448313"><ele>956.8</ele><time>2011-01-14T10:25:12Z</time></trkpt>
<trkpt lat="43.818542" lon="5.448358"><ele>957.2</ele><time>2011-01-14T10:25:17Z</time></trkpt>
<trkpt lat="43.818488" lon="5.448390"><ele>957.3</ele><time>2011-01-14T10:25:22Z</time></trkpt>
<trkpt lat="43.818440" lon="5.448420"><ele>957.5</ele><time>2011-01-14T10:25:27Z</time></trkpt>
<trkpt lat="43.818413" lon="5.448457"><ele>957.6</ele><time>2011-01-14T10:25:32Z</time></trkpt>
<trkpt lat="43.818413" lon="5.448463"><ele>957.5</ele><time>2011-01-14T10:25:37Z</time></trkpt>
<trkpt lat="43.818408" lon="5.448465"><ele>957.4</ele><time>2011-01-14T10:25:42Z</time></trkpt>
<trkpt lat="43.818413" lon="5.448465"><ele>957.5</ele><time>2011-01-14T10:25:47Z</time></trkpt>
<trkpt lat="43.818417" lon="5.448467"><ele>957.5</ele><time>2011-01-14T10:25:52Z</time></trkpt>
<trkpt lat="43.818417" lon="5.448467"><ele>957.6</ele><time>2011-01-14T10:25:57Z</time></trkpt>
<trkpt lat="43.818417" lon="5.448467"><ele>957.6</ele><time>2011-01-14T10:26:02Z</time></trkpt>
<trkpt lat="43.818417" lon="5.448468"><ele>957.6</ele><time>2011-01-14T10:26:07Z</time></trkpt>
<trkpt lat="43.818417" lon="5.448468"><ele>957.6</ele><time>2011-01-14T10:26:12Z</time></trkpt>
<trkpt lat="43.818420" lon="5.448468"><ele>957.6</ele><time>2011-01-14T10:26:17Z</time></trkpt>
<trkpt lat="43.818420" lon="5.448468"><ele>957.7</ele><time>2011-01-14T10:26:22Z</time></trkpt>
<trkpt lat="43.818420" lon="5.448468"><ele>957.7</ele><time>2011-01-14T10:26:27Z</time></trkpt>
<trkpt lat="43.818420" lon="5.448468"><ele>957.7</ele><time>2011-01-14T10:26:32Z</time></trkpt>
<trkpt lat="43.818425" lon="5.448478"><ele>957.9</ele><time>2011-01-14T10:26:37Z</time></trkpt>
<trkpt lat="43.818432" lon="5.448480"><ele>958</ele><time>2011-01-14T10:26:42Z</time></trkpt>
<trkpt lat="43.818432" lon="5.448480"><ele>958.1</ele><time>2011-01-14T10:26:47Z</time></trkpt>
<trkpt lat="43.818432" lon="5.448480"><ele>958.1</ele><time>2011-01-14T10:26:52Z</time></trkpt>
<trkpt lat="43.818432" lon="5.448480"><ele>958.1</ele><time>2011-01-14T10:26:57Z</time></trkpt>
<trkpt lat="43.818425" lon="5.448478"><ele>958.2</ele><time>2011-01-14T10:27:02Z</time></trkpt>
<trkpt lat="43.818425" lon="5.448475"><ele>958.2</ele><time>2011-01-14T10:27:07Z</time></trkpt>
<trkpt lat="43.818425" lon="5.448475"><ele>958.1</ele><time>2011-01-14T10:27:12Z</time></trkpt>
<trkpt lat="43.818420" lon="5.448478"><ele>958.1</ele><time>2011-01-14T10:27:17Z</time></trkpt>
<trkpt lat="43.818420" lon="5.448478"><ele>958.1</ele><time>2011-01-14T10:27:22Z</time></trkpt>
<trkpt lat="43.818417" lon="5.448477"><ele>958.5</ele><time>2011-01-14T10:27:27Z</time></trkpt>
<trkpt lat="43.818420" lon="5.448477"><ele>958.7</ele><time>2011-01-14T10:27:32Z</time></trkpt>
<trkpt lat="43.818420" lon="5.448480"><ele>959</ele><time>2011-01-14T10:27:37Z</time></trkpt>
<trkpt lat="43.818420" lon="5.448477"><ele>959.2</ele><time>2011-01-14T10:27:42Z</time></trkpt>
<trkpt lat="43.818420" lon="5.448475"><ele>959.3</ele><time>2011-01-14T10:27:47Z</time></trkpt>
<trkpt lat="43.818417" lon="5.448477"><ele>959.2</ele><time>2011-01-14T10:27:52Z</time></trkpt>
<trkpt lat="43.818417" lon="5.448477"><ele>959.3</ele><time>2011-01-14T10:27:57Z</time></trkpt>
<trkpt lat="43.818432" lon="5.448480"><ele>959.5</ele><time>2011-01-14T10:28:02Z</time></trkpt>
<trkpt lat="43.818467" lon="5.448477"><ele>959.9</ele><time>2011-01-14T10:28:07Z</time></trkpt>
<trkpt lat="43.818493" lon="5.448532"><ele>959.9</ele><time>2011-01-14T10:28:12Z</time></trkpt>
<trkpt lat="43.818462" lon="5.448625"><ele>960.1</ele><time>2011-01-14T10:28:17Z</time></trkpt>
<trkpt lat="43.818443" lon="5.448748"><ele>960.4</ele><time>2011-01-14T10:28:22Z</time></trkpt>
<trkpt lat="43.818425" lon="5.448875"><ele>960.7</ele><time>2011-01-14T10:28:27Z</time></trkpt>
<trkpt lat="43.818390" lon="5.449007"><ele>961.1</ele><time>2011-01-14T10:28:32Z</time></trkpt>
<trkpt lat="43.818360" lon="5.449137"><ele>961.8</ele><time>2011-01-14T10:28:37Z</time></trkpt>
<trkpt lat="43.818333" lon="5.449270"><ele>962.4</ele><time>2011-01-14T10:28:42Z</time></trkpt>
<trkpt lat="43.818295" lon="5.449397"><ele>962.9</ele><time>2011-01-14T10:28:47Z</time></trkpt>
<trkpt lat="43.818253" lon="5.449527"><ele>963.4</ele><time>2011-01-14T10:28:52Z</time></trkpt>
<trkpt lat="43.818198" lon="5.449640"><ele>963.8</ele><time>2011-01-14T10:28:57Z</time></trkpt>
<trkpt lat="43.818168" lon="5.449780"><ele>964.2</ele><time>2011-01-14T10:29:02Z</time></trkpt>
<trkpt lat="43.818162" lon="5.449935"><ele>964.7</ele><time>2011-01-14T10:29:07Z</time></trkpt>
<trkpt lat="43.818188" lon="5.450088"><ele>965.2</ele><time>2011-01-14T10:29:12Z</time></trkpt>
<trkpt lat="43.818245" lon="5.450217"><ele>965.9</ele><time>2011-01-14T10:29:17Z</time></trkpt>
<trkpt lat="43.818322" lon="5.450327"><ele>966.7</ele><time>2011-01-14T10:29:22Z</time></trkpt>
<trkpt lat="43.818413" lon="5.450407"><ele>967.5</ele><time>2011-01-14T10:29:27Z</time></trkpt>
<trkpt lat="43.818505" lon="5.450488"><ele>968.2</ele><time>2011-01-14T10:29:32Z</time></trkpt>
<trkpt lat="43.818585" lon="5.450592"><ele>969</ele><time>2011-01-14T10:29:37Z</time></trkpt>
<trkpt lat="43.818657" lon="5.450702"><ele>969.7</ele><time>2011-01-14T10:29:42Z</time></trkpt>
<trkpt lat="43.818725" lon="5.450822"><ele>970.4</ele><time>2011-01-14T10:29:47Z</time></trkpt>
<trkpt lat="43.818790" lon="5.450948"><ele>971</ele><time>2011-01-14T10:29:52Z</time></trkpt>
<trkpt lat="43.818843" lon="5.451087"><ele>971.5</ele><time>2011-01-14T10:29:57Z</time></trkpt>
<trkpt lat="43.818893" lon="5.451227"><ele>972.1</ele><time>2011-01-14T10:30:02Z</time></trkpt>
<trkpt lat="43.818940" lon="5.451370"><ele>972.7</ele><time>2011-01-14T10:30:07Z</time></trkpt>
<trkpt lat="43.818982" lon="5.451518"><ele>973.2</ele><time>2011-01-14T10:30:12Z</time></trkpt>
<trkpt lat="43.819015" lon="5.451668"><ele>973.7</ele><time>2011-01-14T10:30:17Z</time></trkpt>
<trkpt lat="43.819050" lon="5.451818"><ele>974.3</ele><time>2011-01-14T10:30:22Z</time></trkpt>
<trkpt lat="43.819077" lon="5.451963"><ele>975</ele><time>2011-01-14T10:30:27Z</time></trkpt>
<trkpt lat="43.819092" lon="5.452117"><ele>975.6</ele><time>2011-01-14T10:30:32Z</time></trkpt>
<trkpt lat="43.819095" lon="5.452275"><ele>976.1</ele><time>2011-01-14T10:30:37Z</time></trkpt>
<trkpt lat="43.819085" lon="5.452435"><ele>976.6</ele><time>2011-01-14T10:30:42Z</time></trkpt>
<trkpt lat="43.819103" lon="5.452602"><ele>977.1</ele><time>2011-01-14T10:30:47Z</time></trkpt>
<trkpt lat="43.819118" lon="5.452762"><ele>977.5</ele><time>2011-01-14T10:30:52Z</time></trkpt>
<trkpt lat="43.819142" lon="5.452917"><ele>978</ele><time>2011-01-14T10:30:57Z</time></trkpt>
<trkpt lat="43.819172" lon="5.453067"><ele>978.5</ele><time>2011-01-14T10:31:02Z</time></trkpt>
<trkpt lat="43.819202" lon="5.453215"><ele>979.2</ele><time>2011-01-14T10:31:07Z</time></trkpt>
<trkpt lat="43.819252" lon="5.453362"><ele>979.6</ele><time>2011-01-14T10:31:12Z</time></trkpt>
<trkpt lat="43.819325" lon="5.453502"><ele>980.1</ele><time>2011-01-14T10:31:17Z</time></trkpt>
<trkpt lat="43.819367" lon="5.453662"><ele>980.5</ele><time>2011-01-14T10:31:22Z</time></trkpt>
<trkpt lat="43.819390" lon="5.453818"><ele>980.9</ele><time>2011-01-14T10:31:27Z</time></trkpt>
<trkpt lat="43.819382" lon="5.453972"><ele>981.3</ele><time>2011-01-14T10:31:32Z</time></trkpt>
<trkpt lat="43.819397" lon="5.454132"><ele>981.9</ele><time>2011-01-14T10:31:37Z</time></trkpt>
<trkpt lat="43.819432" lon="5.454285"><ele>982.3</ele><time>2011-01-14T10:31:42Z</time></trkpt>
<trkpt lat="43.819477" lon="5.454430"><ele>982.8</ele><time>2011-01-14T10:31:47Z</time></trkpt>
<trkpt lat="43.819497" lon="5.454590"><ele>983.3</ele><time>2011-01-14T10:31:52Z</time></trkpt>
<trkpt lat="43.819492" lon="5.454743"><ele>983.7</ele><time>2011-01-14T10:31:57Z</time></trkpt>
<trkpt lat="43.819482" lon="5.454892"><ele>984.3</ele><time>2011-01-14T10:32:02Z</time></trkpt>
<trkpt lat="43.819473" lon="5.455037"><ele>985.1</ele><time>2011-01-14T10:32:07Z</time></trkpt>
<trkpt lat="43.819423" lon="5.455147"><ele>985.7</ele><time>2011-01-14T10:32:12Z</time></trkpt>
<trkpt lat="43.819412" lon="5.455283"><ele>986.5</ele><time>2011-01-14T10:32:17Z</time></trkpt>
<trkpt lat="43.819420" lon="5.455430"><ele>987.2</ele><time>2011-01-14T10:32:22Z</time></trkpt>
<trkpt lat="43.819417" lon="5.455580"><ele>988</ele><time>2011-01-14T10:32:27Z</time></trkpt>
<trkpt lat="43.819412" lon="5.455725"><ele>989</ele><time>2011-01-14T10:32:32Z</time></trkpt>
<trkpt lat="43.819427" lon="5.455867"><ele>989.8</ele><time>2011-01-14T10:32:37Z</time></trkpt>
<trkpt lat="43.819458" lon="5.456003"><ele>990.5</ele><time>2011-01-14T10:32:42Z</time></trkpt>
<trkpt lat="43.819508" lon="5.456128"><ele>991.2</ele><time>2011-01-14T10:32:47Z</time></trkpt>
<trkpt lat="43.819550" lon="5.456257"><ele>992</ele><time>2011-01-14T10:32:52Z</time></trkpt>
<trkpt lat="43.819572" lon="5.456398"><ele>993</ele><time>2011-01-14T10:32:57Z</time></trkpt>
<trkpt lat="43.819588" lon="5.456535"><ele>993.9</ele><time>2011-01-14T10:33:02Z</time></trkpt>
<trkpt lat="43.819583" lon="5.456677"><ele>994.6</ele><time>2011-01-14T10:33:07Z</time></trkpt>
<trkpt lat="43.819572" lon="5.456815"><ele>995.4</ele><time>2011-01-14T10:33:12Z</time></trkpt>
<trkpt lat="43.819530" lon="5.456945"><ele>996.2</ele><time>2011-01-14T10:33:17Z</time></trkpt>
<trkpt lat="43.819465" lon="5.457043"><ele>996.8</ele><time>2011-01-14T10:33:22Z</time></trkpt>
<trkpt lat="43.819420" lon="5.457157"><ele>997.6</ele><time>2011-01-14T10:33:27Z</time></trkpt>
<trkpt lat="43.819382" lon="5.457265"><ele>998.2</ele><time>2011-01-14T10:33:32Z</time></trkpt>
<trkpt lat="43.819340" lon="5.457368"><ele>998.9</ele><time>2011-01-14T10:33:37Z</time></trkpt>
<trkpt lat="43.819302" lon="5.457477"><ele>999.6</ele><time>2011-01-14T10:33:42Z</time></trkpt>
<trkpt lat="43.819272" lon="5.457590"><ele>1000.4</ele><time>2011-01-14T10:33:47Z</time></trkpt>
<trkpt lat="43.819248" lon="5.457710"><ele>1001.2</ele><time>2011-01-14T10:33:52Z</time></trkpt>
<trkpt lat="43.819202" lon="5.457818"><ele>1001.7</ele><time>2011-01-14T10:33:57Z</time></trkpt>
<trkpt lat="43.819157" lon="5.457922"><ele>1002.5</ele><time>2011-01-14T10:34:02Z</time></trkpt>
<trkpt lat="43.819103" lon="5.457987"><ele>1002.9</ele><time>2011-01-14T10:34:07Z</time></trkpt>
<trkpt lat="43.819050" lon="5.458067"><ele>1003.6</ele><time>2011-01-14T10:34:12Z</time></trkpt>
<trkpt lat="43.819003" lon="5.458173"><ele>1004.2</ele><time>2011-01-14T10:34:17Z</time></trkpt>
<trkpt lat="43.818962" lon="5.458295"><ele>1004.8</ele><time>2011-01-14T10:34:22Z</time></trkpt>
<trkpt lat="43.818940" lon="5.458442"><ele>1005.2</ele><time>2011-01-14T10:34:27Z</time></trkpt>
<trkpt lat="43.818928" lon="5.458605"><ele>1005.6</ele><time>2011-01-14T10:34:32Z</time></trkpt>
<trkpt lat="43.818935" lon="5.458760"><ele>1006</ele><time>2011-01-14T10:34:37Z</time></trkpt>
<trkpt lat="43.818940" lon="5.458912"><ele>1006.5</ele><time>2011-01-14T10:34:42Z</time></trkpt>
<trkpt lat="43.818950" lon="5.459068"><ele>1007.2</ele><time>2011-01-14T10:34:47Z</time></trkpt>
<trkpt lat="43.818973" lon="5.459227"><ele>1007.7</ele><time>2011-01-14T10:34:52Z</time></trkpt>
<trkpt lat="43.819000" lon="5.459380"><ele>1008.3</ele><time>2011-01-14T10:34:57Z</time></trkpt>
<trkpt lat="43.819038" lon="5.459537"><ele>1008.9</ele><time>2011-01-14T10:35:02Z</time></trkpt>
<trkpt lat="43.819085" lon="5.459688"><ele>1009.3</ele><time>2011-01-14T10:35:07Z</time></trkpt>
<trkpt lat="43.819157" lon="5.459833"><ele>1009.6</ele><time>2011-01-14T10:35:12Z</time></trkpt>
<trkpt lat="43.819180" lon="5.459980"><ele>1009.7</ele><time>2011-01-14T10:35:17Z</time></trkpt>
<trkpt lat="43.819248" lon="5.460133"><ele>1009.8</ele><time>2011-01-14T10:35:22Z</time></trkpt>
<trkpt lat="43.819320" lon="5.460313"><ele>1009.9</ele><time>2011-01-14T10:35:27Z</time></trkpt>
<trkpt lat="43.819382" lon="5.460497"><ele>1009.8</ele><time>2011-01-14T10:35:32Z</time></trkpt>
<trkpt lat="43.819412" lon="5.460663"><ele>1009.8</ele><time>2011-01-14T10:35:37Z</time></trkpt>
<trkpt lat="43.819470" lon="5.460833"><ele>1009.8</ele><time>2011-01-14T10:35:42Z</time></trkpt>
<trkpt lat="43.819508" lon="5.461010"><ele>1009.6</ele><time>2011-01-14T10:35:47Z</time></trkpt>
<trkpt lat="43.819485" lon="5.461175"><ele>1010</ele><time>2011-01-14T10:35:52Z</time></trkpt>
<trkpt lat="43.819470" lon="5.461335"><ele>1010.6</ele><time>2011-01-14T10:35:57Z</time></trkpt>
<trkpt lat="43.819488" lon="5.461485"><ele>1011.4</ele><time>2011-01-14T10:36:02Z</time></trkpt>
<trkpt lat="43.819500" lon="5.461612"><ele>1012.5</ele><time>2011-01-14T10:36:07Z</time></trkpt>
<trkpt lat="43.819508" lon="5.461735"><ele>1013.6</ele><time>2011-01-14T10:36:12Z</time></trkpt>
<trkpt lat="43.819527" lon="5.461845"><ele>1015</ele><time>2011-01-14T10:36:17Z</time></trkpt>
<trkpt lat="43.819553" lon="5.461963"><ele>1016</ele><time>2011-01-14T10:36:22Z</time></trkpt>
<trkpt lat="43.819580" lon="5.462077"><ele>1017</ele><time>2011-01-14T10:36:27Z</time></trkpt>
<trkpt lat="43.819615" lon="5.462187"><ele>1017.8</ele><time>2011-01-14T10:36:32Z</time></trkpt>
<trkpt lat="43.819653" lon="5.462292"><ele>1018.5</ele><time>2011-01-14T10:36:37Z</time></trkpt>
<trkpt lat="43.819690" lon="5.462392"><ele>1019.1</ele><time>2011-01-14T10:36:42Z</time></trkpt>
<trkpt lat="43.819737" lon="5.462477"><ele>1020.1</ele><time>2011-01-14T10:36:47Z</time></trkpt>
<trkpt lat="43.819775" lon="5.462575"><ele>1020.9</ele><time>2011-01-14T10:36:52Z</time></trkpt>
<trkpt lat="43.819817" lon="5.462680"><ele>1021.6</ele><time>2011-01-14T10:36:57Z</time></trkpt>
<trkpt lat="43.819855" lon="5.462792"><ele>1022.3</ele><time>2011-01-14T10:37:02Z</time></trkpt>
<trkpt lat="43.819885" lon="5.462902"><ele>1023.4</ele><time>2011-01-14T10:37:07Z</time></trkpt>
<trkpt lat="43.819900" lon="5.463010"><ele>1024.5</ele><time>2011-01-14T10:37:12Z</time></trkpt>
<trkpt lat="43.819900" lon="5.463117"><ele>1025.3</ele><time>2011-01-14T10:37:17Z</time></trkpt>
<trkpt lat="43.819900" lon="5.463237"><ele>1025.3</ele><time>2011-01-14T10:37:22Z</time></trkpt>
<trkpt lat="43.819900" lon="5.463360"><ele>1026.1</ele><time>2011-01-14T10:37:27Z</time></trkpt>
<trkpt lat="43.819885" lon="5.463483"><ele>1026.9</ele><time>2011-01-14T10:37:32Z</time></trkpt>
<trkpt lat="43.819867" lon="5.463600"><ele>1028.1</ele><time>2011-01-14T10:37:37Z</time></trkpt>
<trkpt lat="43.819820" lon="5.463722"><ele>1028.3</ele><time>2011-01-14T10:37:42Z</time></trkpt>
<trkpt lat="43.819790" lon="5.463823"><ele>1029.4</ele><time>2011-01-14T10:37:47Z</time></trkpt>
<trkpt lat="43.819743" lon="5.463912"><ele>1031.6</ele><time>2011-01-14T10:37:52Z</time></trkpt>
<trkpt lat="43.819707" lon="5.464017"><ele>1032</ele><time>2011-01-14T10:37:57Z</time></trkpt>
<trkpt lat="43.819668" lon="5.464123"><ele>1031.8</ele><time>2011-01-14T10:38:02Z</time></trkpt>
<trkpt lat="43.819615" lon="5.464217"><ele>1031.9</ele><time>2011-01-14T10:38:07Z</time></trkpt>
<trkpt lat="43.819568" lon="5.464313"><ele>1031.5</ele><time>2011-01-14T10:38:12Z</time></trkpt>
<trkpt lat="43.819542" lon="5.464407"><ele>1030.4</ele><time>2011-01-14T10:38:17Z</time></trkpt>
<trkpt lat="43.819485" lon="5.464500"><ele>1029.5</ele><time>2011-01-14T10:38:22Z</time></trkpt>
<trkpt lat="43.819462" lon="5.464618"><ele>1028.8</ele><time>2011-01-14T10:38:27Z</time></trkpt>
<trkpt lat="43.819438" lon="5.464733"><ele>1029.1</ele><time>2011-01-14T10:38:32Z</time></trkpt>
<trkpt lat="43.819405" lon="5.464842"><ele>1029.7</ele><time>2011-01-14T10:38:37Z</time></trkpt>
<trkpt lat="43.819382" lon="5.464962"><ele>1030.3</ele><time>2011-01-14T10:38:42Z</time></trkpt>
<trkpt lat="43.819378" lon="5.465087"><ele>1031.1</ele><time>2011-01-14T10:38:47Z</time></trkpt>
<trkpt lat="43.819378" lon="5.465208"><ele>1032.7</ele><time>2011-01-14T10:38:52Z</time></trkpt>
<trkpt lat="43.819400" lon="5.465337"><ele>1034.8</ele><time>2011-01-14T10:38:57Z</time></trkpt>
<trkpt lat="43.819427" lon="5.465462"><ele>1036.8</ele><time>2011-01-14T10:39:02Z</time></trkpt>
<trkpt lat="43.819455" lon="5.465582"><ele>1038.4</ele><time>2011-01-14T10:39:07Z</time></trkpt>
<trkpt lat="43.819497" lon="5.465692"><ele>1040.1</ele><time>2011-01-14T10:39:12Z</time></trkpt>
<trkpt lat="43.819538" lon="5.465800"><ele>1041.4</ele><time>2011-01-14T10:39:17Z</time></trkpt>
<trkpt lat="43.819572" lon="5.465907"><ele>1042.5</ele><time>2011-01-14T10:39:22Z</time></trkpt>
<trkpt lat="43.819610" lon="5.466025"><ele>1042.5</ele><time>2011-01-14T10:39:27Z</time></trkpt>
<trkpt lat="43.819645" lon="5.466123"><ele>1043.3</ele><time>2011-01-14T10:39:32Z</time></trkpt>
<trkpt lat="43.819683" lon="5.466235"><ele>1043.8</ele><time>2011-01-14T10:39:37Z</time></trkpt>
<trkpt lat="43.819707" lon="5.466358"><ele>1043.3</ele><time>2011-01-14T10:39:42Z</time></trkpt>
<trkpt lat="43.819722" lon="5.466470"><ele>1045.7</ele><time>2011-01-14T10:39:47Z</time></trkpt>
<trkpt lat="43.819725" lon="5.466588"><ele>1047</ele><time>2011-01-14T10:39:52Z</time></trkpt>
<trkpt lat="43.819728" lon="5.466703"><ele>1048.7</ele><time>2011-01-14T10:39:57Z</time></trkpt>
<trkpt lat="43.819710" lon="5.466818"><ele>1049.9</ele><time>2011-01-14T10:40:02Z</time></trkpt>
<trkpt lat="43.819668" lon="5.466915"><ele>1052</ele><time>2011-01-14T10:40:07Z</time></trkpt>
<trkpt lat="43.819627" lon="5.467013"><ele>1051.8</ele><time>2011-01-14T10:40:12Z</time></trkpt>
<trkpt lat="43.819572" lon="5.467108"><ele>1052</ele><time>2011-01-14T10:40:17Z</time></trkpt>
<trkpt lat="43.819512" lon="5.467183"><ele>1052.8</ele><time>2011-01-14T10:40:22Z</time></trkpt>
<trkpt lat="43.819455" lon="5.467267"><ele>1053.6</ele><time>2011-01-14T10:40:27Z</time></trkpt>
<trkpt lat="43.819382" lon="5.467338"><ele>1054.2</ele><time>2011-01-14T10:40:32Z</time></trkpt>
<trkpt lat="43.819313" lon="5.467405"><ele>1055.1</ele><time>2011-01-14T10:40:37Z</time></trkpt>
<trkpt lat="43.819252" lon="5.467473"><ele>1056.2</ele><time>2011-01-14T10:40:42Z</time></trkpt>
<trkpt lat="43.819180" lon="5.467530"><ele>1056.8</ele><time>2011-01-14T10:40:47Z</time></trkpt>
<trkpt lat="43.819100" lon="5.467578"><ele>1056.4</ele><time>2011-01-14T10:40:52Z</time></trkpt>
<trkpt lat="43.819027" lon="5.467628"><ele>1057.7</ele><time>2011-01-14T10:40:57Z</time></trkpt>
<trkpt lat="43.818962" lon="5.467678"><ele>1060.5</ele><time>2011-01-14T10:41:02Z</time></trkpt>
<trkpt lat="43.818890" lon="5.467723"><ele>1061.9</ele><time>2011-01-14T10:41:07Z</time></trkpt>
<trkpt lat="43.818813" lon="5.467765"><ele>1063.8</ele><time>2011-01-14T10:41:12Z</time></trkpt>
<trkpt lat="43.818737" lon="5.467803"><ele>1065.2</ele><time>2011-01-14T10:41:17Z</time></trkpt>
<trkpt lat="43.818657" lon="5.467835"><ele>1065.9</ele><time>2011-01-14T10:41:22Z</time></trkpt>
<trkpt lat="43.818573" lon="5.467867"><ele>1066.9</ele><time>2011-01-14T10:41:27Z</time></trkpt>
<trkpt lat="43.818485" lon="5.467882"><ele>1067.2</ele><time>2011-01-14T10:41:32Z</time></trkpt>
<trkpt lat="43.818402" lon="5.467895"><ele>1067.7</ele><time>2011-01-14T10:41:37Z</time></trkpt>
<trkpt lat="43.818313" lon="5.467913"><ele>1068.4</ele><time>2011-01-14T10:41:42Z</time></trkpt>
<trkpt lat="43.818230" lon="5.467922"><ele>1068.8</ele><time>2011-01-14T10:41:47Z</time></trkpt>
<trkpt lat="43.818145" lon="5.467932"><ele>1069.6</ele><time>2011-01-14T10:41:52Z</time></trkpt>
<trkpt lat="43.818070" lon="5.467917"><ele>1070.2</ele><time>2011-01-14T10:41:57Z</time></trkpt>
<trkpt lat="43.817993" lon="5.467927"><ele>1071.9</ele><time>2011-01-14T10:42:02Z</time></trkpt>
<trkpt lat="43.817920" lon="5.467945"><ele>1074.8</ele><time>2011-01-14T10:42:07Z</time></trkpt>
<trkpt lat="43.817852" lon="5.467973"><ele>1077.7</ele><time>2011-01-14T10:42:12Z</time></trkpt>
<trkpt lat="43.817775" lon="5.468002"><ele>1077.6</ele><time>2011-01-14T10:42:17Z</time></trkpt>
<trkpt lat="43.817695" lon="5.468033"><ele>1078.8</ele><time>2011-01-14T10:42:22Z</time></trkpt>
<trkpt lat="43.817627" lon="5.468072"><ele>1081.5</ele><time>2011-01-14T10:42:27Z</time></trkpt>
<trkpt lat="43.817558" lon="5.468112"><ele>1085.9</ele><time>2011-01-14T10:42:32Z</time></trkpt>
<trkpt lat="43.817478" lon="5.468143"><ele>1085.9</ele><time>2011-01-14T10:42:37Z</time></trkpt>
<trkpt lat="43.817390" lon="5.468165"><ele>1084.1</ele><time>2011-01-14T10:42:42Z</time></trkpt>
<trkpt lat="43.817310" lon="5.468190"><ele>1084.1</ele><time>2011-01-14T10:42:47Z</time></trkpt>
<trkpt lat="43.817227" lon="5.468220"><ele>1084.1</ele><time>2011-01-14T10:42:52Z</time></trkpt>
<trkpt lat="43.817158" lon="5.468247"><ele>1086.7</ele><time>2011-01-14T10:42:57Z</time></trkpt>
<trkpt lat="43.817127" lon="5.468312"><ele>1097.3</ele><time>2011-01-14T10:43:02Z</time></trkpt>
<trkpt lat="43.817082" lon="5.468375"><ele>1103.6</ele><time>2011-01-14T10:43:07Z</time></trkpt>
<trkpt lat="43.817013" lon="5.468420"><ele>1104.9</ele><time>2011-01-14T10:43:12Z</time></trkpt>
<trkpt lat="43.816960" lon="5.468473"><ele>1109</ele><time>2011-01-14T10:43:17Z</time></trkpt>
<trkpt lat="43.816883" lon="5.468520"><ele>1108.4</ele><time>2011-01-14T10:43:22Z</time></trkpt>
<trkpt lat="43.816810" lon="5.468568"><ele>1107.9</ele><time>2011-01-14T10:43:27Z</time></trkpt>
<trkpt lat="43.816723" lon="5.468615"><ele>1105.8</ele><time>2011-01-14T10:43:32Z</time></trkpt>
<trkpt lat="43.816635" lon="5.468662"><ele>1102.3</ele><time>2011-01-14T10:43:37Z</time></trkpt>
<trkpt lat="43.816558" lon="5.468715"><ele>1102.2</ele><time>2011-01-14T10:43:42Z</time></trkpt>
<trkpt lat="43.816490" lon="5.468778"><ele>1103.5</ele><time>2011-01-14T10:43:47Z</time></trkpt>
<trkpt lat="43.816418" lon="5.468833"><ele>1107.1</ele><time>2011-01-14T10:43:52Z</time></trkpt>
<trkpt lat="43.816365" lon="5.468903"><ele>1109.9</ele><time>2011-01-14T10:43:57Z</time></trkpt>
<trkpt lat="43.816280" lon="5.468938"><ele>1107.1</ele><time>2011-01-14T10:44:02Z</time></trkpt>
<trkpt lat="43.816188" lon="5.469003"><ele>1104.5</ele><time>2011-01-14T10:44:07Z</time></trkpt>
<trkpt lat="43.816113" lon="5.469048"><ele>1103.8</ele><time>2011-01-14T10:44:12Z</time></trkpt>
<trkpt lat="43.816025" lon="5.469120"><ele>1101.7</ele><time>2011-01-14T10:44:17Z</time></trkpt>
<trkpt lat="43.815937" lon="5.469187"><ele>1101.4</ele><time>2011-01-14T10:44:22Z</time></trkpt>
<trkpt lat="43.815853" lon="5.469260"><ele>1100.4</ele><time>2011-01-14T10:44:27Z</time></trkpt>
<trkpt lat="43.815762" lon="5.469335"><ele>1099.7</ele><time>2011-01-14T10:44:32Z</time></trkpt>
<trkpt lat="43.815670" lon="5.469408"><ele>1098.9</ele><time>2011-01-14T10:44:37Z</time></trkpt>
<trkpt lat="43.815563" lon="5.469470"><ele>1098.3</ele><time>2011-01-14T10:44:42Z</time></trkpt>
<trkpt lat="43.815460" lon="5.469517"><ele>1098.1</ele><time>2011-01-14T10:44:47Z</time></trkpt>
<trkpt lat="43.815365" lon="5.469577"><ele>1097.7</ele><time>2011-01-14T10:44:52Z</time></trkpt>
<trkpt lat="43.815315" lon="5.469513"><ele>1097.3</ele><time>2011-01-14T10:44:57Z</time></trkpt>
<trkpt lat="43.815327" lon="5.469503"><ele>1096.9</ele><time>2011-01-14T10:45:02Z</time></trkpt>
<trkpt lat="43.815327" lon="5.469512"><ele>1097</ele><time>2011-01-14T10:45:07Z</time></trkpt>
<trkpt lat="43.815330" lon="5.469510"><ele>1096.9</ele><time>2011-01-14T10:45:12Z</time></trkpt>
<trkpt lat="43.815330" lon="5.469508"><ele>1096</ele><time>2011-01-14T10:45:17Z</time></trkpt>
<trkpt lat="43.815330" lon="5.469527"><ele>1095.1</ele><time>2011-01-14T10:45:22Z</time></trkpt>
<trkpt lat="43.815323" lon="5.469530"><ele>1094.5</ele><time>2011-01-14T10:45:27Z</time></trkpt>
<trkpt lat="43.815318" lon="5.469527"><ele>1093.8</ele><time>2011-01-14T10:45:32Z</time></trkpt>
<trkpt lat="43.815323" lon="5.469522"><ele>1094.4</ele><time>2011-01-14T10:45:37Z</time></trkpt>
<trkpt lat="43.815318" lon="5.469520"><ele>1094.9</ele><time>2011-01-14T10:45:42Z</time></trkpt>
<trkpt lat="43.815323" lon="5.469523"><ele>1094.6</ele><time>2011-01-14T10:45:47Z</time></trkpt>
<trkpt lat="43.815365" lon="5.469582"><ele>1094.1</ele><time>2011-01-14T10:45:52Z</time></trkpt>
<trkpt lat="43.815430" lon="5.469562"><ele>1094</ele><time>2011-01-14T10:45:57Z</time></trkpt>
<trkpt lat="43.815433" lon="5.469483"><ele>1094.2</ele><time>2011-01-14T10:46:02Z</time></trkpt>
<trkpt lat="43.815383" lon="5.469413"><ele>1094.8</ele><time>2011-01-14T10:46:07Z</time></trkpt>
<trkpt lat="43.815338" lon="5.469342"><ele>1095.4</ele><time>2011-01-14T10:46:12Z</time></trkpt>
<trkpt lat="43.815300" lon="5.469270"><ele>1096</ele><time>2011-01-14T10:46:17Z</time></trkpt>
<trkpt lat="43.815255" lon="5.469203"><ele>1096.6</ele><time>2011-01-14T10:46:22Z</time></trkpt>
<trkpt lat="43.815208" lon="5.469130"><ele>1097.3</ele><time>2011-01-14T10:46:27Z</time></trkpt>
<trkpt lat="43.815155" lon="5.469055"><ele>1098.1</ele><time>2011-01-14T10:46:32Z</time></trkpt>
<trkpt lat="43.815105" lon="5.468990"><ele>1099.4</ele><time>2011-01-14T10:46:37Z</time></trkpt>
<trkpt lat="43.815048" lon="5.468935"><ele>1101.2</ele><time>2011-01-14T10:46:42Z</time></trkpt>
<trkpt lat="43.815002" lon="5.468875"><ele>1103.3</ele><time>2011-01-14T10:46:47Z</time></trkpt>
<trkpt lat="43.814948" lon="5.468820"><ele>1105.4</ele><time>2011-01-14T10:46:52Z</time></trkpt>
<trkpt lat="43.814892" lon="5.468760"><ele>1105.8</ele><time>2011-01-14T10:46:57Z</time></trkpt>
<trkpt lat="43.814842" lon="5.468693"><ele>1106.5</ele><time>2011-01-14T10:47:02Z</time></trkpt>
<trkpt lat="43.814788" lon="5.468630"><ele>1107.6</ele><time>2011-01-14T10:47:07Z</time></trkpt>
<trkpt lat="43.814723" lon="5.468575"><ele>1107.5</ele><time>2011-01-14T10:47:12Z</time></trkpt>
<trkpt lat="43.814670" lon="5.468505"><ele>1107.5</ele><time>2011-01-14T10:47:17Z</time></trkpt>
<trkpt lat="43.814622" lon="5.468430"><ele>1107.6</ele><time>2011-01-14T10:47:22Z</time></trkpt>
<trkpt lat="43.814572" lon="5.468350"><ele>1108</ele><time>2011-01-14T10:47:27Z</time></trkpt>
<trkpt lat="43.814530" lon="5.468265"><ele>1108.3</ele><time>2011-01-14T10:47:32Z</time></trkpt>
<trkpt lat="43.814498" lon="5.468173"><ele>1109.1</ele><time>2011-01-14T10:47:37Z</time></trkpt>
<trkpt lat="43.814468" lon="5.468082"><ele>1110</ele><time>2011-01-14T10:47:42Z</time></trkpt>
<trkpt lat="43.814445" lon="5.467982"><ele>1110.9</ele><time>2011-01-14T10:47:47Z</time></trkpt>
<trkpt lat="43.814427" lon="5.467878"><ele>1111.7</ele><time>2011-01-14T10:47:52Z</time></trkpt>
<trkpt lat="43.814418" lon="5.467787"><ele>1112.4</ele><time>2011-01-14T10:47:57Z</time></trkpt>
<trkpt lat="43.814438" lon="5.467698"><ele>1113.2</ele><time>2011-01-14T10:48:02Z</time></trkpt>
<trkpt lat="43.814453" lon="5.467612"><ele>1114</ele><time>2011-01-14T10:48:07Z</time></trkpt>
<trkpt lat="43.814468" lon="5.467527"><ele>1114.9</ele><time>2011-01-14T10:48:12Z</time></trkpt>
<trkpt lat="43.814498" lon="5.467457"><ele>1115.7</ele><time>2011-01-14T10:48:17Z</time></trkpt>
<trkpt lat="43.814522" lon="5.467388"><ele>1116.5</ele><time>2011-01-14T10:48:22Z</time></trkpt>
<trkpt lat="43.814557" lon="5.467330"><ele>1117.1</ele><time>2011-01-14T10:48:27Z</time></trkpt>
<trkpt lat="43.814602" lon="5.467257"><ele>1117.8</ele><time>2011-01-14T10:48:32Z</time></trkpt>
<trkpt lat="43.814648" lon="5.467183"><ele>1118.5</ele><time>2011-01-14T10:48:37Z</time></trkpt>
<trkpt lat="43.814702" lon="5.467125"><ele>1119.1</ele><time>2011-01-14T10:48:42Z</time></trkpt>
<trkpt lat="43.814762" lon="5.467082"><ele>1119.9</ele><time>2011-01-14T10:48:47Z</time></trkpt>
<trkpt lat="43.814830" lon="5.467047"><ele>1120.7</ele><time>2011-01-14T10:48:52Z</time></trkpt>
<trkpt lat="43.814900" lon="5.467018"><ele>1121.5</ele><time>2011-01-14T10:48:57Z</time></trkpt>
<trkpt lat="43.814965" lon="5.466995"><ele>1122.4</ele><time>2011-01-14T10:49:02Z</time></trkpt>
<trkpt lat="43.815033" lon="5.466977"><ele>1123.2</ele><time>2011-01-14T10:49:07Z</time></trkpt>
<trkpt lat="43.815102" lon="5.466965"><ele>1123.9</ele><time>2011-01-14T10:49:12Z</time></trkpt>
<trkpt lat="43.815173" lon="5.466958"><ele>1124.5</ele><time>2011-01-14T10:49:17Z</time></trkpt>
<trkpt lat="43.815167" lon="5.467048"><ele>1125.3</ele><time>2011-01-14T10:49:22Z</time></trkpt>
<trkpt lat="43.815132" lon="5.467127"><ele>1126.1</ele><time>2011-01-14T10:49:27Z</time></trkpt>
<trkpt lat="43.815110" lon="5.467213"><ele>1126.8</ele><time>2011-01-14T10:49:32Z</time></trkpt>
<trkpt lat="43.815120" lon="5.467305"><ele>1127.8</ele><time>2011-01-14T10:49:37Z</time></trkpt>
<trkpt lat="43.815155" lon="5.467390"><ele>1128.6</ele><time>2011-01-14T10:49:42Z</time></trkpt>
<trkpt lat="43.815178" lon="5.467487"><ele>1129.4</ele><time>2011-01-14T10:49:47Z</time></trkpt>
<trkpt lat="43.815223" lon="5.467553"><ele>1129.7</ele><time>2011-01-14T10:49:52Z</time></trkpt>
<trkpt lat="43.815217" lon="5.467593"><ele>1129.9</ele><time>2011-01-14T10:49:57Z</time></trkpt>
<trkpt lat="43.815212" lon="5.467585"><ele>1130.4</ele><time>2011-01-14T10:50:02Z</time></trkpt>
<trkpt lat="43.815197" lon="5.467602"><ele>1130.6</ele><time>2011-01-14T10:50:07Z</time></trkpt>
<trkpt lat="43.815220" lon="5.467620"><ele>1130.7</ele><time>2011-01-14T10:50:12Z</time></trkpt>
<trkpt lat="43.815247" lon="5.467647"><ele>1131</ele><time>2011-01-14T10:50:17Z</time></trkpt>
<trkpt lat="43.815238" lon="5.467627"><ele>1131.6</ele><time>2011-01-14T10:50:22Z</time></trkpt>
<trkpt lat="43.815205" lon="5.467643"><ele>1132.2</ele><time>2011-01-14T10:50:27Z</time></trkpt>
<trkpt lat="43.815197" lon="5.467658"><ele>1132.4</ele><time>2011-01-14T10:50:32Z</time></trkpt>
<trkpt lat="43.815205" lon="5.467655"><ele>1132.9</ele><time>2011-01-14T10:50:37Z</time></trkpt>
<trkpt lat="43.815190" lon="5.467612"><ele>1133.6</ele><time>2011-01-14T10:50:42Z</time></trkpt>
<trkpt lat="43.815178" lon="5.467580"><ele>1134.1</ele><time>2011-01-14T10:50:47Z</time></trkpt>
<trkpt lat="43.815190" lon="5.467565"><ele>1134.2</ele><time>2011-01-14T10:50:52Z</time></trkpt>
<trkpt lat="43.815190" lon="5.467568"><ele>1134.5</ele><time>2011-01-14T10:50:57Z</time></trkpt>
<trkpt lat="43.815182" lon="5.467568"><ele>1134.9</ele><time>2011-01-14T10:51:02Z</time></trkpt>
<trkpt lat="43.815182" lon="5.467563"><ele>1134.5</ele><time>2011-01-14T10:51:07Z</time></trkpt>
<trkpt lat="43.815185" lon="5.467573"><ele>1134.3</ele><time>2011-01-14T10:51:12Z</time></trkpt>
<trkpt lat="43.815190" lon="5.467572"><ele>1134.3</ele><time>2011-01-14T10:51:17Z</time></trkpt>
<trkpt lat="43.815205" lon="5.467600"><ele>1134.3</ele><time>2011-01-14T10:51:22Z</time></trkpt>
<trkpt lat="43.815205" lon="5.467638"><ele>1134.6</ele><time>2011-01-14T10:51:27Z</time></trkpt>
<trkpt lat="43.815208" lon="5.467660"><ele>1134.2</ele><time>2011-01-14T10:51:32Z</time></trkpt>
<trkpt lat="43.815208" lon="5.467662"><ele>1134.1</ele><time>2011-01-14T10:51:37Z</time></trkpt>
<trkpt lat="43.815208" lon="5.467662"><ele>1134.2</ele><time>2011-01-14T10:51:42Z</time></trkpt>
<trkpt lat="43.815208" lon="5.467657"><ele>1134.2</ele><time>2011-01-14T10:51:47Z</time></trkpt>
<trkpt lat="43.815208" lon="5.467660"><ele>1134.3</ele><time>2011-01-14T10:51:52Z</time></trkpt>
<trkpt lat="43.815228" lon="5.467625"><ele>1134.3</ele><time>2011-01-14T10:51:57Z</time></trkpt>
<trkpt lat="43.815220" lon="5.467597"><ele>1134.5</ele><time>2011-01-14T10:52:02Z</time></trkpt>
<trkpt lat="43.815217" lon="5.467595"><ele>1134.9</ele><time>2011-01-14T10:52:07Z</time></trkpt>
<trkpt lat="43.815208" lon="5.467587"><ele>1135.2</ele><time>2011-01-14T10:52:12Z</time></trkpt>
<trkpt lat="43.815208" lon="5.467588"><ele>1135.2</ele><time>2011-01-14T10:52:17Z</time></trkpt>
<trkpt lat="43.815212" lon="5.467578"><ele>1134.4</ele><time>2011-01-14T10:52:22Z</time></trkpt>
<trkpt lat="43.815212" lon="5.467577"><ele>1133.9</ele><time>2011-01-14T10:52:27Z</time></trkpt>
<trkpt lat="43.815212" lon="5.467575"><ele>1133.3</ele><time>2011-01-14T10:52:32Z</time></trkpt>
<trkpt lat="43.815223" lon="5.467577"><ele>1132.5</ele><time>2011-01-14T10:52:37Z</time></trkpt>
<trkpt lat="43.815223" lon="5.467578"><ele>1132.4</ele><time>2011-01-14T10:52:42Z</time></trkpt>
<trkpt lat="43.815228" lon="5.467578"><ele>1132.4</ele><time>2011-01-14T10:52:47Z</time></trkpt>
<trkpt lat="43.815228" lon="5.467580"><ele>1132.3</ele><time>2011-01-14T10:52:52Z</time></trkpt>
<trkpt lat="43.815223" lon="5.467580"><ele>1132.3</ele><time>2011-01-14T10:52:57Z</time></trkpt>
<trkpt lat="43.815223" lon="5.467580"><ele>1132.3</ele><time>2011-01-14T10:53:02Z</time></trkpt>
<trkpt lat="43.815223" lon="5.467580"><ele>1132.3</ele><time>2011-01-14T10:53:07Z</time></trkpt>
<trkpt lat="43.815228" lon="5.467578"><ele>1132.1</ele><time>2011-01-14T10:53:12Z</time></trkpt>
<trkpt lat="43.815232" lon="5.467578"><ele>1132.1</ele><time>2011-01-14T10:53:17Z</time></trkpt>
<trkpt lat="43.815232" lon="5.467580"><ele>1132.3</ele><time>2011-01-14T10:53:22Z</time></trkpt>
<trkpt lat="43.815235" lon="5.467580"><ele>1132.5</ele><time>2011-01-14T10:53:27Z</time></trkpt>
<trkpt lat="43.815235" lon="5.467582"><ele>1132.8</ele><time>2011-01-14T10:53:32Z</time></trkpt>
<trkpt lat="43.815238" lon="5.467583"><ele>1132.9</ele><time>2011-01-14T10:53:37Z</time></trkpt>
<trkpt lat="43.815238" lon="5.467582"><ele>1132.9</ele><time>2011-01-14T10:53:42Z</time></trkpt>
<trkpt lat="43.815228" lon="5.467573"><ele>1134</ele><time>2011-01-14T10:53:47Z</time></trkpt>
<trkpt lat="43.815228" lon="5.467580"><ele>1133.7</ele><time>2011-01-14T10:53:52Z</time></trkpt>
<trkpt lat="43.815232" lon="5.467583"><ele>1133.3</ele><time>2011-01-14T10:53:57Z</time></trkpt>
<trkpt lat="43.815232" lon="5.467587"><ele>1133</ele><time>2011-01-14T10:54:02Z</time></trkpt>
<trkpt lat="43.815235" lon="5.467583"><ele>1132.7</ele><time>2011-01-14T10:54:07Z</time></trkpt>
<trkpt lat="43.815232" lon="5.467597"><ele>1132.5</ele><time>2011-01-14T10:54:12Z</time></trkpt>
<trkpt lat="43.815223" lon="5.467603"><ele>1132.2</ele><time>2011-01-14T10:54:17Z</time></trkpt>
<trkpt lat="43.815228" lon="5.467605"><ele>1132</ele><time>2011-01-14T10:54:22Z</time></trkpt>
<trkpt lat="43.815228" lon="5.467592"><ele>1132.3</ele><time>2011-01-14T10:54:27Z</time></trkpt>
<trkpt lat="43.815197" lon="5.467580"><ele>1132.1</ele><time>2011-01-14T10:54:32Z</time></trkpt>
<trkpt lat="43.815170" lon="5.467487"><ele>1131.6</ele><time>2011-01-14T10:54:37Z</time></trkpt>
<trkpt lat="43.815170" lon="5.467353"><ele>1130.6</ele><time>2011-01-14T10:54:42Z</time></trkpt>
<trkpt lat="43.815178" lon="5.467210"><ele>1129.2</ele><time>2011-01-14T10:54:47Z</time></trkpt>
<trkpt lat="43.815190" lon="5.467083"><ele>1127.6</ele><time>2011-01-14T10:54:52Z</time></trkpt>
<trkpt lat="43.815140" lon="5.466982"><ele>1125.6</ele><time>2011-01-14T10:54:57Z</time></trkpt>
<trkpt lat="43.815057" lon="5.466978"><ele>1124.8</ele><time>2011-01-14T10:55:02Z</time></trkpt>
<trkpt lat="43.814945" lon="5.467003"><ele>1123.7</ele><time>2011-01-14T10:55:07Z</time></trkpt>
<trkpt lat="43.814823" lon="5.467062"><ele>1122.5</ele><time>2011-01-14T10:55:12Z</time></trkpt>
<trkpt lat="43.814723" lon="5.467125"><ele>1121.4</ele><time>2011-01-14T10:55:17Z</time></trkpt>
<trkpt lat="43.814652" lon="5.467192"><ele>1120.7</ele><time>2011-01-14T10:55:22Z</time></trkpt>
<trkpt lat="43.814617" lon="5.467223"><ele>1120.5</ele><time>2011-01-14T10:55:27Z</time></trkpt>
<trkpt lat="43.814617" lon="5.467228"><ele>1120.6</ele><time>2011-01-14T10:55:32Z</time></trkpt>
<trkpt lat="43.814595" lon="5.467180"><ele>1119.6</ele><time>2011-01-14T10:55:37Z</time></trkpt>
<trkpt lat="43.814598" lon="5.466970"><ele>1117.1</ele><time>2011-01-14T10:55:42Z</time></trkpt>
<trkpt lat="43.814602" lon="5.466747"><ele>1113.6</ele><time>2011-01-14T10:55:47Z</time></trkpt>
<trkpt lat="43.814617" lon="5.466497"><ele>1109.6</ele><time>2011-01-14T10:55:52Z</time></trkpt>
<trkpt lat="43.814598" lon="5.466250"><ele>1104.8</ele><time>2011-01-14T10:55:57Z</time></trkpt>
<trkpt lat="43.814433" lon="5.465857"><ele>1098.1</ele><time>2011-01-14T10:56:02Z</time></trkpt>
<trkpt lat="43.814392" lon="5.465535"><ele>1098.6</ele><time>2011-01-14T10:56:07Z</time></trkpt>
<trkpt lat="43.814407" lon="5.465458"><ele>1099.9</ele><time>2011-01-14T10:56:12Z</time></trkpt>
<trkpt lat="43.814438" lon="5.465383"><ele>1100.7</ele><time>2011-01-14T10:56:17Z</time></trkpt>
<trkpt lat="43.814498" lon="5.465345"><ele>1101</ele><time>2011-01-14T10:56:22Z</time></trkpt>
<trkpt lat="43.814578" lon="5.465333"><ele>1100.7</ele><time>2011-01-14T10:56:27Z</time></trkpt>
<trkpt lat="43.814583" lon="5.465332"><ele>1100.8</ele><time>2011-01-14T10:56:32Z</time></trkpt>
<trkpt lat="43.814583" lon="5.465332"><ele>1100.8</ele><time>2011-01-14T10:56:37Z</time></trkpt>
<trkpt lat="43.814587" lon="5.465340"><ele>1100.8</ele><time>2011-01-14T10:56:42Z</time></trkpt>
<trkpt lat="43.814632" lon="5.465455"><ele>1099.3</ele><time>2011-01-14T10:56:47Z</time></trkpt>
<trkpt lat="43.814613" lon="5.465617"><ele>1098.3</ele><time>2011-01-14T10:56:52Z</time></trkpt>
<trkpt lat="43.814583" lon="5.465723"><ele>1098</ele><time>2011-01-14T10:56:57Z</time></trkpt>
<trkpt lat="43.814605" lon="5.465818"><ele>1098.3</ele><time>2011-01-14T10:57:02Z</time></trkpt>
<trkpt lat="43.814632" lon="5.465908"><ele>1099.2</ele><time>2011-01-14T10:57:07Z</time></trkpt>
<trkpt lat="43.814628" lon="5.465978"><ele>1100.1</ele><time>2011-01-14T10:57:12Z</time></trkpt>
<trkpt lat="43.814628" lon="5.465978"><ele>1100</ele><time>2011-01-14T10:57:17Z</time></trkpt>
<trkpt lat="43.814628" lon="5.465982"><ele>1099.8</ele><time>2011-01-14T10:57:22Z</time></trkpt>
<trkpt lat="43.814628" lon="5.465983"><ele>1099.6</ele><time>2011-01-14T10:57:27Z</time></trkpt>
<trkpt lat="43.814587" lon="5.465975"><ele>1099.5</ele><time>2011-01-14T10:57:32Z</time></trkpt>
<trkpt lat="43.814595" lon="5.465835"><ele>1098.3</ele><time>2011-01-14T10:57:37Z</time></trkpt>
<trkpt lat="43.814637" lon="5.465727"><ele>1098.5</ele><time>2011-01-14T10:57:42Z</time></trkpt>
<trkpt lat="43.814682" lon="5.465637"><ele>1098.4</ele><time>2011-01-14T10:57:47Z</time></trkpt>
<trkpt lat="43.814728" lon="5.465523"><ele>1098.5</ele><time>2011-01-14T10:57:52Z</time></trkpt>
<trkpt lat="43.814808" lon="5.465417"><ele>1098.4</ele><time>2011-01-14T10:57:57Z</time></trkpt>
<trkpt lat="43.814907" lon="5.465355"><ele>1098</ele><time>2011-01-14T10:58:02Z</time></trkpt>
<trkpt lat="43.815028" lon="5.465360"><ele>1097.1</ele><time>2011-01-14T10:58:07Z</time></trkpt>
<trkpt lat="43.815140" lon="5.465363"><ele>1096.4</ele><time>2011-01-14T10:58:12Z</time></trkpt>
<trkpt lat="43.815250" lon="5.465337"><ele>1095.2</ele><time>2011-01-14T10:58:17Z</time></trkpt>
<trkpt lat="43.815338" lon="5.465265"><ele>1093.8</ele><time>2011-01-14T10:58:22Z</time></trkpt>
<trkpt lat="43.815433" lon="5.465128"><ele>1091.8</ele><time>2011-01-14T10:58:27Z</time></trkpt>
<trkpt lat="43.815543" lon="5.465030"><ele>1088.7</ele><time>2011-01-14T10:58:32Z</time></trkpt>
<trkpt lat="43.815647" lon="5.464920"><ele>1085.5</ele><time>2011-01-14T10:58:37Z</time></trkpt>
<trkpt lat="43.815747" lon="5.464790"><ele>1081.4</ele><time>2011-01-14T10:58:42Z</time></trkpt>
<trkpt lat="43.815865" lon="5.464625"><ele>1076.8</ele><time>2011-01-14T10:58:47Z</time></trkpt>
<trkpt lat="43.815963" lon="5.464500"><ele>1074.6</ele><time>2011-01-14T10:58:52Z</time></trkpt>
<trkpt lat="43.816085" lon="5.464407"><ele>1075.9</ele><time>2011-01-14T10:58:57Z</time></trkpt>
<trkpt lat="43.816185" lon="5.464305"><ele>1081.1</ele><time>2011-01-14T10:59:02Z</time></trkpt>
<trkpt lat="43.816292" lon="5.464228"><ele>1080.5</ele><time>2011-01-14T10:59:07Z</time></trkpt>
<trkpt lat="43.816413" lon="5.464090"><ele>1078.1</ele><time>2011-01-14T10:59:12Z</time></trkpt>
<trkpt lat="43.816543" lon="5.463965"><ele>1076.6</ele><time>2011-01-14T10:59:17Z</time></trkpt>
<trkpt lat="43.816665" lon="5.463853"><ele>1073</ele><time>2011-01-14T10:59:22Z</time></trkpt>
<trkpt lat="43.816772" lon="5.463710"><ele>1063.3</ele><time>2011-01-14T10:59:27Z</time></trkpt>
<trkpt lat="43.816902" lon="5.463612"><ele>1059.5</ele><time>2011-01-14T10:59:32Z</time></trkpt>
<trkpt lat="43.817002" lon="5.463553"><ele>1057</ele><time>2011-01-14T10:59:37Z</time></trkpt>
<trkpt lat="43.817058" lon="5.463510"><ele>1055.5</ele><time>2011-01-14T10:59:42Z</time></trkpt>
<trkpt lat="43.817185" lon="5.463432"><ele>1054</ele><time>2011-01-14T10:59:47Z</time></trkpt>
<trkpt lat="43.817325" lon="5.463340"><ele>1052.8</ele><time>2011-01-14T10:59:52Z</time></trkpt>
<trkpt lat="43.817440" lon="5.463250"><ele>1054</ele><time>2011-01-14T10:59:57Z</time></trkpt>
<trkpt lat="43.817647" lon="5.463097"><ele>1051.2</ele><time>2011-01-14T11:00:02Z</time></trkpt>
<trkpt lat="43.817878" lon="5.462967"><ele>1047.6</ele><time>2011-01-14T11:00:07Z</time></trkpt>
<trkpt lat="43.818077" lon="5.462840"><ele>1040.9</ele><time>2011-01-14T11:00:12Z</time></trkpt>
<trkpt lat="43.818275" lon="5.462698"><ele>1036.6</ele><time>2011-01-14T11:00:17Z</time></trkpt>
<trkpt lat="43.818473" lon="5.462523"><ele>1032.6</ele><time>2011-01-14T11:00:22Z</time></trkpt>
<trkpt lat="43.818660" lon="5.462348"><ele>1029.2</ele><time>2011-01-14T11:00:27Z</time></trkpt>
<trkpt lat="43.818863" lon="5.462133"><ele>1026.5</ele><time>2011-01-14T11:00:32Z</time></trkpt>
<trkpt lat="43.819053" lon="5.461938"><ele>1022.4</ele><time>2011-01-14T11:00:37Z</time></trkpt>
<trkpt lat="43.819210" lon="5.461773"><ele>1018.2</ele><time>2011-01-14T11:00:42Z</time></trkpt>
<trkpt lat="43.819378" lon="5.461583"><ele>1013.5</ele><time>2011-01-14T11:00:47Z</time></trkpt>
<trkpt lat="43.819485" lon="5.461365"><ele>1010.7</ele><time>2011-01-14T11:00:52Z</time></trkpt>
<trkpt lat="43.819503" lon="5.461038"><ele>1009.6</ele><time>2011-01-14T11:00:57Z</time></trkpt>
<trkpt lat="43.819515" lon="5.460847"><ele>1009.9</ele><time>2011-01-14T11:01:02Z</time></trkpt>
<trkpt lat="43.819515" lon="5.460723"><ele>1010.5</ele><time>2011-01-14T11:01:07Z</time></trkpt>
<trkpt lat="43.819508" lon="5.460608"><ele>1011.2</ele><time>2011-01-14T11:01:12Z</time></trkpt>
<trkpt lat="43.819508" lon="5.460505"><ele>1012.4</ele><time>2011-01-14T11:01:17Z</time></trkpt>
<trkpt lat="43.819503" lon="5.460407"><ele>1013.7</ele><time>2011-01-14T11:01:22Z</time></trkpt>
<trkpt lat="43.819497" lon="5.460305"><ele>1015</ele><time>2011-01-14T11:01:27Z</time></trkpt>
<trkpt lat="43.819497" lon="5.460213"><ele>1016</ele><time>2011-01-14T11:01:32Z</time></trkpt>
<trkpt lat="43.819500" lon="5.460117"><ele>1017</ele><time>2011-01-14T11:01:37Z</time></trkpt>
<trkpt lat="43.819503" lon="5.460025"><ele>1018.1</ele><time>2011-01-14T11:01:42Z</time></trkpt>
<trkpt lat="43.819508" lon="5.459937"><ele>1019.3</ele><time>2011-01-14T11:01:47Z</time></trkpt>
<trkpt lat="43.819497" lon="5.459842"><ele>1020</ele><time>2011-01-14T11:01:52Z</time></trkpt>
<trkpt lat="43.819488" lon="5.459743"><ele>1020.5</ele><time>2011-01-14T11:01:57Z</time></trkpt>
<trkpt lat="43.819503" lon="5.459648"><ele>1021.7</ele><time>2011-01-14T11:02:02Z</time></trkpt>
<trkpt lat="43.819492" lon="5.459545"><ele>1022.1</ele><time>2011-01-14T11:02:07Z</time></trkpt>
<trkpt lat="43.819473" lon="5.459438"><ele>1022.6</ele><time>2011-01-14T11:02:12Z</time></trkpt>
<trkpt lat="43.819447" lon="5.459320"><ele>1022.8</ele><time>2011-01-14T11:02:17Z</time></trkpt>
<trkpt lat="43.819435" lon="5.459193"><ele>1022.4</ele><time>2011-01-14T11:02:22Z</time></trkpt>
<trkpt lat="43.819465" lon="5.458998"><ele>1020.2</ele><time>2011-01-14T11:02:27Z</time></trkpt>
<trkpt lat="43.819485" lon="5.458808"><ele>1017.4</ele><time>2011-01-14T11:02:32Z</time></trkpt>
<trkpt lat="43.819470" lon="5.458595"><ele>1014.2</ele><time>2011-01-14T11:02:37Z</time></trkpt>
<trkpt lat="43.819477" lon="5.458347"><ele>1010.9</ele><time>2011-01-14T11:02:42Z</time></trkpt>
<trkpt lat="43.819512" lon="5.458045"><ele>1008.1</ele><time>2011-01-14T11:02:47Z</time></trkpt>
<trkpt lat="43.819572" lon="5.457830"><ele>1007.2</ele><time>2011-01-14T11:02:52Z</time></trkpt>
<trkpt lat="43.819633" lon="5.457612"><ele>1005.4</ele><time>2011-01-14T11:02:57Z</time></trkpt>
<trkpt lat="43.819687" lon="5.457385"><ele>1003.6</ele><time>2011-01-14T11:03:02Z</time></trkpt>
<trkpt lat="43.819710" lon="5.457148"><ele>1001.9</ele><time>2011-01-14T11:03:07Z</time></trkpt>
<trkpt lat="43.819683" lon="5.456913"><ele>999.8</ele><time>2011-01-14T11:03:12Z</time></trkpt>
<trkpt lat="43.819663" lon="5.456630"><ele>997.6</ele><time>2011-01-14T11:03:17Z</time></trkpt>
<trkpt lat="43.819642" lon="5.456363"><ele>995.8</ele><time>2011-01-14T11:03:22Z</time></trkpt>
<trkpt lat="43.819607" lon="5.456083"><ele>994.7</ele><time>2011-01-14T11:03:27Z</time></trkpt>
<trkpt lat="43.819562" lon="5.455815"><ele>993.4</ele><time>2011-01-14T11:03:32Z</time></trkpt>
<trkpt lat="43.819557" lon="5.455538"><ele>991.8</ele><time>2011-01-14T11:03:37Z</time></trkpt>
<trkpt lat="43.819577" lon="5.455273"><ele>989.9</ele><time>2011-01-14T11:03:42Z</time></trkpt>
<trkpt lat="43.819595" lon="5.455090"><ele>988.1</ele><time>2011-01-14T11:03:47Z</time></trkpt>
<trkpt lat="43.819568" lon="5.454867"><ele>985.1</ele><time>2011-01-14T11:03:52Z</time></trkpt>
<trkpt lat="43.819530" lon="5.454610"><ele>982.7</ele><time>2011-01-14T11:03:57Z</time></trkpt>
<trkpt lat="43.819488" lon="5.454362"><ele>982</ele><time>2011-01-14T11:04:02Z</time></trkpt>
<trkpt lat="43.819420" lon="5.454115"><ele>981</ele><time>2011-01-14T11:04:07Z</time></trkpt>
<trkpt lat="43.819390" lon="5.453995"><ele>980.6</ele><time>2011-01-14T11:04:12Z</time></trkpt>
<trkpt lat="43.819390" lon="5.453897"><ele>980.1</ele><time>2011-01-14T11:04:17Z</time></trkpt>
<trkpt lat="43.819390" lon="5.453688"><ele>979.3</ele><time>2011-01-14T11:04:22Z</time></trkpt>
<trkpt lat="43.819325" lon="5.453423"><ele>978.5</ele><time>2011-01-14T11:04:27Z</time></trkpt>
<trkpt lat="43.819213" lon="5.453155"><ele>977.3</ele><time>2011-01-14T11:04:32Z</time></trkpt>
<trkpt lat="43.819148" lon="5.452812"><ele>976</ele><time>2011-01-14T11:04:37Z</time></trkpt>
<trkpt lat="43.819103" lon="5.452433"><ele>974.7</ele><time>2011-01-14T11:04:42Z</time></trkpt>
<trkpt lat="43.819100" lon="5.452052"><ele>973.3</ele><time>2011-01-14T11:04:47Z</time></trkpt>
<trkpt lat="43.819035" lon="5.451677"><ele>971.9</ele><time>2011-01-14T11:04:52Z</time></trkpt>
<trkpt lat="43.818940" lon="5.451295"><ele>970.4</ele><time>2011-01-14T11:04:57Z</time></trkpt>
<trkpt lat="43.818802" lon="5.450915"><ele>968.9</ele><time>2011-01-14T11:05:02Z</time></trkpt>
<trkpt lat="43.818600" lon="5.450567"><ele>967.1</ele><time>2011-01-14T11:05:07Z</time></trkpt>
<trkpt lat="43.818340" lon="5.450257"><ele>965.2</ele><time>2011-01-14T11:05:12Z</time></trkpt>
<trkpt lat="43.818165" lon="5.449903"><ele>963.7</ele><time>2011-01-14T11:05:17Z</time></trkpt>
<trkpt lat="43.818210" lon="5.449535"><ele>962.5</ele><time>2011-01-14T11:05:22Z</time></trkpt>
<trkpt lat="43.818337" lon="5.449202"><ele>960.7</ele><time>2011-01-14T11:05:27Z</time></trkpt>
<trkpt lat="43.818443" lon="5.448808"><ele>958.7</ele><time>2011-01-14T11:05:32Z</time></trkpt>
<trkpt lat="43.818473" lon="5.448378"><ele>957.3</ele><time>2011-01-14T11:05:37Z</time></trkpt>
<trkpt lat="43.818443" lon="5.448028"><ele>957.4</ele><time>2011-01-14T11:05:42Z</time></trkpt>
<trkpt lat="43.818370" lon="5.447893"><ele>958.5</ele><time>2011-01-14T11:05:47Z</time></trkpt>
<trkpt lat="43.818325" lon="5.447838"><ele>959.4</ele><time>2011-01-14T11:05:52Z</time></trkpt>
<trkpt lat="43.818287" lon="5.447757"><ele>960.1</ele><time>2011-01-14T11:05:57Z</time></trkpt>
<trkpt lat="43.818253" lon="5.447667"><ele>960.9</ele><time>2011-01-14T11:06:02Z</time></trkpt>
<trkpt lat="43.818218" lon="5.447573"><ele>961.6</ele><time>2011-01-14T11:06:07Z</time></trkpt>
<trkpt lat="43.818188" lon="5.447473"><ele>962.5</ele><time>2011-01-14T11:06:12Z</time></trkpt>
<trkpt lat="43.818168" lon="5.447373"><ele>963.2</ele><time>2011-01-14T11:06:17Z</time></trkpt>
<trkpt lat="43.818145" lon="5.447262"><ele>963.9</ele><time>2011-01-14T11:06:22Z</time></trkpt>
<trkpt lat="43.818108" lon="5.447145"><ele>964.5</ele><time>2011-01-14T11:06:27Z</time></trkpt>
<trkpt lat="43.818062" lon="5.447037"><ele>965.2</ele><time>2011-01-14T11:06:32Z</time></trkpt>
<trkpt lat="43.818008" lon="5.446930"><ele>965.7</ele><time>2011-01-14T11:06:37Z</time></trkpt>
<trkpt lat="43.817937" lon="5.446837"><ele>966.5</ele><time>2011-01-14T11:06:42Z</time></trkpt>
<trkpt lat="43.817845" lon="5.446767"><ele>967.4</ele><time>2011-01-14T11:06:47Z</time></trkpt>
<trkpt lat="43.817707" lon="5.446730"><ele>968.1</ele><time>2011-01-14T11:06:52Z</time></trkpt>
<trkpt lat="43.817520" lon="5.446732"><ele>968.8</ele><time>2011-01-14T11:06:57Z</time></trkpt>
<trkpt lat="43.817337" lon="5.446747"><ele>969.6</ele><time>2011-01-14T11:07:02Z</time></trkpt>
<trkpt lat="43.817165" lon="5.446740"><ele>968.6</ele><time>2011-01-14T11:07:07Z</time></trkpt>
<trkpt lat="43.817028" lon="5.446735"><ele>968.5</ele><time>2011-01-14T11:07:12Z</time></trkpt>
<trkpt lat="43.816890" lon="5.446710"><ele>967.6</ele><time>2011-01-14T11:07:17Z</time></trkpt>
<trkpt lat="43.816742" lon="5.446675"><ele>966.6</ele><time>2011-01-14T11:07:22Z</time></trkpt>
<trkpt lat="43.816590" lon="5.446607"><ele>965.9</ele><time>2011-01-14T11:07:27Z</time></trkpt>
<trkpt lat="43.816510" lon="5.446510"><ele>965.8</ele><time>2011-01-14T11:07:32Z</time></trkpt>
<trkpt lat="43.816467" lon="5.446463"><ele>966.4</ele><time>2011-01-14T11:07:37Z</time></trkpt>
<trkpt lat="43.816410" lon="5.446407"><ele>966.7</ele><time>2011-01-14T11:07:42Z</time></trkpt>
<trkpt lat="43.816338" lon="5.446297"><ele>966.9</ele><time>2011-01-14T11:07:47Z</time></trkpt>
<trkpt lat="43.816277" lon="5.446192"><ele>967.1</ele><time>2011-01-14T11:07:52Z</time></trkpt>
<trkpt lat="43.816215" lon="5.446082"><ele>966.9</ele><time>2011-01-14T11:07:57Z</time></trkpt>
<trkpt lat="43.816173" lon="5.445970"><ele>966</ele><time>2011-01-14T11:08:02Z</time></trkpt>
<trkpt lat="43.816105" lon="5.445838"><ele>964.9</ele><time>2011-01-14T11:08:07Z</time></trkpt>
<trkpt lat="43.816078" lon="5.445653"><ele>964.1</ele><time>2011-01-14T11:08:12Z</time></trkpt>
<trkpt lat="43.816097" lon="5.445457"><ele>964</ele><time>2011-01-14T11:08:17Z</time></trkpt>
<trkpt lat="43.816150" lon="5.445265"><ele>964.2</ele><time>2011-01-14T11:08:22Z</time></trkpt>
<trkpt lat="43.816185" lon="5.445067"><ele>963.5</ele><time>2011-01-14T11:08:27Z</time></trkpt>
<trkpt lat="43.816223" lon="5.444872"><ele>963.1</ele><time>2011-01-14T11:08:32Z</time></trkpt>
<trkpt lat="43.816250" lon="5.444773"><ele>963.4</ele><time>2011-01-14T11:08:37Z</time></trkpt>
<trkpt lat="43.816277" lon="5.444687"><ele>964.5</ele><time>2011-01-14T11:08:42Z</time></trkpt>
<trkpt lat="43.816303" lon="5.444567"><ele>965</ele><time>2011-01-14T11:08:47Z</time></trkpt>
<trkpt lat="43.816315" lon="5.444437"><ele>965.1</ele><time>2011-01-14T11:08:52Z</time></trkpt>
<trkpt lat="43.816280" lon="5.444317"><ele>965</ele><time>2011-01-14T11:08:57Z</time></trkpt>
<trkpt lat="43.816235" lon="5.444220"><ele>964.9</ele><time>2011-01-14T11:09:02Z</time></trkpt>
<trkpt lat="43.816177" lon="5.444088"><ele>965.1</ele><time>2011-01-14T11:09:07Z</time></trkpt>
<trkpt lat="43.816117" lon="5.443953"><ele>965.5</ele><time>2011-01-14T11:09:12Z</time></trkpt>
<trkpt lat="43.816048" lon="5.443828"><ele>964.5</ele><time>2011-01-14T11:09:17Z</time></trkpt>
<trkpt lat="43.815975" lon="5.443662"><ele>963.8</ele><time>2011-01-14T11:09:22Z</time></trkpt>
<trkpt lat="43.815933" lon="5.443512"><ele>963.7</ele><time>2011-01-14T11:09:27Z</time></trkpt>
<trkpt lat="43.815892" lon="5.443355"><ele>964</ele><time>2011-01-14T11:09:32Z</time></trkpt>
<trkpt lat="43.815853" lon="5.443168"><ele>964.5</ele><time>2011-01-14T11:09:37Z</time></trkpt>
<trkpt lat="43.815827" lon="5.442970"><ele>964.3</ele><time>2011-01-14T11:09:42Z</time></trkpt>
<trkpt lat="43.815807" lon="5.442748"><ele>963.9</ele><time>2011-01-14T11:09:47Z</time></trkpt>
<trkpt lat="43.815800" lon="5.442488"><ele>962.9</ele><time>2011-01-14T11:09:52Z</time></trkpt>
<trkpt lat="43.815803" lon="5.442217"><ele>962.3</ele><time>2011-01-14T11:09:57Z</time></trkpt>
<trkpt lat="43.815753" lon="5.442018"><ele>961.2</ele><time>2011-01-14T11:10:02Z</time></trkpt>
<trkpt lat="43.815643" lon="5.441867"><ele>960.2</ele><time>2011-01-14T11:10:07Z</time></trkpt>
<trkpt lat="43.815560" lon="5.441757"><ele>959.4</ele><time>2011-01-14T11:10:12Z</time></trkpt>
<trkpt lat="43.815480" lon="5.441612"><ele>958.7</ele><time>2011-01-14T11:10:17Z</time></trkpt>
<trkpt lat="43.815392" lon="5.441537"><ele>957.7</ele><time>2011-01-14T11:10:22Z</time></trkpt>
<trkpt lat="43.815345" lon="5.441433"><ele>957.6</ele><time>2011-01-14T11:10:27Z</time></trkpt>
<trkpt lat="43.815315" lon="5.441357"><ele>957.4</ele><time>2011-01-14T11:10:32Z</time></trkpt>
<trkpt lat="43.815277" lon="5.441293"><ele>957.4</ele><time>2011-01-14T11:10:37Z</time></trkpt>
<trkpt lat="43.815235" lon="5.441227"><ele>957.5</ele><time>2011-01-14T11:10:42Z</time></trkpt>
<trkpt lat="43.815193" lon="5.441158"><ele>957.7</ele><time>2011-01-14T11:10:47Z</time></trkpt>
<trkpt lat="43.815140" lon="5.441108"><ele>958.1</ele><time>2011-01-14T11:10:52Z</time></trkpt>
<trkpt lat="43.815067" lon="5.441087"><ele>959.1</ele><time>2011-01-14T11:10:57Z</time></trkpt>
<trkpt lat="43.814998" lon="5.441062"><ele>960</ele><time>2011-01-14T11:11:02Z</time></trkpt>
<trkpt lat="43.814918" lon="5.441057"><ele>961.3</ele><time>2011-01-14T11:11:07Z</time></trkpt>
<trkpt lat="43.814815" lon="5.441077"><ele>962.6</ele><time>2011-01-14T11:11:12Z</time></trkpt>
<trkpt lat="43.814713" lon="5.441058"><ele>962.1</ele><time>2011-01-14T11:11:17Z</time></trkpt>
<trkpt lat="43.814590" lon="5.441065"><ele>961.7</ele><time>2011-01-14T11:11:22Z</time></trkpt>
<trkpt lat="43.814487" lon="5.441062"><ele>962.2</ele><time>2011-01-14T11:11:27Z</time></trkpt>
<trkpt lat="43.814358" lon="5.441088"><ele>963.1</ele><time>2011-01-14T11:11:32Z</time></trkpt>
<trkpt lat="43.814225" lon="5.441125"><ele>963.9</ele><time>2011-01-14T11:11:37Z</time></trkpt>
<trkpt lat="43.814063" lon="5.441142"><ele>966.3</ele><time>2011-01-14T11:11:42Z</time></trkpt>
<trkpt lat="43.813972" lon="5.441173"><ele>966.4</ele><time>2011-01-14T11:11:47Z</time></trkpt>
<trkpt lat="43.813847" lon="5.441187"><ele>966.8</ele><time>2011-01-14T11:11:52Z</time></trkpt>
<trkpt lat="43.813710" lon="5.441187"><ele>965.8</ele><time>2011-01-14T11:11:57Z</time></trkpt>
<trkpt lat="43.813575" lon="5.441190"><ele>964.1</ele><time>2011-01-14T11:12:02Z</time></trkpt>
<trkpt lat="43.813412" lon="5.441127"><ele>962.7</ele><time>2011-01-14T11:12:07Z</time></trkpt>
<trkpt lat="43.813217" lon="5.440998"><ele>960.8</ele><time>2011-01-14T11:12:12Z</time></trkpt>
<trkpt lat="43.813053" lon="5.440760"><ele>959.3</ele><time>2011-01-14T11:12:17Z</time></trkpt>
<trkpt lat="43.812920" lon="5.440523"><ele>958.1</ele><time>2011-01-14T11:12:22Z</time></trkpt>
<trkpt lat="43.812882" lon="5.440457"><ele>957.6</ele><time>2011-01-14T11:12:27Z</time></trkpt>
<trkpt lat="43.812825" lon="5.440422"><ele>957.2</ele><time>2011-01-14T11:12:32Z</time></trkpt>
<trkpt lat="43.812772" lon="5.440347"><ele>956.9</ele><time>2011-01-14T11:12:37Z</time></trkpt>
<trkpt lat="43.812713" lon="5.440245"><ele>956.8</ele><time>2011-01-14T11:12:42Z</time></trkpt>
<trkpt lat="43.812672" lon="5.440147"><ele>956.8</ele><time>2011-01-14T11:12:47Z</time></trkpt>
<trkpt lat="43.812600" lon="5.440053"><ele>957.1</ele><time>2011-01-14T11:12:52Z</time></trkpt>
<trkpt lat="43.812485" lon="5.439998"><ele>957.7</ele><time>2011-01-14T11:12:57Z</time></trkpt>
<trkpt lat="43.812370" lon="5.439963"><ele>958.3</ele><time>2011-01-14T11:13:02Z</time></trkpt>
<trkpt lat="43.812248" lon="5.439963"><ele>959.2</ele><time>2011-01-14T11:13:07Z</time></trkpt>
<trkpt lat="43.812142" lon="5.439968"><ele>960.2</ele><time>2011-01-14T11:13:12Z</time></trkpt>
<trkpt lat="43.812027" lon="5.439952"><ele>961.5</ele><time>2011-01-14T11:13:17Z</time></trkpt>
<trkpt lat="43.811943" lon="5.439938"><ele>962.3</ele><time>2011-01-14T11:13:22Z</time></trkpt>
<trkpt lat="43.811852" lon="5.439928"><ele>963.6</ele><time>2011-01-14T11:13:27Z</time></trkpt>
<trkpt lat="43.811760" lon="5.439915"><ele>964.9</ele><time>2011-01-14T11:13:32Z</time></trkpt>
<trkpt lat="43.811668" lon="5.439882"><ele>965.5</ele><time>2011-01-14T11:13:37Z</time></trkpt>
<trkpt lat="43.811573" lon="5.439867"><ele>966.5</ele><time>2011-01-14T11:13:42Z</time></trkpt>
<trkpt lat="43.811485" lon="5.439837"><ele>967.3</ele><time>2011-01-14T11:13:47Z</time></trkpt>
<trkpt lat="43.811398" lon="5.439812"><ele>969.5</ele><time>2011-01-14T11:13:52Z</time></trkpt>
<trkpt lat="43.811313" lon="5.439748"><ele>970.5</ele><time>2011-01-14T11:13:57Z</time></trkpt>
<trkpt lat="43.811210" lon="5.439677"><ele>971.9</ele><time>2011-01-14T11:14:02Z</time></trkpt>
<trkpt lat="43.811118" lon="5.439577"><ele>972.4</ele><time>2011-01-14T11:14:07Z</time></trkpt>
<trkpt lat="43.811032" lon="5.439497"><ele>974</ele><time>2011-01-14T11:14:12Z</time></trkpt>
<trkpt lat="43.810952" lon="5.439420"><ele>974.8</ele><time>2011-01-14T11:14:17Z</time></trkpt>
<trkpt lat="43.810872" lon="5.439332"><ele>973.8</ele><time>2011-01-14T11:14:22Z</time></trkpt>
<trkpt lat="43.810792" lon="5.439250"><ele>973.5</ele><time>2011-01-14T11:14:27Z</time></trkpt>
<trkpt lat="43.810707" lon="5.439158"><ele>973.4</ele><time>2011-01-14T11:14:32Z</time></trkpt>
<trkpt lat="43.810627" lon="5.439072"><ele>973.2</ele><time>2011-01-14T11:14:37Z</time></trkpt>
<trkpt lat="43.810535" lon="5.438965"><ele>973.1</ele><time>2011-01-14T11:14:42Z</time></trkpt>
<trkpt lat="43.810448" lon="5.438820"><ele>973.2</ele><time>2011-01-14T11:14:47Z</time></trkpt>
<trkpt lat="43.810425" lon="5.438617"><ele>973</ele><time>2011-01-14T11:14:52Z</time></trkpt>
<trkpt lat="43.810513" lon="5.438435"><ele>972.8</ele><time>2011-01-14T11:14:57Z</time></trkpt>
<trkpt lat="43.810692" lon="5.438293"><ele>972.4</ele><time>2011-01-14T11:15:02Z</time></trkpt>
<trkpt lat="43.810893" lon="5.438165"><ele>972.2</ele><time>2011-01-14T11:15:07Z</time></trkpt>
<trkpt lat="43.811073" lon="5.438020"><ele>971.3</ele><time>2011-01-14T11:15:12Z</time></trkpt>
<trkpt lat="43.811245" lon="5.437858"><ele>971.5</ele><time>2011-01-14T11:15:17Z</time></trkpt>
<trkpt lat="43.811420" lon="5.437715"><ele>971.1</ele><time>2011-01-14T11:15:22Z</time></trkpt>
<trkpt lat="43.811612" lon="5.437558"><ele>968.9</ele><time>2011-01-14T11:15:27Z</time></trkpt>
<trkpt lat="43.811730" lon="5.437195"><ele>965.9</ele><time>2011-01-14T11:15:32Z</time></trkpt>
<trkpt lat="43.811645" lon="5.436730"><ele>963.1</ele><time>2011-01-14T11:15:37Z</time></trkpt>
<trkpt lat="43.811458" lon="5.436265"><ele>959.8</ele><time>2011-01-14T11:15:42Z</time></trkpt>
<trkpt lat="43.811195" lon="5.435850"><ele>956.9</ele><time>2011-01-14T11:15:47Z</time></trkpt>
<trkpt lat="43.810943" lon="5.435480"><ele>954.1</ele><time>2011-01-14T11:15:52Z</time></trkpt>
<trkpt lat="43.810810" lon="5.435227"><ele>951.8</ele><time>2011-01-14T11:15:57Z</time></trkpt>
<trkpt lat="43.810695" lon="5.434992"><ele>949.4</ele><time>2011-01-14T11:16:02Z</time></trkpt>
<trkpt lat="43.810478" lon="5.434705"><ele>946.4</ele><time>2011-01-14T11:16:07Z</time></trkpt>
<trkpt lat="43.810295" lon="5.434333"><ele>945</ele><time>2011-01-14T11:16:12Z</time></trkpt>
<trkpt lat="43.810295" lon="5.433928"><ele>943.8</ele><time>2011-01-14T11:16:17Z</time></trkpt>
<trkpt lat="43.810287" lon="5.433557"><ele>942.7</ele><time>2011-01-14T11:16:22Z</time></trkpt>
<trkpt lat="43.810280" lon="5.433203"><ele>941.9</ele><time>2011-01-14T11:16:27Z</time></trkpt>
<trkpt lat="43.810292" lon="5.432840"><ele>940.7</ele><time>2011-01-14T11:16:32Z</time></trkpt>
<trkpt lat="43.810310" lon="5.432472"><ele>939</ele><time>2011-01-14T11:16:37Z</time></trkpt>
<trkpt lat="43.810292" lon="5.432082"><ele>937.3</ele><time>2011-01-14T11:16:42Z</time></trkpt>
<trkpt lat="43.810265" lon="5.431667"><ele>935.3</ele><time>2011-01-14T11:16:47Z</time></trkpt>
<trkpt lat="43.810398" lon="5.431238"><ele>933.2</ele><time>2011-01-14T11:16:52Z</time></trkpt>
<trkpt lat="43.810608" lon="5.431000"><ele>933.1</ele><time>2011-01-14T11:16:57Z</time></trkpt>
<trkpt lat="43.810802" lon="5.430918"><ele>933.5</ele><time>2011-01-14T11:17:02Z</time></trkpt>
<trkpt lat="43.811012" lon="5.430760"><ele>932.7</ele><time>2011-01-14T11:17:07Z</time></trkpt>
<trkpt lat="43.811195" lon="5.430478"><ele>933.1</ele><time>2011-01-14T11:17:12Z</time></trkpt>
<trkpt lat="43.811313" lon="5.430105"><ele>931.8</ele><time>2011-01-14T11:17:17Z</time></trkpt>
<trkpt lat="43.811417" lon="5.429725"><ele>930.5</ele><time>2011-01-14T11:17:22Z</time></trkpt>
<trkpt lat="43.811553" lon="5.429402"><ele>929.9</ele><time>2011-01-14T11:17:27Z</time></trkpt>
<trkpt lat="43.811768" lon="5.429140"><ele>930.3</ele><time>2011-01-14T11:17:32Z</time></trkpt>
<trkpt lat="43.812015" lon="5.428958"><ele>930.1</ele><time>2011-01-14T11:17:37Z</time></trkpt>
<trkpt lat="43.812293" lon="5.428845"><ele>928.2</ele><time>2011-01-14T11:17:42Z</time></trkpt>
<trkpt lat="43.812577" lon="5.428753"><ele>925</ele><time>2011-01-14T11:17:47Z</time></trkpt>
<trkpt lat="43.812855" lon="5.428632"><ele>923.7</ele><time>2011-01-14T11:17:52Z</time></trkpt>
<trkpt lat="43.813122" lon="5.428418"><ele>921.9</ele><time>2011-01-14T11:17:57Z</time></trkpt>
<trkpt lat="43.813367" lon="5.428158"><ele>921</ele><time>2011-01-14T11:18:02Z</time></trkpt>
<trkpt lat="43.813533" lon="5.427808"><ele>919.9</ele><time>2011-01-14T11:18:07Z</time></trkpt>
<trkpt lat="43.813660" lon="5.427443"><ele>918.5</ele><time>2011-01-14T11:18:12Z</time></trkpt>
<trkpt lat="43.813725" lon="5.427062"><ele>916.2</ele><time>2011-01-14T11:18:17Z</time></trkpt>
<trkpt lat="43.813763" lon="5.426668"><ele>913.9</ele><time>2011-01-14T11:18:22Z</time></trkpt>
<trkpt lat="43.813743" lon="5.426247"><ele>912.4</ele><time>2011-01-14T11:18:27Z</time></trkpt>
<trkpt lat="43.813583" lon="5.425892"><ele>911.2</ele><time>2011-01-14T11:18:32Z</time></trkpt>
<trkpt lat="43.813397" lon="5.425545"><ele>910.1</ele><time>2011-01-14T11:18:37Z</time></trkpt>
<trkpt lat="43.813275" lon="5.425128"><ele>908.4</ele><time>2011-01-14T11:18:42Z</time></trkpt>
<trkpt lat="43.813350" lon="5.424672"><ele>907.1</ele><time>2011-01-14T11:18:47Z</time></trkpt>
<trkpt lat="43.813507" lon="5.424277"><ele>906.6</ele><time>2011-01-14T11:18:52Z</time></trkpt>
<trkpt lat="43.813672" lon="5.423912"><ele>905.7</ele><time>2011-01-14T11:18:57Z</time></trkpt>
<trkpt lat="43.813770" lon="5.423502"><ele>904.5</ele><time>2011-01-14T11:19:02Z</time></trkpt>
<trkpt lat="43.813705" lon="5.423067"><ele>903.2</ele><time>2011-01-14T11:19:07Z</time></trkpt>
<trkpt lat="43.813515" lon="5.422672"><ele>902</ele><time>2011-01-14T11:19:12Z</time></trkpt>
<trkpt lat="43.813385" lon="5.422208"><ele>900.3</ele><time>2011-01-14T11:19:17Z</time></trkpt>
<trkpt lat="43.813317" lon="5.421735"><ele>899.3</ele><time>2011-01-14T11:19:22Z</time></trkpt>
<trkpt lat="43.813278" lon="5.421285"><ele>898.1</ele><time>2011-01-14T11:19:27Z</time></trkpt>
<trkpt lat="43.813198" lon="5.420835"><ele>896.4</ele><time>2011-01-14T11:19:32Z</time></trkpt>
<trkpt lat="43.813152" lon="5.420427"><ele>894.6</ele><time>2011-01-14T11:19:37Z</time></trkpt>
<trkpt lat="43.813107" lon="5.420017"><ele>892.7</ele><time>2011-01-14T11:19:42Z</time></trkpt>
<trkpt lat="43.813045" lon="5.419587"><ele>890.6</ele><time>2011-01-14T11:19:47Z</time></trkpt>
<trkpt lat="43.812915" lon="5.419243"><ele>888.4</ele><time>2011-01-14T11:19:52Z</time></trkpt>
<trkpt lat="43.812763" lon="5.418975"><ele>886</ele><time>2011-01-14T11:19:57Z</time></trkpt>
<trkpt lat="43.812642" lon="5.418725"><ele>883.9</ele><time>2011-01-14T11:20:02Z</time></trkpt>
<trkpt lat="43.812550" lon="5.418410"><ele>881.6</ele><time>2011-01-14T11:20:07Z</time></trkpt>
<trkpt lat="43.812545" lon="5.418033"><ele>879.4</ele><time>2011-01-14T11:20:12Z</time></trkpt>
<trkpt lat="43.812642" lon="5.417673"><ele>877.1</ele><time>2011-01-14T11:20:17Z</time></trkpt>
<trkpt lat="43.812740" lon="5.417357"><ele>874.8</ele><time>2011-01-14T11:20:22Z</time></trkpt>
<trkpt lat="43.812793" lon="5.416992"><ele>872.4</ele><time>2011-01-14T11:20:27Z</time></trkpt>
<trkpt lat="43.812813" lon="5.416550"><ele>869.6</ele><time>2011-01-14T11:20:32Z</time></trkpt>
<trkpt lat="43.812825" lon="5.416098"><ele>866.9</ele><time>2011-01-14T11:20:37Z</time></trkpt>
<trkpt lat="43.812775" lon="5.415910"><ele>866.9</ele><time>2011-01-14T11:20:42Z</time></trkpt>
<trkpt lat="43.812672" lon="5.415862"><ele>866.8</ele><time>2011-01-14T11:20:47Z</time></trkpt>
<trkpt lat="43.812523" lon="5.415678"><ele>867</ele><time>2011-01-14T11:20:52Z</time></trkpt>
<trkpt lat="43.812400" lon="5.415418"><ele>866.8</ele><time>2011-01-14T11:20:57Z</time></trkpt>
<trkpt lat="43.812290" lon="5.415092"><ele>866.4</ele><time>2011-01-14T11:21:02Z</time></trkpt>
<trkpt lat="43.812145" lon="5.414762"><ele>866.1</ele><time>2011-01-14T11:21:07Z</time></trkpt>
<trkpt lat="43.811977" lon="5.414535"><ele>866</ele><time>2011-01-14T11:21:12Z</time></trkpt>
<trkpt lat="43.811802" lon="5.414338"><ele>866.1</ele><time>2011-01-14T11:21:17Z</time></trkpt>
<trkpt lat="43.811618" lon="5.414103"><ele>865.9</ele><time>2011-01-14T11:21:22Z</time></trkpt>
<trkpt lat="43.811547" lon="5.413748"><ele>865.4</ele><time>2011-01-14T11:21:27Z</time></trkpt>
<trkpt lat="43.811588" lon="5.413370"><ele>865.4</ele><time>2011-01-14T11:21:32Z</time></trkpt>
<trkpt lat="43.811600" lon="5.413002"><ele>865.4</ele><time>2011-01-14T11:21:37Z</time></trkpt>
<trkpt lat="43.811520" lon="5.412653"><ele>865.2</ele><time>2011-01-14T11:21:42Z</time></trkpt>
<trkpt lat="43.811447" lon="5.412327"><ele>864.1</ele><time>2011-01-14T11:21:47Z</time></trkpt>
<trkpt lat="43.811263" lon="5.412073"><ele>861.7</ele><time>2011-01-14T11:21:52Z</time></trkpt>
<trkpt lat="43.811005" lon="5.411842"><ele>859.8</ele><time>2011-01-14T11:21:57Z</time></trkpt>
<trkpt lat="43.810792" lon="5.411610"><ele>860.1</ele><time>2011-01-14T11:22:02Z</time></trkpt>
<trkpt lat="43.810665" lon="5.411493"><ele>861.3</ele><time>2011-01-14T11:22:07Z</time></trkpt>
<trkpt lat="43.810585" lon="5.411405"><ele>862</ele><time>2011-01-14T11:22:12Z</time></trkpt>
<trkpt lat="43.810540" lon="5.411320"><ele>862.7</ele><time>2011-01-14T11:22:17Z</time></trkpt>
<trkpt lat="43.810487" lon="5.411245"><ele>863.5</ele><time>2011-01-14T11:22:22Z</time></trkpt>
<trkpt lat="43.810440" lon="5.411158"><ele>864.5</ele><time>2011-01-14T11:22:27Z</time></trkpt>
<trkpt lat="43.810413" lon="5.411055"><ele>865.2</ele><time>2011-01-14T11:22:32Z</time></trkpt>
<trkpt lat="43.810383" lon="5.410945"><ele>866.1</ele><time>2011-01-14T11:22:37Z</time></trkpt>
<trkpt lat="43.810342" lon="5.410853"><ele>866.9</ele><time>2011-01-14T11:22:42Z</time></trkpt>
<trkpt lat="43.810287" lon="5.410772"><ele>867.6</ele><time>2011-01-14T11:22:47Z</time></trkpt>
<trkpt lat="43.810230" lon="5.410700"><ele>868.5</ele><time>2011-01-14T11:22:52Z</time></trkpt>
<trkpt lat="43.810197" lon="5.410610"><ele>869.1</ele><time>2011-01-14T11:22:57Z</time></trkpt>
<trkpt lat="43.810153" lon="5.410522"><ele>869.9</ele><time>2011-01-14T11:23:02Z</time></trkpt>
<trkpt lat="43.810112" lon="5.410427"><ele>870.5</ele><time>2011-01-14T11:23:07Z</time></trkpt>
<trkpt lat="43.810082" lon="5.410342"><ele>871.1</ele><time>2011-01-14T11:23:12Z</time></trkpt>
<trkpt lat="43.810055" lon="5.410258"><ele>871.6</ele><time>2011-01-14T11:23:17Z</time></trkpt>
<trkpt lat="43.810020" lon="5.410162"><ele>872.1</ele><time>2011-01-14T11:23:22Z</time></trkpt>
<trkpt lat="43.809993" lon="5.410068"><ele>872.8</ele><time>2011-01-14T11:23:27Z</time></trkpt>
<trkpt lat="43.809963" lon="5.409972"><ele>873.5</ele><time>2011-01-14T11:23:32Z</time></trkpt>
<trkpt lat="43.809925" lon="5.409877"><ele>874.1</ele><time>2011-01-14T11:23:37Z</time></trkpt>
<trkpt lat="43.809887" lon="5.409783"><ele>874.6</ele><time>2011-01-14T11:23:42Z</time></trkpt>
<trkpt lat="43.809833" lon="5.409693"><ele>875.2</ele><time>2011-01-14T11:23:47Z</time></trkpt>
<trkpt lat="43.809780" lon="5.409603"><ele>876</ele><time>2011-01-14T11:23:52Z</time></trkpt>
<trkpt lat="43.809715" lon="5.409518"><ele>876.7</ele><time>2011-01-14T11:23:57Z</time></trkpt>
<trkpt lat="43.809638" lon="5.409443"><ele>877.3</ele><time>2011-01-14T11:24:02Z</time></trkpt>
<trkpt lat="43.809582" lon="5.409343"><ele>878</ele><time>2011-01-14T11:24:07Z</time></trkpt>
<trkpt lat="43.809528" lon="5.409227"><ele>878.6</ele><time>2011-01-14T11:24:12Z</time></trkpt>
<trkpt lat="43.809502" lon="5.409098"><ele>879.2</ele><time>2011-01-14T11:24:17Z</time></trkpt>
<trkpt lat="43.809498" lon="5.408965"><ele>880</ele><time>2011-01-14T11:24:22Z</time></trkpt>
<trkpt lat="43.809520" lon="5.408838"><ele>880.7</ele><time>2011-01-14T11:24:27Z</time></trkpt>
<trkpt lat="43.809547" lon="5.408722"><ele>881.4</ele><time>2011-01-14T11:24:32Z</time></trkpt>
<trkpt lat="43.809597" lon="5.408603"><ele>882.1</ele><time>2011-01-14T11:24:37Z</time></trkpt>
<trkpt lat="43.809658" lon="5.408478"><ele>882.8</ele><time>2011-01-14T11:24:42Z</time></trkpt>
<trkpt lat="43.809727" lon="5.408357"><ele>883.6</ele><time>2011-01-14T11:24:47Z</time></trkpt>
<trkpt lat="43.809792" lon="5.408238"><ele>884.3</ele><time>2011-01-14T11:24:52Z</time></trkpt>
<trkpt lat="43.809863" lon="5.408135"><ele>885.1</ele><time>2011-01-14T11:24:57Z</time></trkpt>
<trkpt lat="43.809928" lon="5.408005"><ele>885.9</ele><time>2011-01-14T11:25:02Z</time></trkpt>
<trkpt lat="43.809982" lon="5.407875"><ele>886.6</ele><time>2011-01-14T11:25:07Z</time></trkpt>
<trkpt lat="43.810032" lon="5.407727"><ele>887</ele><time>2011-01-14T11:25:12Z</time></trkpt>
<trkpt lat="43.810097" lon="5.407572"><ele>887.4</ele><time>2011-01-14T11:25:17Z</time></trkpt>
<trkpt lat="43.810162" lon="5.407397"><ele>887.9</ele><time>2011-01-14T11:25:22Z</time></trkpt>
<trkpt lat="43.810223" lon="5.407207"><ele>888.3</ele><time>2011-01-14T11:25:27Z</time></trkpt>
<trkpt lat="43.810272" lon="5.406985"><ele>888.4</ele><time>2011-01-14T11:25:32Z</time></trkpt>
<trkpt lat="43.810307" lon="5.406737"><ele>888.3</ele><time>2011-01-14T11:25:37Z</time></trkpt>
<trkpt lat="43.810330" lon="5.406468"><ele>888.1</ele><time>2011-01-14T11:25:42Z</time></trkpt>
<trkpt lat="43.810322" lon="5.406223"><ele>888.1</ele><time>2011-01-14T11:25:47Z</time></trkpt>
<trkpt lat="43.810298" lon="5.406037"><ele>888.2</ele><time>2011-01-14T11:25:52Z</time></trkpt>
<trkpt lat="43.810212" lon="5.405938"><ele>888.2</ele><time>2011-01-14T11:25:57Z</time></trkpt>
<trkpt lat="43.810143" lon="5.405862"><ele>888.6</ele><time>2011-01-14T11:26:02Z</time></trkpt>
<trkpt lat="43.810093" lon="5.405782"><ele>889.2</ele><time>2011-01-14T11:26:07Z</time></trkpt>
<trkpt lat="43.810040" lon="5.405705"><ele>890.1</ele><time>2011-01-14T11:26:12Z</time></trkpt>
<trkpt lat="43.809975" lon="5.405642"><ele>890.4</ele><time>2011-01-14T11:26:17Z</time></trkpt>
<trkpt lat="43.809887" lon="5.405603"><ele>890.6</ele><time>2011-01-14T11:26:22Z</time></trkpt>
<trkpt lat="43.809788" lon="5.405555"><ele>890.9</ele><time>2011-01-14T11:26:27Z</time></trkpt>
<trkpt lat="43.809673" lon="5.405500"><ele>891</ele><time>2011-01-14T11:26:32Z</time></trkpt>
<trkpt lat="43.809525" lon="5.405457"><ele>891</ele><time>2011-01-14T11:26:37Z</time></trkpt>
<trkpt lat="43.809345" lon="5.405443"><ele>890.7</ele><time>2011-01-14T11:26:42Z</time></trkpt>
<trkpt lat="43.809150" lon="5.405468"><ele>890.5</ele><time>2011-01-14T11:26:47Z</time></trkpt>
<trkpt lat="43.808963" lon="5.405503"><ele>890.5</ele><time>2011-01-14T11:26:52Z</time></trkpt>
<trkpt lat="43.808758" lon="5.405515"><ele>890.3</ele><time>2011-01-14T11:26:57Z</time></trkpt>
<trkpt lat="43.808548" lon="5.405422"><ele>889.9</ele><time>2011-01-14T11:27:02Z</time></trkpt>
<trkpt lat="43.808388" lon="5.405188"><ele>888.8</ele><time>2011-01-14T11:27:07Z</time></trkpt>
<trkpt lat="43.808258" lon="5.404855"><ele>887.2</ele><time>2011-01-14T11:27:12Z</time></trkpt>
<trkpt lat="43.808102" lon="5.404552"><ele>886.6</ele><time>2011-01-14T11:27:17Z</time></trkpt>
<trkpt lat="43.807960" lon="5.404325"><ele>886.6</ele><time>2011-01-14T11:27:22Z</time></trkpt>
<trkpt lat="43.807873" lon="5.404062"><ele>886.8</ele><time>2011-01-14T11:27:27Z</time></trkpt>
<trkpt lat="43.807888" lon="5.403752"><ele>886.5</ele><time>2011-01-14T11:27:32Z</time></trkpt>
<trkpt lat="43.807922" lon="5.403445"><ele>885.9</ele><time>2011-01-14T11:27:37Z</time></trkpt>
<trkpt lat="43.807960" lon="5.403135"><ele>885.4</ele><time>2011-01-14T11:27:42Z</time></trkpt>
<trkpt lat="43.807995" lon="5.402822"><ele>885.3</ele><time>2011-01-14T11:27:47Z</time></trkpt>
<trkpt lat="43.807912" lon="5.402565"><ele>884.9</ele><time>2011-01-14T11:27:52Z</time></trkpt>
<trkpt lat="43.807705" lon="5.402388"><ele>883.8</ele><time>2011-01-14T11:27:57Z</time></trkpt>
<trkpt lat="43.807483" lon="5.402175"><ele>882.6</ele><time>2011-01-14T11:28:02Z</time></trkpt>
<trkpt lat="43.807415" lon="5.401842"><ele>881.7</ele><time>2011-01-14T11:28:07Z</time></trkpt>
<trkpt lat="43.807347" lon="5.401572"><ele>881.2</ele><time>2011-01-14T11:28:12Z</time></trkpt>
<trkpt lat="43.807285" lon="5.401357"><ele>881.3</ele><time>2011-01-14T11:28:17Z</time></trkpt>
<trkpt lat="43.807282" lon="5.401183"><ele>881.7</ele><time>2011-01-14T11:28:22Z</time></trkpt>
<trkpt lat="43.807273" lon="5.401060"><ele>882.4</ele><time>2011-01-14T11:28:27Z</time></trkpt>
<trkpt lat="43.807273" lon="5.400955"><ele>883.1</ele><time>2011-01-14T11:28:32Z</time></trkpt>
<trkpt lat="43.807270" lon="5.400848"><ele>884</ele><time>2011-01-14T11:28:37Z</time></trkpt>
<trkpt lat="43.807267" lon="5.400743"><ele>885.1</ele><time>2011-01-14T11:28:42Z</time></trkpt>
<trkpt lat="43.807258" lon="5.400635"><ele>886</ele><time>2011-01-14T11:28:47Z</time></trkpt>
<trkpt lat="43.807252" lon="5.400538"><ele>887</ele><time>2011-01-14T11:28:52Z</time></trkpt>
<trkpt lat="43.807255" lon="5.400465"><ele>888.4</ele><time>2011-01-14T11:28:57Z</time></trkpt>
<trkpt lat="43.807252" lon="5.400390"><ele>889.7</ele><time>2011-01-14T11:29:02Z</time></trkpt>
<trkpt lat="43.807217" lon="5.400327"><ele>890.4</ele><time>2011-01-14T11:29:07Z</time></trkpt>
<trkpt lat="43.807208" lon="5.400248"><ele>891.1</ele><time>2011-01-14T11:29:12Z</time></trkpt>
<trkpt lat="43.807205" lon="5.400173"><ele>892.1</ele><time>2011-01-14T11:29:17Z</time></trkpt>
<trkpt lat="43.807202" lon="5.400098"><ele>892.9</ele><time>2011-01-14T11:29:22Z</time></trkpt>
<trkpt lat="43.807208" lon="5.400033"><ele>893.7</ele><time>2011-01-14T11:29:27Z</time></trkpt>
<trkpt lat="43.807208" lon="5.399965"><ele>894.5</ele><time>2011-01-14T11:29:32Z</time></trkpt>
<trkpt lat="43.807205" lon="5.399892"><ele>895.5</ele><time>2011-01-14T11:29:37Z</time></trkpt>
<trkpt lat="43.807213" lon="5.399828"><ele>896.5</ele><time>2011-01-14T11:29:42Z</time></trkpt>
<trkpt lat="43.807217" lon="5.399757"><ele>897.2</ele><time>2011-01-14T11:29:47Z</time></trkpt>
<trkpt lat="43.807202" lon="5.399687"><ele>897.6</ele><time>2011-01-14T11:29:52Z</time></trkpt>
<trkpt lat="43.807202" lon="5.399613"><ele>898.2</ele><time>2011-01-14T11:29:57Z</time></trkpt>
<trkpt lat="43.807205" lon="5.399537"><ele>898.8</ele><time>2011-01-14T11:30:02Z</time></trkpt>
<trkpt lat="43.807208" lon="5.399460"><ele>899.4</ele><time>2011-01-14T11:30:07Z</time></trkpt>
<trkpt lat="43.807202" lon="5.399385"><ele>900.1</ele><time>2011-01-14T11:30:12Z</time></trkpt>
<trkpt lat="43.807213" lon="5.399317"><ele>901</ele><time>2011-01-14T11:30:17Z</time></trkpt>
<trkpt lat="43.807252" lon="5.399275"><ele>901.7</ele><time>2011-01-14T11:30:22Z</time></trkpt>
<trkpt lat="43.807282" lon="5.399217"><ele>902.4</ele><time>2011-01-14T11:30:27Z</time></trkpt>
<trkpt lat="43.807305" lon="5.399152"><ele>903</ele><time>2011-01-14T11:30:32Z</time></trkpt>
<trkpt lat="43.807320" lon="5.399083"><ele>903.5</ele><time>2011-01-14T11:30:37Z</time></trkpt>
<trkpt lat="43.807327" lon="5.399012"><ele>903.8</ele><time>2011-01-14T11:30:42Z</time></trkpt>
<trkpt lat="43.807365" lon="5.398963"><ele>904.4</ele><time>2011-01-14T11:30:47Z</time></trkpt>
<trkpt lat="43.807415" lon="5.398930"><ele>905.1</ele><time>2011-01-14T11:30:52Z</time></trkpt>
<trkpt lat="43.807460" lon="5.398922"><ele>905.8</ele><time>2011-01-14T11:30:57Z</time></trkpt>
<trkpt lat="43.807510" lon="5.398925"><ele>906.3</ele><time>2011-01-14T11:31:02Z</time></trkpt>
<trkpt lat="43.807552" lon="5.398912"><ele>906.3</ele><time>2011-01-14T11:31:07Z</time></trkpt>
<trkpt lat="43.807575" lon="5.398922"><ele>906.2</ele><time>2011-01-14T11:31:12Z</time></trkpt>
<trkpt lat="43.807572" lon="5.398922"><ele>906</ele><time>2011-01-14T11:31:17Z</time></trkpt>
<trkpt lat="43.807572" lon="5.398922"><ele>906.1</ele><time>2011-01-14T11:31:22Z</time></trkpt>
<trkpt lat="43.807568" lon="5.398917"><ele>906</ele><time>2011-01-14T11:31:27Z</time></trkpt>
<trkpt lat="43.807568" lon="5.398920"><ele>905.9</ele><time>2011-01-14T11:31:32Z</time></trkpt>
<trkpt lat="43.807563" lon="5.398918"><ele>905.9</ele><time>2011-01-14T11:31:37Z</time></trkpt>
<trkpt lat="43.807548" lon="5.398915"><ele>905.8</ele><time>2011-01-14T11:31:42Z</time></trkpt>
<trkpt lat="43.807548" lon="5.398918"><ele>905.6</ele><time>2011-01-14T11:31:47Z</time></trkpt>
<trkpt lat="43.807545" lon="5.398927"><ele>905.8</ele><time>2011-01-14T11:31:52Z</time></trkpt>
<trkpt lat="43.807545" lon="5.398925"><ele>906.1</ele><time>2011-01-14T11:31:57Z</time></trkpt>
<trkpt lat="43.807545" lon="5.398922"><ele>905.8</ele><time>2011-01-14T11:32:02Z</time></trkpt>
<trkpt lat="43.807545" lon="5.398915"><ele>905.6</ele><time>2011-01-14T11:32:07Z</time></trkpt>
<trkpt lat="43.807545" lon="5.398913"><ele>905.6</ele><time>2011-01-14T11:32:12Z</time></trkpt>
<trkpt lat="43.807542" lon="5.398913"><ele>905.4</ele><time>2011-01-14T11:32:17Z</time></trkpt>
<trkpt lat="43.807548" lon="5.398932"><ele>905.2</ele><time>2011-01-14T11:32:22Z</time></trkpt>
<trkpt lat="43.807545" lon="5.398935"><ele>905.2</ele><time>2011-01-14T11:32:27Z</time></trkpt>
<trkpt lat="43.807548" lon="5.398935"><ele>905.2</ele><time>2011-01-14T11:32:32Z</time></trkpt>
<trkpt lat="43.807542" lon="5.398910"><ele>905.2</ele><time>2011-01-14T11:32:37Z</time></trkpt>
<trkpt lat="43.807492" lon="5.398812"><ele>904.6</ele><time>2011-01-14T11:32:42Z</time></trkpt>
<trkpt lat="43.807427" lon="5.398693"><ele>903.4</ele><time>2011-01-14T11:32:47Z</time></trkpt>
<trkpt lat="43.807338" lon="5.398572"><ele>902.2</ele><time>2011-01-14T11:32:52Z</time></trkpt>
<trkpt lat="43.807228" lon="5.398525"><ele>901.3</ele><time>2011-01-14T11:32:57Z</time></trkpt>
<trkpt lat="43.807148" lon="5.398430"><ele>900.4</ele><time>2011-01-14T11:33:02Z</time></trkpt>
<trkpt lat="43.807057" lon="5.398282"><ele>899.1</ele><time>2011-01-14T11:33:07Z</time></trkpt>
<trkpt lat="43.807010" lon="5.398085"><ele>897.4</ele><time>2011-01-14T11:33:12Z</time></trkpt>
<trkpt lat="43.806995" lon="5.397882"><ele>895.9</ele><time>2011-01-14T11:33:17Z</time></trkpt>
<trkpt lat="43.806962" lon="5.397690"><ele>894.2</ele><time>2011-01-14T11:33:22Z</time></trkpt>
<trkpt lat="43.806870" lon="5.397515"><ele>892.1</ele><time>2011-01-14T11:33:27Z</time></trkpt>
<trkpt lat="43.806797" lon="5.397293"><ele>889.8</ele><time>2011-01-14T11:33:32Z</time></trkpt>
<trkpt lat="43.806713" lon="5.397082"><ele>887.4</ele><time>2011-01-14T11:33:37Z</time></trkpt>
<trkpt lat="43.806663" lon="5.396873"><ele>885.2</ele><time>2011-01-14T11:33:42Z</time></trkpt>
<trkpt lat="43.806625" lon="5.396697"><ele>883.5</ele><time>2011-01-14T11:33:47Z</time></trkpt>
<trkpt lat="43.806522" lon="5.396698"><ele>882.7</ele><time>2011-01-14T11:33:52Z</time></trkpt>
<trkpt lat="43.806480" lon="5.396838"><ele>883</ele><time>2011-01-14T11:33:57Z</time></trkpt>
<trkpt lat="43.806403" lon="5.396968"><ele>883.1</ele><time>2011-01-14T11:34:02Z</time></trkpt>
<trkpt lat="43.806347" lon="5.397092"><ele>883.4</ele><time>2011-01-14T11:34:07Z</time></trkpt>
<trkpt lat="43.806270" lon="5.397237"><ele>883.5</ele><time>2011-01-14T11:34:12Z</time></trkpt>
<trkpt lat="43.806168" lon="5.397360"><ele>883.8</ele><time>2011-01-14T11:34:17Z</time></trkpt>
<trkpt lat="43.806068" lon="5.397483"><ele>884.3</ele><time>2011-01-14T11:34:22Z</time></trkpt>
<trkpt lat="43.805977" lon="5.397627"><ele>884.8</ele><time>2011-01-14T11:34:27Z</time></trkpt>
<trkpt lat="43.805915" lon="5.397802"><ele>885.4</ele><time>2011-01-14T11:34:32Z</time></trkpt>
<trkpt lat="43.805900" lon="5.398010"><ele>885.8</ele><time>2011-01-14T11:34:37Z</time></trkpt>
<trkpt lat="43.805932" lon="5.398218"><ele>886.1</ele><time>2011-01-14T11:34:42Z</time></trkpt>
<trkpt lat="43.805947" lon="5.398428"><ele>886.3</ele><time>2011-01-14T11:34:47Z</time></trkpt>
<trkpt lat="43.805962" lon="5.398657"><ele>886.5</ele><time>2011-01-14T11:34:52Z</time></trkpt>
<trkpt lat="43.805985" lon="5.398888"><ele>886.8</ele><time>2011-01-14T11:34:57Z</time></trkpt>
<trkpt lat="43.806007" lon="5.399117"><ele>887.4</ele><time>2011-01-14T11:35:02Z</time></trkpt>
<trkpt lat="43.806050" lon="5.399342"><ele>887.8</ele><time>2011-01-14T11:35:07Z</time></trkpt>
<trkpt lat="43.806148" lon="5.399550"><ele>888.3</ele><time>2011-01-14T11:35:12Z</time></trkpt>
<trkpt lat="43.806278" lon="5.399705"><ele>888.5</ele><time>2011-01-14T11:35:17Z</time></trkpt>
<trkpt lat="43.806408" lon="5.399868"><ele>888.5</ele><time>2011-01-14T11:35:22Z</time></trkpt>
<trkpt lat="43.806538" lon="5.400032"><ele>888.6</ele><time>2011-01-14T11:35:27Z</time></trkpt>
<trkpt lat="43.806667" lon="5.400210"><ele>888.5</ele><time>2011-01-14T11:35:32Z</time></trkpt>
<trkpt lat="43.806802" lon="5.400407"><ele>888.3</ele><time>2011-01-14T11:35:37Z</time></trkpt>
<trkpt lat="43.806930" lon="5.400610"><ele>887.3</ele><time>2011-01-14T11:35:42Z</time></trkpt>
<trkpt lat="43.807060" lon="5.400878"><ele>885.6</ele><time>2011-01-14T11:35:47Z</time></trkpt>
<trkpt lat="43.807205" lon="5.401222"><ele>883.6</ele><time>2011-01-14T11:35:52Z</time></trkpt>
<trkpt lat="43.807327" lon="5.401508"><ele>882.5</ele><time>2011-01-14T11:35:57Z</time></trkpt>
<trkpt lat="43.807392" lon="5.401738"><ele>882.4</ele><time>2011-01-14T11:36:02Z</time></trkpt>
<trkpt lat="43.807442" lon="5.401943"><ele>882.8</ele><time>2011-01-14T11:36:07Z</time></trkpt>
<trkpt lat="43.807477" lon="5.402137"><ele>883.3</ele><time>2011-01-14T11:36:12Z</time></trkpt>
<trkpt lat="43.807545" lon="5.402335"><ele>883.8</ele><time>2011-01-14T11:36:17Z</time></trkpt>
<trkpt lat="43.807690" lon="5.402440"><ele>884.5</ele><time>2011-01-14T11:36:22Z</time></trkpt>
<trkpt lat="43.807847" lon="5.402535"><ele>885.6</ele><time>2011-01-14T11:36:27Z</time></trkpt>
<trkpt lat="43.807972" lon="5.402698"><ele>886.3</ele><time>2011-01-14T11:36:32Z</time></trkpt>
<trkpt lat="43.808010" lon="5.402930"><ele>886.6</ele><time>2011-01-14T11:36:37Z</time></trkpt>
<trkpt lat="43.807983" lon="5.403173"><ele>886.4</ele><time>2011-01-14T11:36:42Z</time></trkpt>
<trkpt lat="43.807953" lon="5.403418"><ele>886.6</ele><time>2011-01-14T11:36:47Z</time></trkpt>
<trkpt lat="43.807927" lon="5.403668"><ele>886.9</ele><time>2011-01-14T11:36:52Z</time></trkpt>
<trkpt lat="43.807892" lon="5.403920"><ele>887.2</ele><time>2011-01-14T11:36:57Z</time></trkpt>
<trkpt lat="43.807903" lon="5.404180"><ele>887.4</ele><time>2011-01-14T11:37:02Z</time></trkpt>
<trkpt lat="43.807998" lon="5.404413"><ele>887.2</ele><time>2011-01-14T11:37:07Z</time></trkpt>
<trkpt lat="43.808120" lon="5.404598"><ele>887.3</ele><time>2011-01-14T11:37:12Z</time></trkpt>
<trkpt lat="43.808228" lon="5.404815"><ele>887.7</ele><time>2011-01-14T11:37:17Z</time></trkpt>
<trkpt lat="43.808327" lon="5.405002"><ele>888.5</ele><time>2011-01-14T11:37:22Z</time></trkpt>
<trkpt lat="43.808392" lon="5.405157"><ele>889.4</ele><time>2011-01-14T11:37:27Z</time></trkpt>
<trkpt lat="43.808442" lon="5.405303"><ele>890.3</ele><time>2011-01-14T11:37:32Z</time></trkpt>
<trkpt lat="43.808537" lon="5.405435"><ele>891.1</ele><time>2011-01-14T11:37:37Z</time></trkpt>
<trkpt lat="43.808667" lon="5.405523"><ele>891.6</ele><time>2011-01-14T11:37:42Z</time></trkpt>
<trkpt lat="43.808827" lon="5.405562"><ele>892.1</ele><time>2011-01-14T11:37:47Z</time></trkpt>
<trkpt lat="43.809010" lon="5.405562"><ele>892.3</ele><time>2011-01-14T11:37:52Z</time></trkpt>
<trkpt lat="43.809203" lon="5.405538"><ele>892.3</ele><time>2011-01-14T11:37:57Z</time></trkpt>
<trkpt lat="43.809398" lon="5.405502"><ele>892.3</ele><time>2011-01-14T11:38:02Z</time></trkpt>
<trkpt lat="43.809593" lon="5.405508"><ele>892.3</ele><time>2011-01-14T11:38:07Z</time></trkpt>
<trkpt lat="43.809800" lon="5.405585"><ele>892</ele><time>2011-01-14T11:38:12Z</time></trkpt>
<trkpt lat="43.810008" lon="5.405703"><ele>891.1</ele><time>2011-01-14T11:38:17Z</time></trkpt>
<trkpt lat="43.810245" lon="5.405802"><ele>889.5</ele><time>2011-01-14T11:38:22Z</time></trkpt>
<trkpt lat="43.810368" lon="5.406110"><ele>888.6</ele><time>2011-01-14T11:38:27Z</time></trkpt>
<trkpt lat="43.810402" lon="5.406342"><ele>888.4</ele><time>2011-01-14T11:38:32Z</time></trkpt>
<trkpt lat="43.810357" lon="5.406515"><ele>888</ele><time>2011-01-14T11:38:37Z</time></trkpt>
<trkpt lat="43.810322" lon="5.406750"><ele>887.9</ele><time>2011-01-14T11:38:42Z</time></trkpt>
<trkpt lat="43.810292" lon="5.407020"><ele>887.7</ele><time>2011-01-14T11:38:47Z</time></trkpt>
<trkpt lat="43.810230" lon="5.407298"><ele>887.2</ele><time>2011-01-14T11:38:52Z</time></trkpt>
<trkpt lat="43.810120" lon="5.407578"><ele>886.3</ele><time>2011-01-14T11:38:57Z</time></trkpt>
<trkpt lat="43.809990" lon="5.407897"><ele>885.1</ele><time>2011-01-14T11:39:02Z</time></trkpt>
<trkpt lat="43.809837" lon="5.408238"><ele>883.6</ele><time>2011-01-14T11:39:07Z</time></trkpt>
<trkpt lat="43.809635" lon="5.408595"><ele>881.6</ele><time>2011-01-14T11:39:12Z</time></trkpt>
<trkpt lat="43.809517" lon="5.408978"><ele>879.4</ele><time>2011-01-14T11:39:17Z</time></trkpt>
<trkpt lat="43.809570" lon="5.409360"><ele>877.4</ele><time>2011-01-14T11:39:22Z</time></trkpt>
<trkpt lat="43.809768" lon="5.409635"><ele>875.8</ele><time>2011-01-14T11:39:27Z</time></trkpt>
<trkpt lat="43.809955" lon="5.409972"><ele>873.7</ele><time>2011-01-14T11:39:32Z</time></trkpt>
<trkpt lat="43.810093" lon="5.410398"><ele>870.9</ele><time>2011-01-14T11:39:37Z</time></trkpt>
<trkpt lat="43.810250" lon="5.410765"><ele>868.1</ele><time>2011-01-14T11:39:42Z</time></trkpt>
<trkpt lat="43.810413" lon="5.411040"><ele>865.4</ele><time>2011-01-14T11:39:47Z</time></trkpt>
<trkpt lat="43.810520" lon="5.411362"><ele>862.5</ele><time>2011-01-14T11:39:52Z</time></trkpt>
<trkpt lat="43.810742" lon="5.411628"><ele>860</ele><time>2011-01-14T11:39:57Z</time></trkpt>
<trkpt lat="43.810925" lon="5.411832"><ele>859</ele><time>2011-01-14T11:40:02Z</time></trkpt>
<trkpt lat="43.811000" lon="5.411763"><ele>858.5</ele><time>2011-01-14T11:40:07Z</time></trkpt>
<trkpt lat="43.811058" lon="5.411658"><ele>857.3</ele><time>2011-01-14T11:40:12Z</time></trkpt>
<trkpt lat="43.811085" lon="5.411513"><ele>855.6</ele><time>2011-01-14T11:40:17Z</time></trkpt>
<trkpt lat="43.811097" lon="5.411385"><ele>854.4</ele><time>2011-01-14T11:40:22Z</time></trkpt>
<trkpt lat="43.811115" lon="5.411293"><ele>853</ele><time>2011-01-14T11:40:27Z</time></trkpt>
<trkpt lat="43.811138" lon="5.411192"><ele>851.5</ele><time>2011-01-14T11:40:32Z</time></trkpt>
<trkpt lat="43.811153" lon="5.411107"><ele>850.3</ele><time>2011-01-14T11:40:37Z</time></trkpt>
<trkpt lat="43.811218" lon="5.411050"><ele>848.3</ele><time>2011-01-14T11:40:42Z</time></trkpt>
<trkpt lat="43.811307" lon="5.411098"><ele>846.6</ele><time>2011-01-14T11:40:47Z</time></trkpt>
<trkpt lat="43.811398" lon="5.411130"><ele>845.1</ele><time>2011-01-14T11:40:52Z</time></trkpt>
<trkpt lat="43.811485" lon="5.411153"><ele>843.4</ele><time>2011-01-14T11:40:57Z</time></trkpt>
<trkpt lat="43.811588" lon="5.411205"><ele>841.6</ele><time>2011-01-14T11:41:02Z</time></trkpt>
<trkpt lat="43.811695" lon="5.411258"><ele>839.7</ele><time>2011-01-14T11:41:07Z</time></trkpt>
<trkpt lat="43.811805" lon="5.411287"><ele>837.4</ele><time>2011-01-14T11:41:12Z</time></trkpt>
<trkpt lat="43.811905" lon="5.411322"><ele>835.6</ele><time>2011-01-14T11:41:17Z</time></trkpt>
<trkpt lat="43.811923" lon="5.411263"><ele>833.8</ele><time>2011-01-14T11:41:22Z</time></trkpt>
<trkpt lat="43.811852" lon="5.411155"><ele>831.6</ele><time>2011-01-14T11:41:27Z</time></trkpt>
<trkpt lat="43.811805" lon="5.411012"><ele>829.5</ele><time>2011-01-14T11:41:32Z</time></trkpt>
<trkpt lat="43.811748" lon="5.410885"><ele>828.2</ele><time>2011-01-14T11:41:37Z</time></trkpt>
<trkpt lat="43.811745" lon="5.410818"><ele>826.9</ele><time>2011-01-14T11:41:42Z</time></trkpt>
<trkpt lat="43.811828" lon="5.410855"><ele>825.2</ele><time>2011-01-14T11:41:47Z</time></trkpt>
<trkpt lat="43.811928" lon="5.410923"><ele>823</ele><time>2011-01-14T11:41:52Z</time></trkpt>
<trkpt lat="43.812023" lon="5.410982"><ele>821.3</ele><time>2011-01-14T11:41:57Z</time></trkpt>
<trkpt lat="43.812142" lon="5.411030"><ele>818.7</ele><time>2011-01-14T11:42:02Z</time></trkpt>
<trkpt lat="43.812272" lon="5.411082"><ele>816</ele><time>2011-01-14T11:42:07Z</time></trkpt>
<trkpt lat="43.812382" lon="5.411125"><ele>813.9</ele><time>2011-01-14T11:42:12Z</time></trkpt>
<trkpt lat="43.812482" lon="5.411163"><ele>812.3</ele><time>2011-01-14T11:42:17Z</time></trkpt>
<trkpt lat="43.812465" lon="5.411060"><ele>809.5</ele><time>2011-01-14T11:42:22Z</time></trkpt>
<trkpt lat="43.812390" lon="5.410963"><ele>807.4</ele><time>2011-01-14T11:42:27Z</time></trkpt>
<trkpt lat="43.812332" lon="5.410863"><ele>805.9</ele><time>2011-01-14T11:42:32Z</time></trkpt>
<trkpt lat="43.812337" lon="5.410790"><ele>803.7</ele><time>2011-01-14T11:42:37Z</time></trkpt>
<trkpt lat="43.812432" lon="5.410823"><ele>801.3</ele><time>2011-01-14T11:42:42Z</time></trkpt>
<trkpt lat="43.812527" lon="5.410848"><ele>799.2</ele><time>2011-01-14T11:42:47Z</time></trkpt>
<trkpt lat="43.812637" lon="5.410867"><ele>796.6</ele><time>2011-01-14T11:42:52Z</time></trkpt>
<trkpt lat="43.812728" lon="5.410907"><ele>794.8</ele><time>2011-01-14T11:42:57Z</time></trkpt>
<trkpt lat="43.812798" lon="5.410887"><ele>792.5</ele><time>2011-01-14T11:43:02Z</time></trkpt>
<trkpt lat="43.812717" lon="5.410770"><ele>790.7</ele><time>2011-01-14T11:43:07Z</time></trkpt>
<trkpt lat="43.812663" lon="5.410677"><ele>790.6</ele><time>2011-01-14T11:43:12Z</time></trkpt>
<trkpt lat="43.812707" lon="5.410615"><ele>788.8</ele><time>2011-01-14T11:43:17Z</time></trkpt>
<trkpt lat="43.812787" lon="5.410655"><ele>786.4</ele><time>2011-01-14T11:43:22Z</time></trkpt>
<trkpt lat="43.812862" lon="5.410703"><ele>784.4</ele><time>2011-01-14T11:43:27Z</time></trkpt>
<trkpt lat="43.812950" lon="5.410743"><ele>782.4</ele><time>2011-01-14T11:43:32Z</time></trkpt>
<trkpt lat="43.813050" lon="5.410727"><ele>779.9</ele><time>2011-01-14T11:43:37Z</time></trkpt>
<trkpt lat="43.813175" lon="5.410663"><ele>776.6</ele><time>2011-01-14T11:43:42Z</time></trkpt>
<trkpt lat="43.813305" lon="5.410652"><ele>773.4</ele><time>2011-01-14T11:43:47Z</time></trkpt>
<trkpt lat="43.813435" lon="5.410632"><ele>770.3</ele><time>2011-01-14T11:43:52Z</time></trkpt>
<trkpt lat="43.813553" lon="5.410585"><ele>767.6</ele><time>2011-01-14T11:43:57Z</time></trkpt>
<trkpt lat="43.813652" lon="5.410490"><ele>764.9</ele><time>2011-01-14T11:44:02Z</time></trkpt>
<trkpt lat="43.813747" lon="5.410400"><ele>762.7</ele><time>2011-01-14T11:44:07Z</time></trkpt>
<trkpt lat="43.813877" lon="5.410423"><ele>760</ele><time>2011-01-14T11:44:12Z</time></trkpt>
<trkpt lat="43.813992" lon="5.410390"><ele>757.6</ele><time>2011-01-14T11:44:17Z</time></trkpt>
<trkpt lat="43.814098" lon="5.410355"><ele>755.5</ele><time>2011-01-14T11:44:22Z</time></trkpt>
<trkpt lat="43.814205" lon="5.410313"><ele>753.2</ele><time>2011-01-14T11:44:27Z</time></trkpt>
<trkpt lat="43.814342" lon="5.410263"><ele>749.8</ele><time>2011-01-14T11:44:32Z</time></trkpt>
<trkpt lat="43.814472" lon="5.410232"><ele>746.9</ele><time>2011-01-14T11:44:37Z</time></trkpt>
<trkpt lat="43.814575" lon="5.410168"><ele>744.5</ele><time>2011-01-14T11:44:42Z</time></trkpt>
<trkpt lat="43.814663" lon="5.410058"><ele>742.1</ele><time>2011-01-14T11:44:47Z</time></trkpt>
<trkpt lat="43.814773" lon="5.409962"><ele>740</ele><time>2011-01-14T11:44:52Z</time></trkpt>
<trkpt lat="43.814880" lon="5.409938"><ele>737.8</ele><time>2011-01-14T11:44:57Z</time></trkpt>
<trkpt lat="43.814960" lon="5.409848"><ele>735.7</ele><time>2011-01-14T11:45:02Z</time></trkpt>
<trkpt lat="43.815063" lon="5.409775"><ele>733.9</ele><time>2011-01-14T11:45:07Z</time></trkpt>
<trkpt lat="43.815173" lon="5.409705"><ele>731.9</ele><time>2011-01-14T11:45:12Z</time></trkpt>
<trkpt lat="43.815288" lon="5.409635"><ele>730</ele><time>2011-01-14T11:45:17Z</time></trkpt>
<trkpt lat="43.815400" lon="5.409548"><ele>727.6</ele><time>2011-01-14T11:45:22Z</time></trkpt>
<trkpt lat="43.815517" lon="5.409482"><ele>725.4</ele><time>2011-01-14T11:45:27Z</time></trkpt>
<trkpt lat="43.815628" lon="5.409388"><ele>724.2</ele><time>2011-01-14T11:45:32Z</time></trkpt>
<trkpt lat="43.815770" lon="5.409285"><ele>722.2</ele><time>2011-01-14T11:45:37Z</time></trkpt>
<trkpt lat="43.815913" lon="5.409183"><ele>719.7</ele><time>2011-01-14T11:45:42Z</time></trkpt>
<trkpt lat="43.816048" lon="5.409050"><ele>717.1</ele><time>2011-01-14T11:45:47Z</time></trkpt>
<trkpt lat="43.816185" lon="5.408957"><ele>714.6</ele><time>2011-01-14T11:45:52Z</time></trkpt>
<trkpt lat="43.816338" lon="5.408852"><ele>711.9</ele><time>2011-01-14T11:45:57Z</time></trkpt>
<trkpt lat="43.816520" lon="5.408738"><ele>709</ele><time>2011-01-14T11:46:02Z</time></trkpt>
<trkpt lat="43.816703" lon="5.408655"><ele>706.4</ele><time>2011-01-14T11:46:07Z</time></trkpt>
<trkpt lat="43.816880" lon="5.408538"><ele>703.9</ele><time>2011-01-14T11:46:12Z</time></trkpt>
<trkpt lat="43.817058" lon="5.408432"><ele>701.9</ele><time>2011-01-14T11:46:17Z</time></trkpt>
<trkpt lat="43.817218" lon="5.408365"><ele>699.9</ele><time>2011-01-14T11:46:22Z</time></trkpt>
<trkpt lat="43.817372" lon="5.408222"><ele>698.2</ele><time>2011-01-14T11:46:27Z</time></trkpt>
<trkpt lat="43.817502" lon="5.408133"><ele>697</ele><time>2011-01-14T11:46:32Z</time></trkpt>
<trkpt lat="43.817513" lon="5.408117"><ele>696.9</ele><time>2011-01-14T11:46:37Z</time></trkpt>
<trkpt lat="43.817517" lon="5.408115"><ele>697</ele><time>2011-01-14T11:46:42Z</time></trkpt>
<trkpt lat="43.817517" lon="5.408132"><ele>696.9</ele><time>2011-01-14T11:46:47Z</time></trkpt>
<trkpt lat="43.817513" lon="5.408137"><ele>696.8</ele><time>2011-01-14T11:46:52Z</time></trkpt>
<trkpt lat="43.817513" lon="5.408138"><ele>696.8</ele><time>2011-01-14T11:46:57Z</time></trkpt>
<trkpt lat="43.817508" lon="5.408147"><ele>697.6</ele><time>2011-01-14T11:47:02Z</time></trkpt>
<trkpt lat="43.817517" lon="5.408167"><ele>697.8</ele><time>2011-01-14T11:47:07Z</time></trkpt>
<trkpt lat="43.817517" lon="5.408168"><ele>698.6</ele><time>2011-01-14T11:47:12Z</time></trkpt>
<trkpt lat="43.817517" lon="5.408170"><ele>698.5</ele><time>2011-01-14T11:47:17Z</time></trkpt>
<trkpt lat="43.817513" lon="5.408175"><ele>698.1</ele><time>2011-01-14T11:47:22Z</time></trkpt>
<trkpt lat="43.817513" lon="5.408177"><ele>698.1</ele><time>2011-01-14T11:47:27Z</time></trkpt>
<trkpt lat="43.817517" lon="5.408177"><ele>698.4</ele><time>2011-01-14T11:47:32Z</time></trkpt>
<trkpt lat="43.817517" lon="5.408175"><ele>698.8</ele><time>2011-01-14T11:47:37Z</time></trkpt>
<trkpt lat="43.817520" lon="5.408173"><ele>698.8</ele><time>2011-01-14T11:47:42Z</time></trkpt>
<trkpt lat="43.817520" lon="5.408173"><ele>698.8</ele><time>2011-01-14T11:47:47Z</time></trkpt>
<trkpt lat="43.817520" lon="5.408173"><ele>698.6</ele><time>2011-01-14T11:47:52Z</time></trkpt>
<trkpt lat="43.817520" lon="5.408173"><ele>698.5</ele><time>2011-01-14T11:47:57Z</time></trkpt>
<trkpt lat="43.817520" lon="5.408170"><ele>697.3</ele><time>2011-01-14T11:48:02Z</time></trkpt>
<trkpt lat="43.817505" lon="5.408157"><ele>696.1</ele><time>2011-01-14T11:48:07Z</time></trkpt>
<trkpt lat="43.817505" lon="5.408162"><ele>695.8</ele><time>2011-01-14T11:48:12Z</time></trkpt>
<trkpt lat="43.817505" lon="5.408163"><ele>695.7</ele><time>2011-01-14T11:48:17Z</time></trkpt>
<trkpt lat="43.817493" lon="5.408172"><ele>696</ele><time>2011-01-14T11:48:22Z</time></trkpt>
<trkpt lat="43.817493" lon="5.408180"><ele>695.8</ele><time>2011-01-14T11:48:27Z</time></trkpt>
<trkpt lat="43.817490" lon="5.408182"><ele>695.8</ele><time>2011-01-14T11:48:32Z</time></trkpt>
<trkpt lat="43.817490" lon="5.408182"><ele>696.1</ele><time>2011-01-14T11:48:37Z</time></trkpt>
<trkpt lat="43.817493" lon="5.408165"><ele>696.3</ele><time>2011-01-14T11:48:42Z</time></trkpt>
<trkpt lat="43.817493" lon="5.408163"><ele>696.5</ele><time>2011-01-14T11:48:47Z</time></trkpt>
<trkpt lat="43.817493" lon="5.408162"><ele>696.3</ele><time>2011-01-14T11:48:52Z</time></trkpt>
<trkpt lat="43.817493" lon="5.408165"><ele>696.5</ele><time>2011-01-14T11:48:57Z</time></trkpt>
<trkpt lat="43.817482" lon="5.408143"><ele>697.3</ele><time>2011-01-14T11:49:02Z</time></trkpt>
<trkpt lat="43.817485" lon="5.408125"><ele>698</ele><time>2011-01-14T11:49:07Z</time></trkpt>
<trkpt lat="43.817555" lon="5.408022"><ele>697.1</ele><time>2011-01-14T11:49:12Z</time></trkpt>
<trkpt lat="43.817685" lon="5.407848"><ele>695.2</ele><time>2011-01-14T11:49:17Z</time></trkpt>
<trkpt lat="43.817833" lon="5.407578"><ele>693.2</ele><time>2011-01-14T11:49:22Z</time></trkpt>
<trkpt lat="43.817937" lon="5.407395"><ele>691.7</ele><time>2011-01-14T11:49:27Z</time></trkpt>
<trkpt lat="43.818100" lon="5.407387"><ele>691.2</ele><time>2011-01-14T11:49:32Z</time></trkpt>
<trkpt lat="43.818237" lon="5.407330"><ele>691.8</ele><time>2011-01-14T11:49:37Z</time></trkpt>
<trkpt lat="43.818390" lon="5.407237"><ele>691.8</ele><time>2011-01-14T11:49:42Z</time></trkpt>
<trkpt lat="43.818520" lon="5.407272"><ele>691.7</ele><time>2011-01-14T11:49:47Z</time></trkpt>
<trkpt lat="43.818657" lon="5.407303"><ele>691.8</ele><time>2011-01-14T11:49:52Z</time></trkpt>
<trkpt lat="43.818790" lon="5.407315"><ele>692.8</ele><time>2011-01-14T11:49:57Z</time></trkpt>
<trkpt lat="43.818902" lon="5.407272"><ele>694.1</ele><time>2011-01-14T11:50:02Z</time></trkpt>
<trkpt lat="43.818977" lon="5.407212"><ele>695.7</ele><time>2011-01-14T11:50:07Z</time></trkpt>
<trkpt lat="43.819077" lon="5.407198"><ele>696.5</ele><time>2011-01-14T11:50:12Z</time></trkpt>
<trkpt lat="43.819183" lon="5.407280"><ele>694.8</ele><time>2011-01-14T11:50:17Z</time></trkpt>
<trkpt lat="43.819337" lon="5.407438"><ele>692.8</ele><time>2011-01-14T11:50:22Z</time></trkpt>
<trkpt lat="43.819500" lon="5.407705"><ele>690.1</ele><time>2011-01-14T11:50:27Z</time></trkpt>
<trkpt lat="43.819633" lon="5.408067"><ele>687.5</ele><time>2011-01-14T11:50:32Z</time></trkpt>
<trkpt lat="43.819770" lon="5.408477"><ele>684.6</ele><time>2011-01-14T11:50:37Z</time></trkpt>
<trkpt lat="43.819927" lon="5.408895"><ele>683.3</ele><time>2011-01-14T11:50:42Z</time></trkpt>
<trkpt lat="43.820095" lon="5.409248"><ele>680.4</ele><time>2011-01-14T11:50:47Z</time></trkpt>
<trkpt lat="43.820340" lon="5.409598"><ele>676.7</ele><time>2011-01-14T11:50:52Z</time></trkpt>
<trkpt lat="43.820538" lon="5.409860"><ele>674.5</ele><time>2011-01-14T11:50:57Z</time></trkpt>
<trkpt lat="43.820645" lon="5.409977"><ele>672.2</ele><time>2011-01-14T11:51:02Z</time></trkpt>
<trkpt lat="43.820770" lon="5.410088"><ele>669.7</ele><time>2011-01-14T11:51:07Z</time></trkpt>
<trkpt lat="43.820912" lon="5.410218"><ele>666.9</ele><time>2011-01-14T11:51:12Z</time></trkpt>
<trkpt lat="43.821072" lon="5.410373"><ele>663.5</ele><time>2011-01-14T11:51:17Z</time></trkpt>
<trkpt lat="43.821270" lon="5.410555"><ele>660.3</ele><time>2011-01-14T11:51:22Z</time></trkpt>
<trkpt lat="43.821548" lon="5.410777"><ele>657</ele><time>2011-01-14T11:51:27Z</time></trkpt>
<trkpt lat="43.821808" lon="5.411007"><ele>654.6</ele><time>2011-01-14T11:51:32Z</time></trkpt>
<trkpt lat="43.822110" lon="5.411270"><ele>650.7</ele><time>2011-01-14T11:51:37Z</time></trkpt>
<trkpt lat="43.822495" lon="5.411455"><ele>647.9</ele><time>2011-01-14T11:51:42Z</time></trkpt>
<trkpt lat="43.822812" lon="5.411537"><ele>648.3</ele><time>2011-01-14T11:51:47Z</time></trkpt>
<trkpt lat="43.823005" lon="5.411517"><ele>648.8</ele><time>2011-01-14T11:51:52Z</time></trkpt>
<trkpt lat="43.823075" lon="5.411522"><ele>649.3</ele><time>2011-01-14T11:51:57Z</time></trkpt>
<trkpt lat="43.823158" lon="5.411530"><ele>649.5</ele><time>2011-01-14T11:52:02Z</time></trkpt>
<trkpt lat="43.823230" lon="5.411550"><ele>650.2</ele><time>2011-01-14T11:52:07Z</time></trkpt>
<trkpt lat="43.823315" lon="5.411555"><ele>651</ele><time>2011-01-14T11:52:12Z</time></trkpt>
<trkpt lat="43.823422" lon="5.411562"><ele>651.6</ele><time>2011-01-14T11:52:17Z</time></trkpt>
<trkpt lat="43.823600" lon="5.411527"><ele>651.6</ele><time>2011-01-14T11:52:22Z</time></trkpt>
<trkpt lat="43.823682" lon="5.411600"><ele>651.3</ele><time>2011-01-14T11:52:27Z</time></trkpt>
<trkpt lat="43.823638" lon="5.411652"><ele>651.1</ele><time>2011-01-14T11:52:32Z</time></trkpt>
<trkpt lat="43.823682" lon="5.411573"><ele>650.9</ele><time>2011-01-14T11:52:37Z</time></trkpt>
<trkpt lat="43.823768" lon="5.411493"><ele>650.8</ele><time>2011-01-14T11:52:42Z</time></trkpt>
<trkpt lat="43.823940" lon="5.411477"><ele>649.6</ele><time>2011-01-14T11:52:47Z</time></trkpt>
<trkpt lat="43.824138" lon="5.411425"><ele>647.7</ele><time>2011-01-14T11:52:52Z</time></trkpt>
<trkpt lat="43.824348" lon="5.411328"><ele>645.1</ele><time>2011-01-14T11:52:57Z</time></trkpt>
<trkpt lat="43.824448" lon="5.411225"><ele>642.7</ele><time>2011-01-14T11:53:02Z</time></trkpt>
<trkpt lat="43.824623" lon="5.411047"><ele>639.9</ele><time>2011-01-14T11:53:07Z</time></trkpt>
<trkpt lat="43.824802" lon="5.410828"><ele>636.9</ele><time>2011-01-14T11:53:12Z</time></trkpt>
<trkpt lat="43.825012" lon="5.410580"><ele>633.6</ele><time>2011-01-14T11:53:17Z</time></trkpt>
<trkpt lat="43.825245" lon="5.410390"><ele>630.7</ele><time>2011-01-14T11:53:22Z</time></trkpt>
<trkpt lat="43.825562" lon="5.410260"><ele>627</ele><time>2011-01-14T11:53:27Z</time></trkpt>
<trkpt lat="43.825822" lon="5.410055"><ele>622.9</ele><time>2011-01-14T11:53:32Z</time></trkpt>
<trkpt lat="43.826015" lon="5.409628"><ele>619.2</ele><time>2011-01-14T11:53:37Z</time></trkpt>
<trkpt lat="43.826153" lon="5.409125"><ele>615.8</ele><time>2011-01-14T11:53:42Z</time></trkpt>
<trkpt lat="43.826210" lon="5.408568"><ele>612.2</ele><time>2011-01-14T11:53:47Z</time></trkpt>
<trkpt lat="43.826160" lon="5.408035"><ele>609.7</ele><time>2011-01-14T11:53:52Z</time></trkpt>
<trkpt lat="43.826138" lon="5.407530"><ele>606.7</ele><time>2011-01-14T11:53:57Z</time></trkpt>
<trkpt lat="43.826160" lon="5.407053"><ele>602.7</ele><time>2011-01-14T11:54:02Z</time></trkpt>
<trkpt lat="43.826187" lon="5.406563"><ele>599.2</ele><time>2011-01-14T11:54:07Z</time></trkpt>
<trkpt lat="43.826237" lon="5.406100"><ele>595.3</ele><time>2011-01-14T11:54:12Z</time></trkpt>
<trkpt lat="43.826320" lon="5.405725"><ele>593.4</ele><time>2011-01-14T11:54:17Z</time></trkpt>
<trkpt lat="43.826435" lon="5.405408"><ele>592.7</ele><time>2011-01-14T11:54:22Z</time></trkpt>
<trkpt lat="43.826615" lon="5.405147"><ele>589.3</ele><time>2011-01-14T11:54:27Z</time></trkpt>
<trkpt lat="43.826878" lon="5.404892"><ele>584.3</ele><time>2011-01-14T11:54:32Z</time></trkpt>
<trkpt lat="43.827137" lon="5.404602"><ele>580.4</ele><time>2011-01-14T11:54:37Z</time></trkpt>
<trkpt lat="43.827382" lon="5.404392"><ele>578.1</ele><time>2011-01-14T11:54:42Z</time></trkpt>
<trkpt lat="43.827655" lon="5.404165"><ele>576.4</ele><time>2011-01-14T11:54:47Z</time></trkpt>
<trkpt lat="43.827778" lon="5.403965"><ele>575.8</ele><time>2011-01-14T11:54:52Z</time></trkpt>
<trkpt lat="43.827873" lon="5.403862"><ele>576.2</ele><time>2011-01-14T11:54:57Z</time></trkpt>
<trkpt lat="43.827983" lon="5.403795"><ele>576.1</ele><time>2011-01-14T11:55:02Z</time></trkpt>
<trkpt lat="43.828018" lon="5.403738"><ele>575.7</ele><time>2011-01-14T11:55:07Z</time></trkpt>
<trkpt lat="43.828018" lon="5.403747"><ele>575.6</ele><time>2011-01-14T11:55:12Z</time></trkpt>
<trkpt lat="43.828018" lon="5.403767"><ele>575.8</ele><time>2011-01-14T11:55:17Z</time></trkpt>
<trkpt lat="43.828018" lon="5.403767"><ele>576</ele><time>2011-01-14T11:55:22Z</time></trkpt>
<trkpt lat="43.828010" lon="5.403770"><ele>576.3</ele><time>2011-01-14T11:55:27Z</time></trkpt>
<trkpt lat="43.828007" lon="5.403770"><ele>576.6</ele><time>2011-01-14T11:55:32Z</time></trkpt>
<trkpt lat="43.828007" lon="5.403768"><ele>576.5</ele><time>2011-01-14T11:55:37Z</time></trkpt>
<trkpt lat="43.828010" lon="5.403773"><ele>576.7</ele><time>2011-01-14T11:55:42Z</time></trkpt>
<trkpt lat="43.828003" lon="5.403778"><ele>577</ele><time>2011-01-14T11:55:47Z</time></trkpt>
<trkpt lat="43.828007" lon="5.403780"><ele>577.3</ele><time>2011-01-14T11:55:52Z</time></trkpt>
<trkpt lat="43.828007" lon="5.403777"><ele>577.2</ele><time>2011-01-14T11:55:57Z</time></trkpt>
<trkpt lat="43.828003" lon="5.403765"><ele>577.6</ele><time>2011-01-14T11:56:02Z</time></trkpt>
<trkpt lat="43.827995" lon="5.403780"><ele>577.7</ele><time>2011-01-14T11:56:07Z</time></trkpt>
<trkpt lat="43.827998" lon="5.403808"><ele>578</ele><time>2011-01-14T11:56:12Z</time></trkpt>
<trkpt lat="43.828003" lon="5.403828"><ele>578</ele><time>2011-01-14T11:56:17Z</time></trkpt>
<trkpt lat="43.828010" lon="5.403823"><ele>577.2</ele><time>2011-01-14T11:56:22Z</time></trkpt>
<trkpt lat="43.828007" lon="5.403817"><ele>576.6</ele><time>2011-01-14T11:56:27Z</time></trkpt>
<trkpt lat="43.828010" lon="5.403810"><ele>576</ele><time>2011-01-14T11:56:32Z</time></trkpt>
<trkpt lat="43.828007" lon="5.403805"><ele>575.8</ele><time>2011-01-14T11:56:37Z</time></trkpt>
<trkpt lat="43.828003" lon="5.403800"><ele>576.3</ele><time>2011-01-14T11:56:42Z</time></trkpt>
<trkpt lat="43.828003" lon="5.403800"><ele>576.7</ele><time>2011-01-14T11:56:47Z</time></trkpt>
<trkpt lat="43.828003" lon="5.403803"><ele>577.2</ele><time>2011-01-14T11:56:52Z</time></trkpt>
<trkpt lat="43.827998" lon="5.403807"><ele>577.5</ele><time>2011-01-14T11:56:57Z</time></trkpt>
<trkpt lat="43.827998" lon="5.403808"><ele>577.6</ele><time>2011-01-14T11:57:02Z</time></trkpt>
<trkpt lat="43.827998" lon="5.403812"><ele>577.6</ele><time>2011-01-14T11:57:07Z</time></trkpt>
<trkpt lat="43.827998" lon="5.403813"><ele>577.5</ele><time>2011-01-14T11:57:12Z</time></trkpt>
<trkpt lat="43.827998" lon="5.403813"><ele>577.2</ele><time>2011-01-14T11:57:17Z</time></trkpt>
<trkpt lat="43.827995" lon="5.403815"><ele>576.7</ele><time>2011-01-14T11:57:22Z</time></trkpt>
<trkpt lat="43.827995" lon="5.403813"><ele>576.1</ele><time>2011-01-14T11:57:27Z</time></trkpt>
<trkpt lat="43.827998" lon="5.403812"><ele>575.5</ele><time>2011-01-14T11:57:32Z</time></trkpt>
<trkpt lat="43.827998" lon="5.403810"><ele>575</ele><time>2011-01-14T11:57:37Z</time></trkpt>
<trkpt lat="43.827998" lon="5.403808"><ele>574.6</ele><time>2011-01-14T11:57:42Z</time></trkpt>
<trkpt lat="43.827998" lon="5.403805"><ele>574.4</ele><time>2011-01-14T11:57:47Z</time></trkpt>
<trkpt lat="43.828003" lon="5.403805"><ele>574.2</ele><time>2011-01-14T11:57:52Z</time></trkpt>
<trkpt lat="43.828003" lon="5.403802"><ele>574.1</ele><time>2011-01-14T11:57:57Z</time></trkpt>
<trkpt lat="43.828007" lon="5.403800"><ele>574.2</ele><time>2011-01-14T11:58:02Z</time></trkpt>
<trkpt lat="43.828007" lon="5.403798"><ele>574.9</ele><time>2011-01-14T11:58:07Z</time></trkpt>
<trkpt lat="43.828010" lon="5.403798"><ele>575.7</ele><time>2011-01-14T11:58:12Z</time></trkpt>
<trkpt lat="43.828010" lon="5.403797"><ele>576.5</ele><time>2011-01-14T11:58:17Z</time></trkpt>
<trkpt lat="43.828010" lon="5.403797"><ele>577.2</ele><time>2011-01-14T11:58:22Z</time></trkpt>
<trkpt lat="43.828010" lon="5.403797"><ele>577.9</ele><time>2011-01-14T11:58:27Z</time></trkpt>
<trkpt lat="43.828015" lon="5.403797"><ele>578.6</ele><time>2011-01-14T11:58:32Z</time></trkpt>
<trkpt lat="43.828015" lon="5.403797"><ele>579.2</ele><time>2011-01-14T11:58:37Z</time></trkpt>
<trkpt lat="43.828015" lon="5.403797"><ele>579.6</ele><time>2011-01-14T11:58:42Z</time></trkpt>
<trkpt lat="43.828015" lon="5.403798"><ele>580.1</ele><time>2011-01-14T11:58:47Z</time></trkpt>
<trkpt lat="43.828015" lon="5.403798"><ele>580.6</ele><time>2011-01-14T11:58:52Z</time></trkpt>
<trkpt lat="43.828010" lon="5.403805"><ele>581.1</ele><time>2011-01-14T11:58:57Z</time></trkpt>
<trkpt lat="43.828015" lon="5.403803"><ele>581.2</ele><time>2011-01-14T11:59:02Z</time></trkpt>
<trkpt lat="43.828007" lon="5.403807"><ele>580.4</ele><time>2011-01-14T11:59:07Z</time></trkpt>
<trkpt lat="43.828015" lon="5.403810"><ele>579.3</ele><time>2011-01-14T11:59:12Z</time></trkpt>
<trkpt lat="43.828018" lon="5.403822"><ele>579.9</ele><time>2011-01-14T11:59:17Z</time></trkpt>
<trkpt lat="43.828018" lon="5.403820"><ele>579.6</ele><time>2011-01-14T11:59:22Z</time></trkpt>
<trkpt lat="43.828015" lon="5.403818"><ele>578.8</ele><time>2011-01-14T11:59:27Z</time></trkpt>
<trkpt lat="43.828018" lon="5.403815"><ele>578.1</ele><time>2011-01-14T11:59:32Z</time></trkpt>
<trkpt lat="43.828003" lon="5.403808"><ele>578.1</ele><time>2011-01-14T11:59:37Z</time></trkpt>
<trkpt lat="43.828018" lon="5.403797"><ele>578.1</ele><time>2011-01-14T11:59:42Z</time></trkpt>
<trkpt lat="43.828018" lon="5.403785"><ele>577.9</ele><time>2011-01-14T11:59:47Z</time></trkpt>
<trkpt lat="43.828018" lon="5.403778"><ele>577.8</ele><time>2011-01-14T11:59:52Z</time></trkpt>
<trkpt lat="43.828022" lon="5.403773"><ele>577.8</ele><time>2011-01-14T11:59:57Z</time></trkpt>
<trkpt lat="43.828022" lon="5.403777"><ele>578</ele><time>2011-01-14T12:00:02Z</time></trkpt>
<trkpt lat="43.828018" lon="5.403787"><ele>578.1</ele><time>2011-01-14T12:00:07Z</time></trkpt>
<trkpt lat="43.828025" lon="5.403810"><ele>578.4</ele><time>2011-01-14T12:00:12Z</time></trkpt>
<trkpt lat="43.828075" lon="5.403830"><ele>578.7</ele><time>2011-01-14T12:00:17Z</time></trkpt>
<trkpt lat="43.828190" lon="5.403817"><ele>578.4</ele><time>2011-01-14T12:00:22Z</time></trkpt>
<trkpt lat="43.828312" lon="5.403760"><ele>578.4</ele><time>2011-01-14T12:00:27Z</time></trkpt>
<trkpt lat="43.828442" lon="5.403718"><ele>578.6</ele><time>2011-01-14T12:00:32Z</time></trkpt>
<trkpt lat="43.828578" lon="5.403647"><ele>579.1</ele><time>2011-01-14T12:00:37Z</time></trkpt>
<trkpt lat="43.828723" lon="5.403592"><ele>579.2</ele><time>2011-01-14T12:00:42Z</time></trkpt>
<trkpt lat="43.828865" lon="5.403540"><ele>578.5</ele><time>2011-01-14T12:00:47Z</time></trkpt>
<trkpt lat="43.829033" lon="5.403520"><ele>577.7</ele><time>2011-01-14T12:00:52Z</time></trkpt>
<trkpt lat="43.829173" lon="5.403580"><ele>577.7</ele><time>2011-01-14T12:00:57Z</time></trkpt>
<trkpt lat="43.829300" lon="5.403715"><ele>577.8</ele><time>2011-01-14T12:01:02Z</time></trkpt>
<trkpt lat="43.829418" lon="5.403883"><ele>577.7</ele><time>2011-01-14T12:01:07Z</time></trkpt>
<trkpt lat="43.829543" lon="5.404090"><ele>577.4</ele><time>2011-01-14T12:01:12Z</time></trkpt>
<trkpt lat="43.829647" lon="5.404362"><ele>576.3</ele><time>2011-01-14T12:01:17Z</time></trkpt>
<trkpt lat="43.829662" lon="5.404713"><ele>574.7</ele><time>2011-01-14T12:01:22Z</time></trkpt>
<trkpt lat="43.829640" lon="5.405135"><ele>572.7</ele><time>2011-01-14T12:01:27Z</time></trkpt>
<trkpt lat="43.829655" lon="5.405577"><ele>571.4</ele><time>2011-01-14T12:01:32Z</time></trkpt>
<trkpt lat="43.829747" lon="5.405922"><ele>571.7</ele><time>2011-01-14T12:01:37Z</time></trkpt>
<trkpt lat="43.829910" lon="5.406133"><ele>573.7</ele><time>2011-01-14T12:01:42Z</time></trkpt>
<trkpt lat="43.830097" lon="5.406162"><ele>575.9</ele><time>2011-01-14T12:01:47Z</time></trkpt>
<trkpt lat="43.830295" lon="5.406127"><ele>577.4</ele><time>2011-01-14T12:01:52Z</time></trkpt>
<trkpt lat="43.830493" lon="5.406053"><ele>578.1</ele><time>2011-01-14T12:01:57Z</time></trkpt>
<trkpt lat="43.830715" lon="5.405970"><ele>577.6</ele><time>2011-01-14T12:02:02Z</time></trkpt>
<trkpt lat="43.830975" lon="5.405978"><ele>575.8</ele><time>2011-01-14T12:02:07Z</time></trkpt>
<trkpt lat="43.831218" lon="5.406233"><ele>574.1</ele><time>2011-01-14T12:02:12Z</time></trkpt>
<trkpt lat="43.831367" lon="5.406643"><ele>572.5</ele><time>2011-01-14T12:02:17Z</time></trkpt>
<trkpt lat="43.831505" lon="5.407033"><ele>571.7</ele><time>2011-01-14T12:02:22Z</time></trkpt>
<trkpt lat="43.831615" lon="5.407382"><ele>571.2</ele><time>2011-01-14T12:02:27Z</time></trkpt>
<trkpt lat="43.831727" lon="5.407708"><ele>571</ele><time>2011-01-14T12:02:32Z</time></trkpt>
<trkpt lat="43.831837" lon="5.408047"><ele>570.9</ele><time>2011-01-14T12:02:37Z</time></trkpt>
<trkpt lat="43.831958" lon="5.408383"><ele>570.9</ele><time>2011-01-14T12:02:42Z</time></trkpt>
<trkpt lat="43.832073" lon="5.408725"><ele>571</ele><time>2011-01-14T12:02:47Z</time></trkpt>
<trkpt lat="43.832118" lon="5.409112"><ele>569.8</ele><time>2011-01-14T12:02:52Z</time></trkpt>
<trkpt lat="43.831993" lon="5.409518"><ele>567.6</ele><time>2011-01-14T12:02:57Z</time></trkpt>
<trkpt lat="43.831798" lon="5.409940"><ele>565.9</ele><time>2011-01-14T12:03:02Z</time></trkpt>
<trkpt lat="43.831603" lon="5.410410"><ele>563.8</ele><time>2011-01-14T12:03:07Z</time></trkpt>
<trkpt lat="43.831422" lon="5.410932"><ele>560.4</ele><time>2011-01-14T12:03:12Z</time></trkpt>
<trkpt lat="43.831227" lon="5.411483"><ele>557.3</ele><time>2011-01-14T12:03:17Z</time></trkpt>
<trkpt lat="43.830997" lon="5.412002"><ele>554.5</ele><time>2011-01-14T12:03:22Z</time></trkpt>
<trkpt lat="43.830692" lon="5.412465"><ele>551</ele><time>2011-01-14T12:03:27Z</time></trkpt>
<trkpt lat="43.830338" lon="5.412885"><ele>546.9</ele><time>2011-01-14T12:03:32Z</time></trkpt>
<trkpt lat="43.829960" lon="5.413273"><ele>543.2</ele><time>2011-01-14T12:03:37Z</time></trkpt>
<trkpt lat="43.829605" lon="5.413605"><ele>540.5</ele><time>2011-01-14T12:03:42Z</time></trkpt>
<trkpt lat="43.829288" lon="5.413890"><ele>538.1</ele><time>2011-01-14T12:03:47Z</time></trkpt>
<trkpt lat="43.829067" lon="5.414177"><ele>537</ele><time>2011-01-14T12:03:52Z</time></trkpt>
<trkpt lat="43.829235" lon="5.414388"><ele>538.4</ele><time>2011-01-14T12:03:57Z</time></trkpt>
<trkpt lat="43.829437" lon="5.414417"><ele>541.1</ele><time>2011-01-14T12:04:02Z</time></trkpt>
<trkpt lat="43.829608" lon="5.414437"><ele>543.5</ele><time>2011-01-14T12:04:07Z</time></trkpt>
<trkpt lat="43.829777" lon="5.414427"><ele>547.2</ele><time>2011-01-14T12:04:12Z</time></trkpt>
<trkpt lat="43.829940" lon="5.414382"><ele>548.3</ele><time>2011-01-14T12:04:17Z</time></trkpt>
<trkpt lat="43.830097" lon="5.414302"><ele>549.3</ele><time>2011-01-14T12:04:22Z</time></trkpt>
<trkpt lat="43.830238" lon="5.414230"><ele>549.9</ele><time>2011-01-14T12:04:27Z</time></trkpt>
<trkpt lat="43.830383" lon="5.414170"><ele>550.4</ele><time>2011-01-14T12:04:32Z</time></trkpt>
<trkpt lat="43.830525" lon="5.414143"><ele>550.8</ele><time>2011-01-14T12:04:37Z</time></trkpt>
<trkpt lat="43.830662" lon="5.414117"><ele>550.8</ele><time>2011-01-14T12:04:42Z</time></trkpt>
<trkpt lat="43.830803" lon="5.414090"><ele>551.1</ele><time>2011-01-14T12:04:47Z</time></trkpt>
<trkpt lat="43.830933" lon="5.414047"><ele>551.3</ele><time>2011-01-14T12:04:52Z</time></trkpt>
<trkpt lat="43.831067" lon="5.413995"><ele>551.6</ele><time>2011-01-14T12:04:57Z</time></trkpt>
<trkpt lat="43.831200" lon="5.413943"><ele>551.7</ele><time>2011-01-14T12:05:02Z</time></trkpt>
<trkpt lat="43.831333" lon="5.413887"><ele>552.1</ele><time>2011-01-14T12:05:07Z</time></trkpt>
<trkpt lat="43.831463" lon="5.413830"><ele>553.1</ele><time>2011-01-14T12:05:12Z</time></trkpt>
<trkpt lat="43.831593" lon="5.413767"><ele>554.2</ele><time>2011-01-14T12:05:17Z</time></trkpt>
<trkpt lat="43.831727" lon="5.413702"><ele>555.5</ele><time>2011-01-14T12:05:22Z</time></trkpt>
<trkpt lat="43.831848" lon="5.413627"><ele>556.6</ele><time>2011-01-14T12:05:27Z</time></trkpt>
<trkpt lat="43.831963" lon="5.413545"><ele>557.4</ele><time>2011-01-14T12:05:32Z</time></trkpt>
<trkpt lat="43.832082" lon="5.413463"><ele>557.9</ele><time>2011-01-14T12:05:37Z</time></trkpt>
<trkpt lat="43.832188" lon="5.413360"><ele>559.5</ele><time>2011-01-14T12:05:42Z</time></trkpt>
<trkpt lat="43.832295" lon="5.413265"><ele>560.4</ele><time>2011-01-14T12:05:47Z</time></trkpt>
<trkpt lat="43.832402" lon="5.413172"><ele>561.7</ele><time>2011-01-14T12:05:52Z</time></trkpt>
<trkpt lat="43.832508" lon="5.413073"><ele>563</ele><time>2011-01-14T12:05:57Z</time></trkpt>
<trkpt lat="43.832618" lon="5.412978"><ele>564.3</ele><time>2011-01-14T12:06:02Z</time></trkpt>
<trkpt lat="43.832730" lon="5.412885"><ele>565.1</ele><time>2011-01-14T12:06:07Z</time></trkpt>
<trkpt lat="43.832843" lon="5.412793"><ele>566.1</ele><time>2011-01-14T12:06:12Z</time></trkpt>
<trkpt lat="43.832947" lon="5.412682"><ele>567.1</ele><time>2011-01-14T12:06:17Z</time></trkpt>
<trkpt lat="43.833062" lon="5.412570"><ele>568.3</ele><time>2011-01-14T12:06:22Z</time></trkpt>
<trkpt lat="43.833168" lon="5.412453"><ele>568.5</ele><time>2011-01-14T12:06:27Z</time></trkpt>
<trkpt lat="43.833282" lon="5.412337"><ele>568.7</ele><time>2011-01-14T12:06:32Z</time></trkpt>
<trkpt lat="43.833397" lon="5.412215"><ele>568.9</ele><time>2011-01-14T12:06:37Z</time></trkpt>
<trkpt lat="43.833515" lon="5.412095"><ele>568.8</ele><time>2011-01-14T12:06:42Z</time></trkpt>
<trkpt lat="43.833637" lon="5.411975"><ele>569.1</ele><time>2011-01-14T12:06:47Z</time></trkpt>
<trkpt lat="43.833787" lon="5.411863"><ele>570</ele><time>2011-01-14T12:06:52Z</time></trkpt>
<trkpt lat="43.833962" lon="5.411848"><ele>570.4</ele><time>2011-01-14T12:06:57Z</time></trkpt>
<trkpt lat="43.834137" lon="5.411972"><ele>570.3</ele><time>2011-01-14T12:07:02Z</time></trkpt>
<trkpt lat="43.834285" lon="5.412185"><ele>570.1</ele><time>2011-01-14T12:07:07Z</time></trkpt>
<trkpt lat="43.834447" lon="5.412423"><ele>570.1</ele><time>2011-01-14T12:07:12Z</time></trkpt>
<trkpt lat="43.834622" lon="5.412675"><ele>569.8</ele><time>2011-01-14T12:07:17Z</time></trkpt>
<trkpt lat="43.834800" lon="5.412932"><ele>569.7</ele><time>2011-01-14T12:07:22Z</time></trkpt>
<trkpt lat="43.835022" lon="5.413182"><ele>569</ele><time>2011-01-14T12:07:27Z</time></trkpt>
<trkpt lat="43.835273" lon="5.413452"><ele>567.8</ele><time>2011-01-14T12:07:32Z</time></trkpt>
<trkpt lat="43.835450" lon="5.413860"><ele>565.6</ele><time>2011-01-14T12:07:37Z</time></trkpt>
<trkpt lat="43.835468" lon="5.414413"><ele>562.6</ele><time>2011-01-14T12:07:42Z</time></trkpt>
<trkpt lat="43.835487" lon="5.415018"><ele>559.3</ele><time>2011-01-14T12:07:47Z</time></trkpt>
<trkpt lat="43.835510" lon="5.415645"><ele>556.4</ele><time>2011-01-14T12:07:52Z</time></trkpt>
<trkpt lat="43.835575" lon="5.416192"><ele>553.5</ele><time>2011-01-14T12:07:57Z</time></trkpt>
<trkpt lat="43.835788" lon="5.416633"><ele>550.7</ele><time>2011-01-14T12:08:02Z</time></trkpt>
<trkpt lat="43.835827" lon="5.417180"><ele>547.3</ele><time>2011-01-14T12:08:07Z</time></trkpt>
<trkpt lat="43.835583" lon="5.417675"><ele>544.9</ele><time>2011-01-14T12:08:12Z</time></trkpt>
<trkpt lat="43.835267" lon="5.418133"><ele>540.8</ele><time>2011-01-14T12:08:17Z</time></trkpt>
<trkpt lat="43.835015" lon="5.418680"><ele>536.1</ele><time>2011-01-14T12:08:22Z</time></trkpt>
<trkpt lat="43.834767" lon="5.419250"><ele>531.3</ele><time>2011-01-14T12:08:27Z</time></trkpt>
<trkpt lat="43.834527" lon="5.419753"><ele>527.7</ele><time>2011-01-14T12:08:32Z</time></trkpt>
<trkpt lat="43.834198" lon="5.419872"><ele>525.7</ele><time>2011-01-14T12:08:37Z</time></trkpt>
<trkpt lat="43.833977" lon="5.419995"><ele>525.1</ele><time>2011-01-14T12:08:42Z</time></trkpt>
<trkpt lat="43.834118" lon="5.420308"><ele>523.7</ele><time>2011-01-14T12:08:47Z</time></trkpt>
<trkpt lat="43.834282" lon="5.420670"><ele>522.7</ele><time>2011-01-14T12:08:52Z</time></trkpt>
<trkpt lat="43.834302" lon="5.421112"><ele>521.8</ele><time>2011-01-14T12:08:57Z</time></trkpt>
<trkpt lat="43.834462" lon="5.421415"><ele>522.5</ele><time>2011-01-14T12:09:02Z</time></trkpt>
<trkpt lat="43.834663" lon="5.421213"><ele>525.1</ele><time>2011-01-14T12:09:07Z</time></trkpt>
<trkpt lat="43.834800" lon="5.420932"><ele>526.6</ele><time>2011-01-14T12:09:12Z</time></trkpt>
<trkpt lat="43.834965" lon="5.420697"><ele>527.4</ele><time>2011-01-14T12:09:17Z</time></trkpt>
<trkpt lat="43.835128" lon="5.420497"><ele>528</ele><time>2011-01-14T12:09:22Z</time></trkpt>
<trkpt lat="43.835270" lon="5.420317"><ele>528.5</ele><time>2011-01-14T12:09:27Z</time></trkpt>
<trkpt lat="43.835395" lon="5.420158"><ele>528.5</ele><time>2011-01-14T12:09:32Z</time></trkpt>
<trkpt lat="43.835530" lon="5.419998"><ele>528.6</ele><time>2011-01-14T12:09:37Z</time></trkpt>
<trkpt lat="43.835663" lon="5.419837"><ele>528.9</ele><time>2011-01-14T12:09:42Z</time></trkpt>
<trkpt lat="43.835800" lon="5.419670"><ele>529.2</ele><time>2011-01-14T12:09:47Z</time></trkpt>
<trkpt lat="43.835942" lon="5.419502"><ele>529.5</ele><time>2011-01-14T12:09:52Z</time></trkpt>
<trkpt lat="43.836098" lon="5.419335"><ele>529.8</ele><time>2011-01-14T12:09:57Z</time></trkpt>
<trkpt lat="43.836273" lon="5.419210"><ele>530</ele><time>2011-01-14T12:10:02Z</time></trkpt>
<trkpt lat="43.836457" lon="5.419133"><ele>530.3</ele><time>2011-01-14T12:10:07Z</time></trkpt>
<trkpt lat="43.836658" lon="5.419103"><ele>530.2</ele><time>2011-01-14T12:10:12Z</time></trkpt>
<trkpt lat="43.836868" lon="5.419182"><ele>530.2</ele><time>2011-01-14T12:10:17Z</time></trkpt>
<trkpt lat="43.837075" lon="5.419368"><ele>530.2</ele><time>2011-01-14T12:10:22Z</time></trkpt>
<trkpt lat="43.837295" lon="5.419572"><ele>530.8</ele><time>2011-01-14T12:10:27Z</time></trkpt>
<trkpt lat="43.837555" lon="5.419758"><ele>528.8</ele><time>2011-01-14T12:10:32Z</time></trkpt>
<trkpt lat="43.837845" lon="5.419938"><ele>526.9</ele><time>2011-01-14T12:10:37Z</time></trkpt>
<trkpt lat="43.838147" lon="5.420222"><ele>524.3</ele><time>2011-01-14T12:10:42Z</time></trkpt>
<trkpt lat="43.838413" lon="5.420597"><ele>522.3</ele><time>2011-01-14T12:10:47Z</time></trkpt>
<trkpt lat="43.838630" lon="5.421025"><ele>520.5</ele><time>2011-01-14T12:10:52Z</time></trkpt>
<trkpt lat="43.838840" lon="5.421442"><ele>519.3</ele><time>2011-01-14T12:10:57Z</time></trkpt>
<trkpt lat="43.839032" lon="5.421817"><ele>518.9</ele><time>2011-01-14T12:11:02Z</time></trkpt>
<trkpt lat="43.839177" lon="5.422153"><ele>519</ele><time>2011-01-14T12:11:07Z</time></trkpt>
<trkpt lat="43.839283" lon="5.422458"><ele>519.5</ele><time>2011-01-14T12:11:12Z</time></trkpt>
<trkpt lat="43.839378" lon="5.422780"><ele>520.1</ele><time>2011-01-14T12:11:17Z</time></trkpt>
<trkpt lat="43.839558" lon="5.423025"><ele>520.5</ele><time>2011-01-14T12:11:22Z</time></trkpt>
<trkpt lat="43.839798" lon="5.423135"><ele>521.4</ele><time>2011-01-14T12:11:27Z</time></trkpt>
<trkpt lat="43.839977" lon="5.423227"><ele>522.7</ele><time>2011-01-14T12:11:32Z</time></trkpt>
<trkpt lat="43.840115" lon="5.423338"><ele>524.5</ele><time>2011-01-14T12:11:37Z</time></trkpt>
<trkpt lat="43.840207" lon="5.423495"><ele>526.1</ele><time>2011-01-14T12:11:42Z</time></trkpt>
<trkpt lat="43.840263" lon="5.423668"><ele>527.2</ele><time>2011-01-14T12:11:47Z</time></trkpt>
<trkpt lat="43.840305" lon="5.423833"><ele>528.4</ele><time>2011-01-14T12:11:52Z</time></trkpt>
<trkpt lat="43.840347" lon="5.423982"><ele>529.2</ele><time>2011-01-14T12:11:57Z</time></trkpt>
<trkpt lat="43.840382" lon="5.424128"><ele>530.1</ele><time>2011-01-14T12:12:02Z</time></trkpt>
<trkpt lat="43.840420" lon="5.424258"><ele>531.1</ele><time>2011-01-14T12:12:07Z</time></trkpt>
<trkpt lat="43.840492" lon="5.424323"><ele>531.7</ele><time>2011-01-14T12:12:12Z</time></trkpt>
<trkpt lat="43.840588" lon="5.424282"><ele>532.4</ele><time>2011-01-14T12:12:17Z</time></trkpt>
<trkpt lat="43.840630" lon="5.424145"><ele>533.3</ele><time>2011-01-14T12:12:22Z</time></trkpt>
<trkpt lat="43.840598" lon="5.423988"><ele>534.6</ele><time>2011-01-14T12:12:27Z</time></trkpt>
<trkpt lat="43.840542" lon="5.423842"><ele>535.4</ele><time>2011-01-14T12:12:32Z</time></trkpt>
<trkpt lat="43.840492" lon="5.423692"><ele>536</ele><time>2011-01-14T12:12:37Z</time></trkpt>
<trkpt lat="43.840438" lon="5.423537"><ele>536.4</ele><time>2011-01-14T12:12:42Z</time></trkpt>
<trkpt lat="43.840400" lon="5.423380"><ele>536.9</ele><time>2011-01-14T12:12:47Z</time></trkpt>
<trkpt lat="43.840378" lon="5.423213"><ele>537.6</ele><time>2011-01-14T12:12:52Z</time></trkpt>
<trkpt lat="43.840373" lon="5.423045"><ele>538.3</ele><time>2011-01-14T12:12:57Z</time></trkpt>
<trkpt lat="43.840397" lon="5.422882"><ele>538.5</ele><time>2011-01-14T12:13:02Z</time></trkpt>
<trkpt lat="43.840427" lon="5.422723"><ele>538.2</ele><time>2011-01-14T12:13:07Z</time></trkpt>
<trkpt lat="43.840470" lon="5.422567"><ele>538.3</ele><time>2011-01-14T12:13:12Z</time></trkpt>
<trkpt lat="43.840503" lon="5.422405"><ele>538.8</ele><time>2011-01-14T12:13:17Z</time></trkpt>
<trkpt lat="43.840530" lon="5.422237"><ele>539.5</ele><time>2011-01-14T12:13:22Z</time></trkpt>
<trkpt lat="43.840523" lon="5.422068"><ele>540.1</ele><time>2011-01-14T12:13:27Z</time></trkpt>
<trkpt lat="43.840485" lon="5.421910"><ele>540.9</ele><time>2011-01-14T12:13:32Z</time></trkpt>
<trkpt lat="43.840420" lon="5.421773"><ele>541.9</ele><time>2011-01-14T12:13:37Z</time></trkpt>
<trkpt lat="43.840343" lon="5.421635"><ele>542.4</ele><time>2011-01-14T12:13:42Z</time></trkpt>
<trkpt lat="43.840275" lon="5.421498"><ele>543.3</ele><time>2011-01-14T12:13:47Z</time></trkpt>
<trkpt lat="43.840187" lon="5.421355"><ele>543.9</ele><time>2011-01-14T12:13:52Z</time></trkpt>
<trkpt lat="43.840110" lon="5.421210"><ele>544.4</ele><time>2011-01-14T12:13:57Z</time></trkpt>
<trkpt lat="43.840038" lon="5.421055"><ele>545.1</ele><time>2011-01-14T12:14:02Z</time></trkpt>
<trkpt lat="43.840015" lon="5.420870"><ele>545.8</ele><time>2011-01-14T12:14:07Z</time></trkpt>
<trkpt lat="43.840057" lon="5.420697"><ele>546.7</ele><time>2011-01-14T12:14:12Z</time></trkpt>
<trkpt lat="43.840148" lon="5.420587"><ele>547.3</ele><time>2011-01-14T12:14:17Z</time></trkpt>
<trkpt lat="43.840255" lon="5.420510"><ele>548</ele><time>2011-01-14T12:14:22Z</time></trkpt>
<trkpt lat="43.840367" lon="5.420433"><ele>548.6</ele><time>2011-01-14T12:14:27Z</time></trkpt>
<trkpt lat="43.840473" lon="5.420362"><ele>549.2</ele><time>2011-01-14T12:14:32Z</time></trkpt>
<trkpt lat="43.840580" lon="5.420290"><ele>549.8</ele><time>2011-01-14T12:14:37Z</time></trkpt>
<trkpt lat="43.840690" lon="5.420215"><ele>550.3</ele><time>2011-01-14T12:14:42Z</time></trkpt>
<trkpt lat="43.840805" lon="5.420135"><ele>550.7</ele><time>2011-01-14T12:14:47Z</time></trkpt>
<trkpt lat="43.840927" lon="5.420052"><ele>551.3</ele><time>2011-01-14T12:14:52Z</time></trkpt>
<trkpt lat="43.841045" lon="5.419972"><ele>551.9</ele><time>2011-01-14T12:14:57Z</time></trkpt>
<trkpt lat="43.841172" lon="5.419900"><ele>552.5</ele><time>2011-01-14T12:15:02Z</time></trkpt>
<trkpt lat="43.841297" lon="5.419868"><ele>553.9</ele><time>2011-01-14T12:15:07Z</time></trkpt>
<trkpt lat="43.841427" lon="5.419897"><ele>555.4</ele><time>2011-01-14T12:15:12Z</time></trkpt>
<trkpt lat="43.841553" lon="5.419967"><ele>556.2</ele><time>2011-01-14T12:15:17Z</time></trkpt>
<trkpt lat="43.841687" lon="5.419972"><ele>557.3</ele><time>2011-01-14T12:15:22Z</time></trkpt>
<trkpt lat="43.841773" lon="5.419835"><ele>558.3</ele><time>2011-01-14T12:15:27Z</time></trkpt>
<trkpt lat="43.841752" lon="5.419652"><ele>560.2</ele><time>2011-01-14T12:15:32Z</time></trkpt>
<trkpt lat="43.841687" lon="5.419482"><ele>561.3</ele><time>2011-01-14T12:15:37Z</time></trkpt>
<trkpt lat="43.841622" lon="5.419313"><ele>562.5</ele><time>2011-01-14T12:15:42Z</time></trkpt>
<trkpt lat="43.841572" lon="5.419133"><ele>563.3</ele><time>2011-01-14T12:15:47Z</time></trkpt>
<trkpt lat="43.841575" lon="5.418942"><ele>564.2</ele><time>2011-01-14T12:15:52Z</time></trkpt>
<trkpt lat="43.841633" lon="5.418765"><ele>564.6</ele><time>2011-01-14T12:15:57Z</time></trkpt>
<trkpt lat="43.841725" lon="5.418627"><ele>565.4</ele><time>2011-01-14T12:16:02Z</time></trkpt>
<trkpt lat="43.841838" lon="5.418525"><ele>566.1</ele><time>2011-01-14T12:16:07Z</time></trkpt>
<trkpt lat="43.841972" lon="5.418470"><ele>566.9</ele><time>2011-01-14T12:16:12Z</time></trkpt>
<trkpt lat="43.842107" lon="5.418477"><ele>567.8</ele><time>2011-01-14T12:16:17Z</time></trkpt>
<trkpt lat="43.842235" lon="5.418507"><ele>568.3</ele><time>2011-01-14T12:16:22Z</time></trkpt>
<trkpt lat="43.842373" lon="5.418490"><ele>569.3</ele><time>2011-01-14T12:16:27Z</time></trkpt>
<trkpt lat="43.842492" lon="5.418385"><ele>570</ele><time>2011-01-14T12:16:32Z</time></trkpt>
<trkpt lat="43.842590" lon="5.418258"><ele>570.9</ele><time>2011-01-14T12:16:37Z</time></trkpt>
<trkpt lat="43.842693" lon="5.418128"><ele>571.5</ele><time>2011-01-14T12:16:42Z</time></trkpt>
<trkpt lat="43.842803" lon="5.417998"><ele>571.8</ele><time>2011-01-14T12:16:47Z</time></trkpt>
<trkpt lat="43.842910" lon="5.417868"><ele>572.2</ele><time>2011-01-14T12:16:52Z</time></trkpt>
<trkpt lat="43.843018" lon="5.417733"><ele>573</ele><time>2011-01-14T12:16:57Z</time></trkpt>
<trkpt lat="43.843140" lon="5.417590"><ele>573.5</ele><time>2011-01-14T12:17:02Z</time></trkpt>
<trkpt lat="43.843277" lon="5.417442"><ele>574</ele><time>2011-01-14T12:17:07Z</time></trkpt>
<trkpt lat="43.843407" lon="5.417282"><ele>574.3</ele><time>2011-01-14T12:17:12Z</time></trkpt>
<trkpt lat="43.843543" lon="5.417112"><ele>574.5</ele><time>2011-01-14T12:17:17Z</time></trkpt>
<trkpt lat="43.843688" lon="5.416918"><ele>574.4</ele><time>2011-01-14T12:17:22Z</time></trkpt>
<trkpt lat="43.843833" lon="5.416697"><ele>574</ele><time>2011-01-14T12:17:27Z</time></trkpt>
<trkpt lat="43.843990" lon="5.416450"><ele>573.2</ele><time>2011-01-14T12:17:32Z</time></trkpt>
<trkpt lat="43.844143" lon="5.416185"><ele>573.1</ele><time>2011-01-14T12:17:37Z</time></trkpt>
<trkpt lat="43.844295" lon="5.415925"><ele>572.9</ele><time>2011-01-14T12:17:42Z</time></trkpt>
<trkpt lat="43.844452" lon="5.415658"><ele>572.5</ele><time>2011-01-14T12:17:47Z</time></trkpt>
<trkpt lat="43.844620" lon="5.415372"><ele>572.3</ele><time>2011-01-14T12:17:52Z</time></trkpt>
<trkpt lat="43.844795" lon="5.415068"><ele>572</ele><time>2011-01-14T12:17:57Z</time></trkpt>
<trkpt lat="43.844970" lon="5.414765"><ele>571.7</ele><time>2011-01-14T12:18:02Z</time></trkpt>
<trkpt lat="43.845138" lon="5.414467"><ele>571.7</ele><time>2011-01-14T12:18:07Z</time></trkpt>
<trkpt lat="43.845322" lon="5.414158"><ele>571.7</ele><time>2011-01-14T12:18:12Z</time></trkpt>
<trkpt lat="43.845502" lon="5.413845"><ele>571.7</ele><time>2011-01-14T12:18:17Z</time></trkpt>
<trkpt lat="43.845688" lon="5.413542"><ele>571.9</ele><time>2011-01-14T12:18:22Z</time></trkpt>
<trkpt lat="43.845917" lon="5.413402"><ele>572.2</ele><time>2011-01-14T12:18:27Z</time></trkpt>
<trkpt lat="43.845958" lon="5.413758"><ele>572.5</ele><time>2011-01-14T12:18:32Z</time></trkpt>
<trkpt lat="43.845943" lon="5.414142"><ele>572.7</ele><time>2011-01-14T12:18:37Z</time></trkpt>
<trkpt lat="43.845928" lon="5.414530"><ele>573</ele><time>2011-01-14T12:18:42Z</time></trkpt>
<trkpt lat="43.845917" lon="5.414922"><ele>573.4</ele><time>2011-01-14T12:18:47Z</time></trkpt>
<trkpt lat="43.845905" lon="5.415322"><ele>573.6</ele><time>2011-01-14T12:18:52Z</time></trkpt>
<trkpt lat="43.845887" lon="5.415722"><ele>573.8</ele><time>2011-01-14T12:18:57Z</time></trkpt>
<trkpt lat="43.845875" lon="5.416115"><ele>574.1</ele><time>2011-01-14T12:19:02Z</time></trkpt>
<trkpt lat="43.845855" lon="5.416505"><ele>574.3</ele><time>2011-01-14T12:19:07Z</time></trkpt>
<trkpt lat="43.845848" lon="5.416883"><ele>574.8</ele><time>2011-01-14T12:19:12Z</time></trkpt>
<trkpt lat="43.845828" lon="5.417277"><ele>574.8</ele><time>2011-01-14T12:19:17Z</time></trkpt>
<trkpt lat="43.845818" lon="5.417683"><ele>574.9</ele><time>2011-01-14T12:19:22Z</time></trkpt>
<trkpt lat="43.845802" lon="5.418082"><ele>574.8</ele><time>2011-01-14T12:19:27Z</time></trkpt>
<trkpt lat="43.845787" lon="5.418478"><ele>574.9</ele><time>2011-01-14T12:19:32Z</time></trkpt>
<trkpt lat="43.845775" lon="5.418870"><ele>575.2</ele><time>2011-01-14T12:19:37Z</time></trkpt>
<trkpt lat="43.845760" lon="5.419228"><ele>575.7</ele><time>2011-01-14T12:19:42Z</time></trkpt>
<trkpt lat="43.845783" lon="5.419567"><ele>576.5</ele><time>2011-01-14T12:19:47Z</time></trkpt>
<trkpt lat="43.845905" lon="5.419862"><ele>577.2</ele><time>2011-01-14T12:19:52Z</time></trkpt>
<trkpt lat="43.846097" lon="5.420067"><ele>577.9</ele><time>2011-01-14T12:19:57Z</time></trkpt>
<trkpt lat="43.846307" lon="5.420147"><ele>578.9</ele><time>2011-01-14T12:20:02Z</time></trkpt>
<trkpt lat="43.846532" lon="5.420113"><ele>579.7</ele><time>2011-01-14T12:20:07Z</time></trkpt>
<trkpt lat="43.846737" lon="5.420040"><ele>580.3</ele><time>2011-01-14T12:20:12Z</time></trkpt>
<trkpt lat="43.846870" lon="5.420068"><ele>580.3</ele><time>2011-01-14T12:20:17Z</time></trkpt>
<trkpt lat="43.846878" lon="5.420192"><ele>580.4</ele><time>2011-01-14T12:20:22Z</time></trkpt>
<trkpt lat="43.846878" lon="5.420232"><ele>580.7</ele><time>2011-01-14T12:20:27Z</time></trkpt>
<trkpt lat="43.846875" lon="5.420227"><ele>581.2</ele><time>2011-01-14T12:20:32Z</time></trkpt>
<trkpt lat="43.846870" lon="5.420197"><ele>581.7</ele><time>2011-01-14T12:20:37Z</time></trkpt>
<trkpt lat="43.846867" lon="5.420093"><ele>581.4</ele><time>2011-01-14T12:20:42Z</time></trkpt>
<trkpt lat="43.846837" lon="5.419960"><ele>580.9</ele><time>2011-01-14T12:20:47Z</time></trkpt>
<trkpt lat="43.846698" lon="5.419955"><ele>580.5</ele><time>2011-01-14T12:20:52Z</time></trkpt>
<trkpt lat="43.846547" lon="5.420007"><ele>580.2</ele><time>2011-01-14T12:20:57Z</time></trkpt>
<trkpt lat="43.846378" lon="5.420065"><ele>580</ele><time>2011-01-14T12:21:02Z</time></trkpt>
<trkpt lat="43.846198" lon="5.420170"><ele>580</ele><time>2011-01-14T12:21:07Z</time></trkpt>
<trkpt lat="43.846012" lon="5.420232"><ele>580.3</ele><time>2011-01-14T12:21:12Z</time></trkpt>
<trkpt lat="43.845813" lon="5.420282"><ele>580.3</ele><time>2011-01-14T12:21:17Z</time></trkpt>
<trkpt lat="43.845715" lon="5.420507"><ele>579.7</ele><time>2011-01-14T12:21:22Z</time></trkpt>
<trkpt lat="43.845707" lon="5.420807"><ele>579.6</ele><time>2011-01-14T12:21:27Z</time></trkpt>
<trkpt lat="43.845700" lon="5.421102"><ele>579.4</ele><time>2011-01-14T12:21:32Z</time></trkpt>
<trkpt lat="43.845688" lon="5.421395"><ele>579.3</ele><time>2011-01-14T12:21:37Z</time></trkpt>
<trkpt lat="43.845683" lon="5.421702"><ele>579.3</ele><time>2011-01-14T12:21:42Z</time></trkpt>
<trkpt lat="43.845680" lon="5.422017"><ele>579.4</ele><time>2011-01-14T12:21:47Z</time></trkpt>
<trkpt lat="43.845673" lon="5.422335"><ele>579.6</ele><time>2011-01-14T12:21:52Z</time></trkpt>
<trkpt lat="43.845657" lon="5.422647"><ele>580</ele><time>2011-01-14T12:21:57Z</time></trkpt>
<trkpt lat="43.845642" lon="5.422970"><ele>580.1</ele><time>2011-01-14T12:22:02Z</time></trkpt>
<trkpt lat="43.845623" lon="5.423307"><ele>580.3</ele><time>2011-01-14T12:22:07Z</time></trkpt>
<trkpt lat="43.845608" lon="5.423657"><ele>580.5</ele><time>2011-01-14T12:22:12Z</time></trkpt>
<trkpt lat="43.845592" lon="5.424003"><ele>580.7</ele><time>2011-01-14T12:22:17Z</time></trkpt>
<trkpt lat="43.845582" lon="5.424353"><ele>581.2</ele><time>2011-01-14T12:22:22Z</time></trkpt>
<trkpt lat="43.845570" lon="5.424707"><ele>581.6</ele><time>2011-01-14T12:22:27Z</time></trkpt>
<trkpt lat="43.845562" lon="5.425052"><ele>582.1</ele><time>2011-01-14T12:22:32Z</time></trkpt>
<trkpt lat="43.845550" lon="5.425385"><ele>582.7</ele><time>2011-01-14T12:22:37Z</time></trkpt>
<trkpt lat="43.845528" lon="5.425722"><ele>583.5</ele><time>2011-01-14T12:22:42Z</time></trkpt>
<trkpt lat="43.845505" lon="5.426063"><ele>584.2</ele><time>2011-01-14T12:22:47Z</time></trkpt>
<trkpt lat="43.845490" lon="5.426412"><ele>584.9</ele><time>2011-01-14T12:22:52Z</time></trkpt>
<trkpt lat="43.845478" lon="5.426758"><ele>585.6</ele><time>2011-01-14T12:22:57Z</time></trkpt>
<trkpt lat="43.845470" lon="5.427085"><ele>586.1</ele><time>2011-01-14T12:23:02Z</time></trkpt>
<trkpt lat="43.845458" lon="5.427417"><ele>586.7</ele><time>2011-01-14T12:23:07Z</time></trkpt>
<trkpt lat="43.845428" lon="5.427765"><ele>586.9</ele><time>2011-01-14T12:23:12Z</time></trkpt>
<trkpt lat="43.845402" lon="5.428113"><ele>587.2</ele><time>2011-01-14T12:23:17Z</time></trkpt>
<trkpt lat="43.845372" lon="5.428457"><ele>587.4</ele><time>2011-01-14T12:23:22Z</time></trkpt>
<trkpt lat="43.845340" lon="5.428813"><ele>587.6</ele><time>2011-01-14T12:23:27Z</time></trkpt>
<trkpt lat="43.845313" lon="5.429183"><ele>588.1</ele><time>2011-01-14T12:23:32Z</time></trkpt>
<trkpt lat="43.845287" lon="5.429558"><ele>588.4</ele><time>2011-01-14T12:23:37Z</time></trkpt>
<trkpt lat="43.845260" lon="5.429935"><ele>588.9</ele><time>2011-01-14T12:23:42Z</time></trkpt>
<trkpt lat="43.845230" lon="5.430292"><ele>589</ele><time>2011-01-14T12:23:47Z</time></trkpt>
<trkpt lat="43.845207" lon="5.430658"><ele>589</ele><time>2011-01-14T12:23:52Z</time></trkpt>
<trkpt lat="43.845185" lon="5.431080"><ele>588.7</ele><time>2011-01-14T12:23:57Z</time></trkpt>
<trkpt lat="43.845147" lon="5.431532"><ele>587.7</ele><time>2011-01-14T12:24:02Z</time></trkpt>
<trkpt lat="43.845238" lon="5.431953"><ele>588</ele><time>2011-01-14T12:24:07Z</time></trkpt>
<trkpt lat="43.845432" lon="5.432302"><ele>588.8</ele><time>2011-01-14T12:24:12Z</time></trkpt>
<trkpt lat="43.845627" lon="5.432640"><ele>589.5</ele><time>2011-01-14T12:24:17Z</time></trkpt>
<trkpt lat="43.845818" lon="5.432983"><ele>590</ele><time>2011-01-14T12:24:22Z</time></trkpt>
<trkpt lat="43.846017" lon="5.433330"><ele>590.8</ele><time>2011-01-14T12:24:27Z</time></trkpt>
<trkpt lat="43.846210" lon="5.433663"><ele>591.4</ele><time>2011-01-14T12:24:32Z</time></trkpt>
<trkpt lat="43.846397" lon="5.434015"><ele>591.2</ele><time>2011-01-14T12:24:37Z</time></trkpt>
<trkpt lat="43.846607" lon="5.434358"><ele>591.4</ele><time>2011-01-14T12:24:42Z</time></trkpt>
<trkpt lat="43.846875" lon="5.434563"><ele>592.2</ele><time>2011-01-14T12:24:47Z</time></trkpt>
<trkpt lat="43.847130" lon="5.434655"><ele>593.4</ele><time>2011-01-14T12:24:52Z</time></trkpt>
<trkpt lat="43.847340" lon="5.434708"><ele>594.7</ele><time>2011-01-14T12:24:57Z</time></trkpt>
<trkpt lat="43.847565" lon="5.434758"><ele>594.6</ele><time>2011-01-14T12:25:02Z</time></trkpt>
<trkpt lat="43.847850" lon="5.434820"><ele>592.7</ele><time>2011-01-14T12:25:07Z</time></trkpt>
<trkpt lat="43.848210" lon="5.434902"><ele>590.1</ele><time>2011-01-14T12:25:12Z</time></trkpt>
<trkpt lat="43.848557" lon="5.434980"><ele>589.1</ele><time>2011-01-14T12:25:17Z</time></trkpt>
<trkpt lat="43.848870" lon="5.435045"><ele>589.4</ele><time>2011-01-14T12:25:22Z</time></trkpt>
<trkpt lat="43.849163" lon="5.435108"><ele>590</ele><time>2011-01-14T12:25:27Z</time></trkpt>
<trkpt lat="43.849460" lon="5.435178"><ele>589.9</ele><time>2011-01-14T12:25:32Z</time></trkpt>
<trkpt lat="43.849770" lon="5.435247"><ele>589.9</ele><time>2011-01-14T12:25:37Z</time></trkpt>
<trkpt lat="43.850090" lon="5.435322"><ele>590.2</ele><time>2011-01-14T12:25:42Z</time></trkpt>
<trkpt lat="43.850422" lon="5.435388"><ele>589</ele><time>2011-01-14T12:25:47Z</time></trkpt>
<trkpt lat="43.850785" lon="5.435457"><ele>587.6</ele><time>2011-01-14T12:25:52Z</time></trkpt>
<trkpt lat="43.851143" lon="5.435540"><ele>585.8</ele><time>2011-01-14T12:25:57Z</time></trkpt>
<trkpt lat="43.851487" lon="5.435623"><ele>584</ele><time>2011-01-14T12:26:02Z</time></trkpt>
<trkpt lat="43.851783" lon="5.435530"><ele>583.1</ele><time>2011-01-14T12:26:07Z</time></trkpt>
<trkpt lat="43.852055" lon="5.435303"><ele>582.5</ele><time>2011-01-14T12:26:12Z</time></trkpt>
<trkpt lat="43.852360" lon="5.435125"><ele>581.8</ele><time>2011-01-14T12:26:17Z</time></trkpt>
<trkpt lat="43.852673" lon="5.434955"><ele>581.1</ele><time>2011-01-14T12:26:22Z</time></trkpt>
<trkpt lat="43.852990" lon="5.434795"><ele>580.1</ele><time>2011-01-14T12:26:27Z</time></trkpt>
<trkpt lat="43.853302" lon="5.434662"><ele>578.6</ele><time>2011-01-14T12:26:32Z</time></trkpt>
<trkpt lat="43.853633" lon="5.434550"><ele>576.8</ele><time>2011-01-14T12:26:37Z</time></trkpt>
<trkpt lat="43.853950" lon="5.434500"><ele>575</ele><time>2011-01-14T12:26:42Z</time></trkpt>
<trkpt lat="43.854263" lon="5.434515"><ele>572.4</ele><time>2011-01-14T12:26:47Z</time></trkpt>
<trkpt lat="43.854588" lon="5.434492"><ele>569.5</ele><time>2011-01-14T12:26:52Z</time></trkpt>
<trkpt lat="43.854908" lon="5.434407"><ele>565.7</ele><time>2011-01-14T12:26:57Z</time></trkpt>
<trkpt lat="43.855240" lon="5.434270"><ele>560.7</ele><time>2011-01-14T12:27:02Z</time></trkpt>
<trkpt lat="43.855602" lon="5.434243"><ele>556.5</ele><time>2011-01-14T12:27:07Z</time></trkpt>
<trkpt lat="43.855892" lon="5.434328"><ele>553.4</ele><time>2011-01-14T12:27:12Z</time></trkpt>
<trkpt lat="43.856155" lon="5.434375"><ele>551.9</ele><time>2011-01-14T12:27:17Z</time></trkpt>
<trkpt lat="43.856400" lon="5.434410"><ele>551</ele><time>2011-01-14T12:27:22Z</time></trkpt>
<trkpt lat="43.856632" lon="5.434447"><ele>550.5</ele><time>2011-01-14T12:27:27Z</time></trkpt>
<trkpt lat="43.856842" lon="5.434477"><ele>550.6</ele><time>2011-01-14T12:27:32Z</time></trkpt>
<trkpt lat="43.857013" lon="5.434523"><ele>549.9</ele><time>2011-01-14T12:27:37Z</time></trkpt>
<trkpt lat="43.857247" lon="5.434527"><ele>548.8</ele><time>2011-01-14T12:27:42Z</time></trkpt>
<trkpt lat="43.857437" lon="5.434455"><ele>548.8</ele><time>2011-01-14T12:27:47Z</time></trkpt>
<trkpt lat="43.857650" lon="5.434388"><ele>548.3</ele><time>2011-01-14T12:27:52Z</time></trkpt>
<trkpt lat="43.857887" lon="5.434287"><ele>547.9</ele><time>2011-01-14T12:27:57Z</time></trkpt>
<trkpt lat="43.858108" lon="5.434133"><ele>547.7</ele><time>2011-01-14T12:28:02Z</time></trkpt>
<trkpt lat="43.858327" lon="5.433967"><ele>547.3</ele><time>2011-01-14T12:28:07Z</time></trkpt>
<trkpt lat="43.858558" lon="5.433800"><ele>546.5</ele><time>2011-01-14T12:28:12Z</time></trkpt>
<trkpt lat="43.858803" lon="5.433700"><ele>544.2</ele><time>2011-01-14T12:28:17Z</time></trkpt>
<trkpt lat="43.859032" lon="5.433542"><ele>541.8</ele><time>2011-01-14T12:28:22Z</time></trkpt>
<trkpt lat="43.859218" lon="5.433368"><ele>538.8</ele><time>2011-01-14T12:28:27Z</time></trkpt>
<trkpt lat="43.859378" lon="5.433173"><ele>536.1</ele><time>2011-01-14T12:28:32Z</time></trkpt>
<trkpt lat="43.859562" lon="5.432983"><ele>533.4</ele><time>2011-01-14T12:28:37Z</time></trkpt>
<trkpt lat="43.859742" lon="5.432765"><ele>530.4</ele><time>2011-01-14T12:28:42Z</time></trkpt>
<trkpt lat="43.859902" lon="5.432560"><ele>528.1</ele><time>2011-01-14T12:28:47Z</time></trkpt>
<trkpt lat="43.860000" lon="5.432465"><ele>526.9</ele><time>2011-01-14T12:28:52Z</time></trkpt>
<trkpt lat="43.860077" lon="5.432197"><ele>524.5</ele><time>2011-01-14T12:28:57Z</time></trkpt>
<trkpt lat="43.860157" lon="5.431797"><ele>521.3</ele><time>2011-01-14T12:29:02Z</time></trkpt>
<trkpt lat="43.860210" lon="5.431520"><ele>519.5</ele><time>2011-01-14T12:29:07Z</time></trkpt>
<trkpt lat="43.860263" lon="5.431403"><ele>517.6</ele><time>2011-01-14T12:29:12Z</time></trkpt>
<trkpt lat="43.860302" lon="5.431208"><ele>516</ele><time>2011-01-14T12:29:17Z</time></trkpt>
<trkpt lat="43.860348" lon="5.431000"><ele>513.6</ele><time>2011-01-14T12:29:22Z</time></trkpt>
<trkpt lat="43.860397" lon="5.430758"><ele>510.5</ele><time>2011-01-14T12:29:27Z</time></trkpt>
<trkpt lat="43.860450" lon="5.430513"><ele>507.1</ele><time>2011-01-14T12:29:32Z</time></trkpt>
<trkpt lat="43.860573" lon="5.430385"><ele>504.2</ele><time>2011-01-14T12:29:37Z</time></trkpt>
<trkpt lat="43.860772" lon="5.430318"><ele>501</ele><time>2011-01-14T12:29:42Z</time></trkpt>
<trkpt lat="43.860973" lon="5.430255"><ele>498.5</ele><time>2011-01-14T12:29:47Z</time></trkpt>
<trkpt lat="43.861172" lon="5.430190"><ele>496.1</ele><time>2011-01-14T12:29:52Z</time></trkpt>
<trkpt lat="43.861367" lon="5.430127"><ele>494</ele><time>2011-01-14T12:29:57Z</time></trkpt>
<trkpt lat="43.861533" lon="5.430048"><ele>492.3</ele><time>2011-01-14T12:30:02Z</time></trkpt>
<trkpt lat="43.861713" lon="5.430012"><ele>491.9</ele><time>2011-01-14T12:30:07Z</time></trkpt>
<trkpt lat="43.861760" lon="5.429810"><ele>491.4</ele><time>2011-01-14T12:30:12Z</time></trkpt>
<trkpt lat="43.861580" lon="5.429623"><ele>489.9</ele><time>2011-01-14T12:30:17Z</time></trkpt>
<trkpt lat="43.861305" lon="5.429488"><ele>487.9</ele><time>2011-01-14T12:30:22Z</time></trkpt>
<trkpt lat="43.861133" lon="5.429072"><ele>485.5</ele><time>2011-01-14T12:30:27Z</time></trkpt>
<trkpt lat="43.861027" lon="5.428563"><ele>482.7</ele><time>2011-01-14T12:30:32Z</time></trkpt>
<trkpt lat="43.860867" lon="5.428058"><ele>480</ele><time>2011-01-14T12:30:37Z</time></trkpt>
<trkpt lat="43.860618" lon="5.427595"><ele>476.6</ele><time>2011-01-14T12:30:42Z</time></trkpt>
<trkpt lat="43.860317" lon="5.427287"><ele>473.4</ele><time>2011-01-14T12:30:47Z</time></trkpt>
<trkpt lat="43.860172" lon="5.426955"><ele>470.7</ele><time>2011-01-14T12:30:52Z</time></trkpt>
<trkpt lat="43.860420" lon="5.426757"><ele>469</ele><time>2011-01-14T12:30:57Z</time></trkpt>
<trkpt lat="43.860730" lon="5.426915"><ele>468</ele><time>2011-01-14T12:31:02Z</time></trkpt>
<trkpt lat="43.861027" lon="5.427073"><ele>466.4</ele><time>2011-01-14T12:31:07Z</time></trkpt>
<trkpt lat="43.861358" lon="5.427163"><ele>463.3</ele><time>2011-01-14T12:31:12Z</time></trkpt>
<trkpt lat="43.861737" lon="5.427257"><ele>459.7</ele><time>2011-01-14T12:31:17Z</time></trkpt>
<trkpt lat="43.862137" lon="5.427240"><ele>456.5</ele><time>2011-01-14T12:31:22Z</time></trkpt>
<trkpt lat="43.862542" lon="5.427037"><ele>454</ele><time>2011-01-14T12:31:27Z</time></trkpt>
<trkpt lat="43.862762" lon="5.426737"><ele>451.9</ele><time>2011-01-14T12:31:32Z</time></trkpt>
<trkpt lat="43.862527" lon="5.426358"><ele>448.2</ele><time>2011-01-14T12:31:37Z</time></trkpt>
<trkpt lat="43.862205" lon="5.426033"><ele>443.8</ele><time>2011-01-14T12:31:42Z</time></trkpt>
<trkpt lat="43.861893" lon="5.425705"><ele>439.5</ele><time>2011-01-14T12:31:47Z</time></trkpt>
<trkpt lat="43.861580" lon="5.425382"><ele>435.5</ele><time>2011-01-14T12:31:52Z</time></trkpt>
<trkpt lat="43.861290" lon="5.424988"><ele>431.8</ele><time>2011-01-14T12:31:57Z</time></trkpt>
<trkpt lat="43.861160" lon="5.424380"><ele>428.1</ele><time>2011-01-14T12:32:02Z</time></trkpt>
<trkpt lat="43.861077" lon="5.423703"><ele>424.3</ele><time>2011-01-14T12:32:07Z</time></trkpt>
<trkpt lat="43.860970" lon="5.423017"><ele>420.3</ele><time>2011-01-14T12:32:12Z</time></trkpt>
<trkpt lat="43.860912" lon="5.422435"><ele>416.6</ele><time>2011-01-14T12:32:17Z</time></trkpt>
<trkpt lat="43.861195" lon="5.422067"><ele>413.6</ele><time>2011-01-14T12:32:22Z</time></trkpt>
<trkpt lat="43.861633" lon="5.421820"><ele>409.5</ele><time>2011-01-14T12:32:27Z</time></trkpt>
<trkpt lat="43.862015" lon="5.421343"><ele>404.6</ele><time>2011-01-14T12:32:32Z</time></trkpt>
<trkpt lat="43.862267" lon="5.420710"><ele>397.8</ele><time>2011-01-14T12:32:37Z</time></trkpt>
<trkpt lat="43.862572" lon="5.420253"><ele>391.2</ele><time>2011-01-14T12:32:42Z</time></trkpt>
<trkpt lat="43.863063" lon="5.420117"><ele>384.1</ele><time>2011-01-14T12:32:47Z</time></trkpt>
<trkpt lat="43.863495" lon="5.419978"><ele>377.6</ele><time>2011-01-14T12:32:52Z</time></trkpt>
<trkpt lat="43.863835" lon="5.419535"><ele>370.9</ele><time>2011-01-14T12:32:57Z</time></trkpt>
<trkpt lat="43.864125" lon="5.418958"><ele>364.8</ele><time>2011-01-14T12:33:02Z</time></trkpt>
<trkpt lat="43.864338" lon="5.418375"><ele>360.1</ele><time>2011-01-14T12:33:07Z</time></trkpt>
<trkpt lat="43.864300" lon="5.417702"><ele>356.5</ele><time>2011-01-14T12:33:12Z</time></trkpt>
<trkpt lat="43.864433" lon="5.417033"><ele>353.2</ele><time>2011-01-14T12:33:17Z</time></trkpt>
<trkpt lat="43.864655" lon="5.416412"><ele>349.2</ele><time>2011-01-14T12:33:22Z</time></trkpt>
<trkpt lat="43.864838" lon="5.415705"><ele>344.1</ele><time>2011-01-14T12:33:27Z</time></trkpt>
<trkpt lat="43.865005" lon="5.415088"><ele>340.1</ele><time>2011-01-14T12:33:32Z</time></trkpt>
<trkpt lat="43.865158" lon="5.414593"><ele>336.2</ele><time>2011-01-14T12:33:37Z</time></trkpt>
<trkpt lat="43.865513" lon="5.414230"><ele>331.4</ele><time>2011-01-14T12:33:42Z</time></trkpt>
<trkpt lat="43.866005" lon="5.414183"><ele>329</ele><time>2011-01-14T12:33:47Z</time></trkpt>
<trkpt lat="43.866447" lon="5.414208"><ele>328.1</ele><time>2011-01-14T12:33:52Z</time></trkpt>
<trkpt lat="43.866845" lon="5.414188"><ele>326.1</ele><time>2011-01-14T12:33:57Z</time></trkpt>
<trkpt lat="43.867215" lon="5.413968"><ele>323.2</ele><time>2011-01-14T12:34:02Z</time></trkpt>
<trkpt lat="43.867520" lon="5.413507"><ele>319.4</ele><time>2011-01-14T12:34:07Z</time></trkpt>
<trkpt lat="43.867820" lon="5.412983"><ele>314.9</ele><time>2011-01-14T12:34:12Z</time></trkpt>
<trkpt lat="43.868130" lon="5.412423"><ele>310.8</ele><time>2011-01-14T12:34:17Z</time></trkpt>
<trkpt lat="43.868435" lon="5.411862"><ele>307.4</ele><time>2011-01-14T12:34:22Z</time></trkpt>
<trkpt lat="43.868752" lon="5.411303"><ele>303.3</ele><time>2011-01-14T12:34:27Z</time></trkpt>
<trkpt lat="43.869160" lon="5.410818"><ele>298.7</ele><time>2011-01-14T12:34:32Z</time></trkpt>
<trkpt lat="43.869640" lon="5.410447"><ele>294.1</ele><time>2011-01-14T12:34:37Z</time></trkpt>
<trkpt lat="43.870167" lon="5.410195"><ele>289.5</ele><time>2011-01-14T12:34:42Z</time></trkpt>
<trkpt lat="43.870685" lon="5.409947"><ele>285.7</ele><time>2011-01-14T12:34:47Z</time></trkpt>
<trkpt lat="43.871155" lon="5.409633"><ele>282.9</ele><time>2011-01-14T12:34:52Z</time></trkpt>
<trkpt lat="43.871597" lon="5.409333"><ele>280.4</ele><time>2011-01-14T12:34:57Z</time></trkpt>
<trkpt lat="43.872017" lon="5.409045"><ele>278.1</ele><time>2011-01-14T12:35:02Z</time></trkpt>
<trkpt lat="43.872413" lon="5.408775"><ele>276.2</ele><time>2011-01-14T12:35:07Z</time></trkpt>
<trkpt lat="43.872810" lon="5.408503"><ele>273.7</ele><time>2011-01-14T12:35:12Z</time></trkpt>
<trkpt lat="43.873222" lon="5.408187"><ele>270</ele><time>2011-01-14T12:35:17Z</time></trkpt>
<trkpt lat="43.873508" lon="5.407690"><ele>266.3</ele><time>2011-01-14T12:35:22Z</time></trkpt>
<trkpt lat="43.873555" lon="5.407068"><ele>262.7</ele><time>2011-01-14T12:35:27Z</time></trkpt>
<trkpt lat="43.873463" lon="5.406608"><ele>259.6</ele><time>2011-01-14T12:35:32Z</time></trkpt>
<trkpt lat="43.873287" lon="5.406135"><ele>255.9</ele><time>2011-01-14T12:35:37Z</time></trkpt>
<trkpt lat="43.873207" lon="5.405563"><ele>253</ele><time>2011-01-14T12:35:42Z</time></trkpt>
<trkpt lat="43.873432" lon="5.405132"><ele>251.4</ele><time>2011-01-14T12:35:47Z</time></trkpt>
<trkpt lat="43.873802" lon="5.404738"><ele>246.9</ele><time>2011-01-14T12:35:52Z</time></trkpt>
<trkpt lat="43.873993" lon="5.404152"><ele>242.4</ele><time>2011-01-14T12:35:57Z</time></trkpt>
<trkpt lat="43.874097" lon="5.403520"><ele>239.3</ele><time>2011-01-14T12:36:02Z</time></trkpt>
<trkpt lat="43.874195" lon="5.402918"><ele>236.6</ele><time>2011-01-14T12:36:07Z</time></trkpt>
<trkpt lat="43.874278" lon="5.402338"><ele>234.6</ele><time>2011-01-14T12:36:12Z</time></trkpt>
<trkpt lat="43.874363" lon="5.401772"><ele>232.9</ele><time>2011-01-14T12:36:17Z</time></trkpt>
<trkpt lat="43.874473" lon="5.401225"><ele>230</ele><time>2011-01-14T12:36:22Z</time></trkpt>
<trkpt lat="43.874737" lon="5.400935"><ele>227.6</ele><time>2011-01-14T12:36:27Z</time></trkpt>
<trkpt lat="43.874855" lon="5.400825"><ele>226.7</ele><time>2011-01-14T12:36:32Z</time></trkpt>
<trkpt lat="43.874962" lon="5.400838"><ele>226.8</ele><time>2011-01-14T12:36:37Z</time></trkpt>
<trkpt lat="43.875163" lon="5.400718"><ele>226.6</ele><time>2011-01-14T12:36:42Z</time></trkpt>
<trkpt lat="43.875355" lon="5.400502"><ele>226.7</ele><time>2011-01-14T12:36:47Z</time></trkpt>
<trkpt lat="43.875523" lon="5.400320"><ele>226.9</ele><time>2011-01-14T12:36:52Z</time></trkpt>
<trkpt lat="43.875622" lon="5.400105"><ele>227.2</ele><time>2011-01-14T12:36:57Z</time></trkpt>
<trkpt lat="43.875553" lon="5.399912"><ele>227.6</ele><time>2011-01-14T12:37:02Z</time></trkpt>
<trkpt lat="43.875607" lon="5.399747"><ele>227.8</ele><time>2011-01-14T12:37:07Z</time></trkpt>
<trkpt lat="43.875660" lon="5.399582"><ele>229.5</ele><time>2011-01-14T12:37:12Z</time></trkpt>
<trkpt lat="43.875713" lon="5.399452"><ele>234.8</ele><time>2011-01-14T12:37:17Z</time></trkpt>
<trkpt lat="43.875790" lon="5.399348"><ele>242.1</ele><time>2011-01-14T12:37:22Z</time></trkpt>
<trkpt lat="43.875835" lon="5.399248"><ele>249</ele><time>2011-01-14T12:37:27Z</time></trkpt>
<trkpt lat="43.875832" lon="5.399183"><ele>247.8</ele><time>2011-01-14T12:37:32Z</time></trkpt>
<trkpt lat="43.875843" lon="5.399143"><ele>248.8</ele><time>2011-01-14T12:37:37Z</time></trkpt>
<trkpt lat="43.875840" lon="5.399128"><ele>249.5</ele><time>2011-01-14T12:37:42Z</time></trkpt>
<trkpt lat="43.875817" lon="5.399150"><ele>247.5</ele><time>2011-01-14T12:37:47Z</time></trkpt>
<trkpt lat="43.875808" lon="5.399208"><ele>240.9</ele><time>2011-01-14T12:37:52Z</time></trkpt>
<trkpt lat="43.875797" lon="5.399168"><ele>239.6</ele><time>2011-01-14T12:37:57Z</time></trkpt>
<trkpt lat="43.875888" lon="5.399222"><ele>247.2</ele><time>2011-01-14T12:38:35Z</time></trkpt>
<trkpt lat="43.875920" lon="5.399440"><ele>273.6</ele><time>2011-01-14T12:38:40Z</time></trkpt>
<trkpt lat="43.876012" lon="5.399422"><ele>282.1</ele><time>2011-01-14T12:38:47Z</time></trkpt>
<trkpt lat="43.875988" lon="5.399367"><ele>277.7</ele><time>2011-01-14T12:38:52Z</time></trkpt>
<trkpt lat="43.875950" lon="5.399308"><ele>258.6</ele><time>2011-01-14T12:38:57Z</time></trkpt>
<trkpt lat="43.875930" lon="5.399313"><ele>250.3</ele><time>2011-01-14T12:39:02Z</time></trkpt>
<trkpt lat="43.875908" lon="5.399347"><ele>248.2</ele><time>2011-01-14T12:39:07Z</time></trkpt>
<trkpt lat="43.875908" lon="5.399365"><ele>253.2</ele><time>2011-01-14T12:39:12Z</time></trkpt>
<trkpt lat="43.875930" lon="5.399343"><ele>254.4</ele><time>2011-01-14T12:39:17Z</time></trkpt>
<trkpt lat="43.875942" lon="5.399325"><ele>252.2</ele><time>2011-01-14T12:39:22Z</time></trkpt>
<trkpt lat="43.875947" lon="5.399300"><ele>253.3</ele><time>2011-01-14T12:39:27Z</time></trkpt>
<trkpt lat="43.875938" lon="5.399285"><ele>257</ele><time>2011-01-14T12:39:32Z</time></trkpt>
<trkpt lat="43.875935" lon="5.399288"><ele>261.7</ele><time>2011-01-14T12:39:40Z</time></trkpt>
<trkpt lat="43.875835" lon="5.399402"><ele>249.5</ele><time>2011-01-14T12:39:45Z</time></trkpt>
<trkpt lat="43.875813" lon="5.399602"><ele>249.3</ele><time>2011-01-14T12:39:50Z</time></trkpt>
<trkpt lat="43.875775" lon="5.399577"><ele>249</ele><time>2011-01-14T12:39:55Z</time></trkpt>
<trkpt lat="43.875778" lon="5.399437"><ele>249.8</ele><time>2011-01-14T12:40:00Z</time></trkpt>
<trkpt lat="43.875823" lon="5.399313"><ele>250.2</ele><time>2011-01-14T12:40:05Z</time></trkpt>
<trkpt lat="43.875775" lon="5.399268"><ele>248.2</ele><time>2011-01-14T12:40:10Z</time></trkpt>
<trkpt lat="43.875758" lon="5.399277"><ele>250.2</ele><time>2011-01-14T12:40:15Z</time></trkpt>
<trkpt lat="43.875778" lon="5.399208"><ele>251</ele><time>2011-01-14T12:40:20Z</time></trkpt>
<trkpt lat="43.875770" lon="5.399158"><ele>250.4</ele><time>2011-01-14T12:40:25Z</time></trkpt>
<trkpt lat="43.875808" lon="5.399053"><ele>250.4</ele><time>2011-01-14T12:40:30Z</time></trkpt>
</trkseg></trk></gpx>